[[{"header":{"parameterUnit":"m.s-1","parameterCategory":1,"la1":30.6,"la2":29.2853,"lo1":-89.7004,"lo2":-87.6739,"dy":0.0162,"dx":0.0183,"nx":112,"ny":82,"refTime":"2026-03-03T12:00:00:Z","depth":0,"parameterNumber":2,"parameterNumberName":"U-component_of_WINDS"},"data":[0.0,0.0,0.0,0.0,0.0,0.0,0.0,0.0,0.0,0.0,0.0,0.0,0.0,0.0,0.0,0.0,0.0,0.0,0.0,0.0,0.0,0.0,0.0,0.0,0.0,0.0,0.0,0.0,0.0,0.0,0.0,0.0,0.0,0.0,0.0,0.0,0.0,0.0,0.0,0.0,0.0,0.0,0.0,0.0,0.0,0.0,0.0,0.0,0.0,0.0,0.0,0.0,0.0,0.0,0.0,0.0,0.0,0.0,0.0,0.0,0.0,0.0,0.0,0.0,0.0,0.0,0.0,0.0,0.0,0.0,0.0,0.0,0.0,0.0,0.0,0.0,0.0,0.0,0.0,0.0,0.0,0.0,0.0,0.0,0.0,0.0,0.0,0.0,0.0,0.0,-4.2581,-4.3175,-4.3887,-4.436,-4.4402,-4.4397,-4.3777,-4.233,0.0,0.0,0.0,0.0,0.0,0.0,0.0,0.0,0.0,0.0,0.0,0.0,0.0,0.0,0.0,0.0,0.0,0.0,0.0,0.0,0.0,0.0,0.0,0.0,0.0,0.0,0.0,0.0,0.0,0.0,0.0,0.0,0.0,0.0,0.0,0.0,0.0,0.0,0.0,0.0,0.0,0.0,0.0,0.0,0.0,0.0,0.0,0.0,0.0,0.0,0.0,0.0,0.0,0.0,0.0,0.0,0.0,0.0,0.0,0.0,0.0,0.0,0.0,0.0,0.0,0.0,0.0,0.0,0.0,0.0,0.0,0.0,0.0,0.0,0.0,0.0,0.0,0.0,0.0,0.0,0.0,0.0,0.0,0.0,0.0,0.0,0.0,0.0,0.0,0.0,0.0,0.0,0.0,0.0,0.0,0.0,0.0,0.0,0.0,0.0,0.0,0.0,0.0,0.0,-4.1986,-4.3683,-4.3989,-4.4151,-4.4388,-4.4397,-4.3697,-4.2064,0.0,0.0,0.0,0.0,0.0,0.0,0.0,0.0,0.0,0.0,0.0,0.0,0.0,0.0,0.0,0.0,0.0,0.0,0.0,0.0,0.0,0.0,0.0,0.0,0.0,0.0,0.0,0.0,0.0,0.0,0.0,0.0,0.0,0.0,0.0,0.0,0.0,0.0,0.0,0.0,0.0,0.0,0.0,0.0,0.0,0.0,0.0,0.0,0.0,0.0,0.0,0.0,0.0,0.0,0.0,0.0,0.0,0.0,0.0,0.0,0.0,0.0,0.0,0.0,0.0,0.0,0.0,0.0,0.0,0.0,0.0,0.0,0.0,0.0,0.0,0.0,0.0,0.0,0.0,0.0,0.0,0.0,0.0,0.0,0.0,0.0,0.0,0.0,0.0,0.0,0.0,0.0,0.0,0.0,0.0,0.0,0.0,0.0,0.0,0.0,0.0,0.0,0.0,-4.0913,-4.1597,-4.3381,-4.3582,-4.3631,-4.374,-4.3756,-4.3132,-4.1669,-4.1684,0.0,0.0,0.0,0.0,0.0,0.0,0.0,0.0,0.0,0.0,0.0,0.0,0.0,0.0,0.0,0.0,0.0,0.0,0.0,0.0,0.0,0.0,0.0,0.0,0.0,0.0,0.0,0.0,0.0,0.0,0.0,0.0,0.0,0.0,0.0,0.0,0.0,0.0,0.0,0.0,0.0,0.0,0.0,0.0,0.0,0.0,0.0,0.0,0.0,0.0,0.0,0.0,0.0,0.0,0.0,0.0,0.0,0.0,0.0,0.0,0.0,0.0,0.0,0.0,0.0,0.0,0.0,0.0,0.0,0.0,0.0,0.0,0.0,0.0,0.0,0.0,0.0,0.0,0.0,0.0,0.0,0.0,0.0,0.0,0.0,0.0,0.0,0.0,0.0,0.0,0.0,0.0,0.0,0.0,0.0,0.0,0.0,0.0,0.0,0.0,0.0,0.0,-4.1357,-4.1811,-4.3069,-4.3214,-4.3214,-4.3214,-4.3032,-4.2407,-4.1254,-4.1009,0.0,0.0,0.0,0.0,0.0,0.0,0.0,0.0,0.0,0.0,0.0,0.0,0.0,0.0,0.0,0.0,0.0,0.0,0.0,0.0,0.0,0.0,0.0,0.0,0.0,0.0,0.0,0.0,0.0,0.0,0.0,0.0,0.0,0.0,0.0,0.0,0.0,0.0,0.0,0.0,0.0,0.0,0.0,0.0,0.0,0.0,0.0,0.0,0.0,0.0,0.0,0.0,0.0,0.0,0.0,0.0,0.0,0.0,0.0,0.0,0.0,0.0,0.0,0.0,0.0,0.0,0.0,0.0,0.0,0.0,0.0,0.0,0.0,0.0,0.0,0.0,0.0,0.0,0.0,0.0,0.0,0.0,0.0,0.0,0.0,0.0,0.0,0.0,0.0,0.0,0.0,0.0,0.0,0.0,0.0,0.0,0.0,0.0,0.0,0.0,0.0,0.0,-4.1613,-4.3014,-4.3178,-4.3214,-4.3214,-4.3214,-4.2503,-4.1737,-4.0896,-4.013,0.0,0.0,0.0,0.0,0.0,0.0,0.0,0.0,0.0,0.0,0.0,0.0,0.0,0.0,0.0,0.0,0.0,0.0,0.0,0.0,0.0,0.0,0.0,0.0,0.0,0.0,0.0,0.0,0.0,0.0,0.0,0.0,0.0,0.0,0.0,0.0,0.0,0.0,0.0,0.0,0.0,0.0,0.0,0.0,0.0,0.0,0.0,0.0,0.0,0.0,0.0,0.0,0.0,0.0,0.0,0.0,0.0,0.0,0.0,0.0,0.0,0.0,0.0,0.0,0.0,0.0,0.0,0.0,0.0,0.0,0.0,0.0,0.0,0.0,0.0,0.0,0.0,0.0,0.0,0.0,0.0,0.0,0.0,0.0,0.0,0.0,0.0,0.0,0.0,0.0,0.0,0.0,0.0,0.0,0.0,0.0,0.0,0.0,0.0,0.0,0.0,0.0,-3.9917,-4.1009,-4.2032,-4.24,-4.246,-4.2142,-4.2131,-4.139,-3.9644,0.0,0.0,0.0,0.0,0.0,0.0,0.0,0.0,0.0,0.0,0.0,0.0,0.0,0.0,0.0,0.0,0.0,0.0,0.0,0.0,0.0,0.0,0.0,0.0,0.0,0.0,0.0,0.0,0.0,0.0,0.0,0.0,0.0,0.0,0.0,0.0,0.0,0.0,0.0,0.0,0.0,0.0,0.0,0.0,0.0,0.0,0.0,0.0,0.0,0.0,0.0,0.0,0.0,0.0,0.0,0.0,0.0,0.0,0.0,0.0,0.0,0.0,0.0,0.0,0.0,0.0,0.0,0.0,0.0,0.0,0.0,0.0,0.0,0.0,0.0,0.0,0.0,0.0,0.0,0.0,0.0,0.0,0.0,0.0,0.0,0.0,0.0,0.0,0.0,0.0,0.0,0.0,0.0,0.0,0.0,0.0,0.0,0.0,0.0,0.0,0.0,0.0,-3.7989,-3.8901,-4.0038,-4.1363,-4.1782,-4.1846,-4.1525,-4.1343,-4.0573,-3.903,0.0,0.0,0.0,0.0,0.0,0.0,0.0,0.0,0.0,0.0,0.0,0.0,0.0,0.0,0.0,0.0,0.0,0.0,0.0,0.0,0.0,0.0,0.0,0.0,0.0,0.0,0.0,0.0,0.0,0.0,0.0,0.0,0.0,0.0,0.0,0.0,0.0,0.0,0.0,0.0,0.0,0.0,0.0,0.0,0.0,0.0,0.0,0.0,0.0,0.0,0.0,0.0,0.0,0.0,0.0,0.0,0.0,0.0,0.0,0.0,0.0,0.0,0.0,0.0,0.0,0.0,0.0,0.0,0.0,0.0,0.0,0.0,0.0,0.0,0.0,0.0,0.0,0.0,0.0,0.0,0.0,0.0,0.0,0.0,0.0,0.0,0.0,0.0,0.0,0.0,0.0,0.0,0.0,0.0,0.0,0.0,0.0,0.0,0.0,0.0,0.0,0.0,-3.6985,-3.8918,-4.066,-4.1394,-4.1464,-4.1464,-4.1464,-4.0059,-3.9182,0.0,0.0,0.0,0.0,0.0,0.0,0.0,0.0,0.0,0.0,0.0,0.0,0.0,0.0,0.0,0.0,0.0,0.0,0.0,0.0,0.0,0.0,0.0,0.0,0.0,0.0,0.0,0.0,0.0,0.0,0.0,0.0,0.0,0.0,0.0,0.0,0.0,0.0,0.0,0.0,0.0,0.0,0.0,0.0,0.0,0.0,0.0,0.0,0.0,0.0,0.0,0.0,0.0,0.0,0.0,0.0,0.0,0.0,0.0,0.0,0.0,0.0,0.0,0.0,0.0,0.0,0.0,0.0,0.0,0.0,0.0,0.0,0.0,0.0,0.0,0.0,0.0,0.0,0.0,0.0,0.0,0.0,0.0,0.0,0.0,0.0,0.0,0.0,0.0,0.0,0.0,0.0,0.0,0.0,0.0,0.0,0.0,0.0,0.0,0.0,0.0,0.0,0.0,-3.6118,-3.7883,-3.92,-3.9421,-3.974,-3.9611,-3.8738,-3.8563,-3.7823,-3.6256,0.0,0.0,0.0,0.0,0.0,0.0,0.0,0.0,0.0,0.0,0.0,0.0,0.0,0.0,0.0,0.0,0.0,0.0,0.0,0.0,0.0,0.0,0.0,0.0,0.0,0.0,0.0,0.0,0.0,0.0,0.0,0.0,0.0,0.0,0.0,0.0,0.0,0.0,0.0,0.0,0.0,0.0,0.0,0.0,0.0,0.0,0.0,0.0,0.0,0.0,0.0,0.0,0.0,0.0,0.0,0.0,0.0,0.0,0.0,0.0,0.0,0.0,0.0,0.0,0.0,0.0,0.0,0.0,0.0,0.0,0.0,0.0,0.0,0.0,0.0,0.0,0.0,0.0,0.0,0.0,0.0,0.0,0.0,0.0,0.0,0.0,0.0,0.0,0.0,0.0,0.0,0.0,0.0,0.0,0.0,0.0,0.0,0.0,0.0,0.0,0.0,0.0,-3.4784,-3.6302,-3.7485,-3.781,-3.8285,-3.8287,-3.7567,-3.7503,-3.6791,-3.5162,0.0,0.0,0.0,0.0,0.0,0.0,0.0,0.0,0.0,0.0,0.0,0.0,0.0,0.0,0.0,0.0,0.0,0.0,0.0,0.0,0.0,0.0,0.0,0.0,0.0,0.0,0.0,0.0,0.0,0.0,0.0,0.0,0.0,0.0,0.0,0.0,0.0,0.0,0.0,0.0,0.0,0.0,0.0,0.0,0.0,0.0,0.0,0.0,0.0,0.0,0.0,0.0,0.0,0.0,0.0,0.0,0.0,0.0,0.0,0.0,0.0,0.0,0.0,0.0,0.0,0.0,0.0,0.0,0.0,0.0,0.0,0.0,0.0,0.0,0.0,0.0,0.0,0.0,0.0,0.0,0.0,0.0,0.0,0.0,0.0,0.0,0.0,0.0,0.0,0.0,0.0,0.0,0.0,0.0,0.0,0.0,0.0,0.0,0.0,0.0,0.0,0.0,-3.3191,-3.448,-3.5666,-3.6387,-3.6911,-3.7186,-3.7119,-3.6486,-3.5785,-3.5085,0.0,0.0,0.0,0.0,0.0,0.0,0.0,0.0,0.0,0.0,0.0,0.0,0.0,0.0,0.0,0.0,0.0,0.0,0.0,0.0,0.0,0.0,0.0,0.0,0.0,0.0,0.0,0.0,0.0,0.0,0.0,0.0,0.0,0.0,0.0,0.0,0.0,0.0,0.0,0.0,0.0,0.0,0.0,0.0,0.0,0.0,0.0,0.0,0.0,0.0,0.0,0.0,0.0,0.0,0.0,0.0,0.0,0.0,0.0,0.0,-3.8253,-3.8348,0.0,0.0,0.0,0.0,0.0,0.0,0.0,0.0,0.0,0.0,0.0,0.0,0.0,0.0,0.0,0.0,0.0,0.0,0.0,0.0,0.0,0.0,0.0,0.0,0.0,0.0,0.0,0.0,0.0,0.0,0.0,0.0,0.0,0.0,0.0,0.0,0.0,0.0,0.0,0.0,-3.2433,-3.3686,-3.4611,-3.4798,-3.4921,-3.4749,-3.4162,-3.397,-3.3611,-3.2971,-3.2289,0.0,0.0,0.0,0.0,0.0,0.0,0.0,0.0,0.0,0.0,0.0,0.0,0.0,0.0,0.0,0.0,0.0,0.0,0.0,0.0,0.0,0.0,0.0,0.0,0.0,0.0,0.0,0.0,0.0,0.0,0.0,0.0,0.0,0.0,0.0,0.0,0.0,0.0,0.0,0.0,0.0,0.0,0.0,0.0,0.0,0.0,0.0,0.0,0.0,0.0,0.0,0.0,0.0,0.0,0.0,0.0,0.0,0.0,0.0,-3.7304,-3.7561,0.0,0.0,0.0,0.0,0.0,0.0,0.0,0.0,0.0,0.0,0.0,0.0,0.0,0.0,0.0,0.0,0.0,0.0,0.0,0.0,0.0,0.0,0.0,0.0,0.0,0.0,0.0,0.0,0.0,0.0,0.0,0.0,0.0,0.0,0.0,0.0,0.0,0.0,0.0,0.0,-3.1306,-3.2529,-3.3388,-3.3388,-3.3617,-3.362,-3.3214,-3.3182,-3.2924,-3.2244,-3.1557,0.0,0.0,0.0,0.0,0.0,0.0,0.0,0.0,0.0,0.0,0.0,0.0,0.0,0.0,0.0,0.0,0.0,0.0,0.0,0.0,0.0,0.0,0.0,0.0,0.0,0.0,0.0,0.0,0.0,0.0,0.0,0.0,0.0,0.0,0.0,0.0,0.0,0.0,0.0,0.0,0.0,0.0,0.0,0.0,0.0,0.0,0.0,0.0,0.0,0.0,0.0,0.0,0.0,-3.6082,-3.6371,-3.6264,-3.6675,-3.6634,-3.6234,-3.6271,-3.6547,-3.7053,-3.7717,0.0,0.0,0.0,0.0,0.0,0.0,0.0,0.0,0.0,0.0,0.0,0.0,0.0,0.0,0.0,0.0,0.0,0.0,0.0,0.0,0.0,0.0,-3.097,-3.008,-3.0205,-3.0633,-3.0837,0.0,0.0,0.0,0.0,0.0,0.0,0.0,0.0,0.0,0.0,0.0,-3.0182,-3.1308,-3.2176,-3.2176,-3.2571,-3.2826,-3.2826,-3.2826,-3.2549,-3.195,-3.1316,-3.0685,0.0,0.0,0.0,0.0,0.0,0.0,0.0,0.0,0.0,0.0,0.0,0.0,0.0,0.0,0.0,0.0,0.0,0.0,0.0,0.0,0.0,0.0,0.0,0.0,0.0,0.0,0.0,0.0,0.0,0.0,0.0,0.0,-3.7605,-3.6872,0.0,0.0,0.0,0.0,0.0,0.0,0.0,0.0,0.0,0.0,0.0,0.0,0.0,-3.5151,-3.4915,-3.6027,-3.6632,-3.6673,-3.7318,-3.7648,-3.7607,-3.6947,-3.7018,-3.7593,-3.6848,0.0,-3.5478,-3.6147,0.0,0.0,0.0,0.0,0.0,0.0,0.0,0.0,0.0,0.0,0.0,0.0,0.0,0.0,0.0,0.0,0.0,0.0,0.0,0.0,0.0,0.0,-3.1371,-3.0643,-3.0439,-3.0439,-3.048,-2.9863,-2.8915,-2.764,-2.8054,-2.8539,0.0,0.0,0.0,0.0,0.0,0.0,-2.9337,-3.0447,-3.1278,-3.1278,-3.1322,-3.138,-3.138,-3.138,-3.135,-3.1232,-3.0607,-3.037,-3.0688,-2.9056,0.0,0.0,0.0,0.0,0.0,0.0,0.0,0.0,0.0,0.0,0.0,0.0,0.0,0.0,0.0,0.0,0.0,0.0,0.0,0.0,0.0,0.0,0.0,0.0,0.0,0.0,0.0,0.0,0.0,-3.6761,-3.6979,-3.5433,-3.5967,-3.5925,0.0,0.0,0.0,0.0,0.0,0.0,0.0,0.0,0.0,-3.4591,-3.5117,-3.5153,-3.4616,-3.5457,-3.5948,-3.6118,-3.641,-3.6742,-3.7056,-3.6677,-3.6722,-3.7056,-3.6677,-3.5888,-3.4949,-3.5751,-3.5498,-3.4573,0.0,0.0,0.0,0.0,-3.3445,-3.3094,-3.2725,-3.2332,-3.191,-3.1721,0.0,0.0,0.0,0.0,0.0,0.0,0.0,-3.0644,-3.0433,-3.061,-3.0681,-3.0259,-3.0103,-2.9884,-2.9269,-2.8756,-2.8309,-2.7953,-2.8201,-2.8372,-2.8153,-2.784,0.0,0.0,0.0,-2.9218,-2.8168,-2.9476,-3.0478,-3.0478,-3.0478,-3.0643,-3.1043,-3.1117,-3.1117,-3.1117,-3.0483,-3.0185,-3.0382,-2.892,-2.8055,0.0,0.0,0.0,0.0,0.0,0.0,0.0,0.0,0.0,0.0,0.0,0.0,0.0,0.0,0.0,0.0,0.0,0.0,0.0,0.0,0.0,0.0,0.0,0.0,0.0,0.0,0.0,0.0,-3.5764,-3.6116,-3.4045,-3.4699,-3.4848,0.0,0.0,0.0,0.0,0.0,0.0,-3.3947,-3.3986,-3.3973,-3.3935,-3.4535,-3.4502,-3.3736,-3.4338,-3.4715,-3.4922,-3.4922,-3.5143,-3.5571,-3.5571,-3.5545,-3.541,-3.541,-3.4888,-3.42,-3.5305,-3.5129,-3.4145,-3.4145,-3.3916,-3.3592,-3.3332,-3.2948,-3.2612,-3.2809,-3.2501,-3.199,-3.1991,-3.1441,-3.0686,-3.0288,0.0,0.0,0.0,0.0,-3.0147,-3.0025,-3.0047,-3.0028,-2.9782,-2.9628,-2.934,-2.8499,-2.8097,-2.7952,-2.802,-2.8093,-2.8053,-2.773,-2.7333,0.0,-2.6933,-2.7993,-2.838,-2.7216,-2.8563,-2.9628,-2.9628,-2.9628,-2.9827,-3.0403,-3.0433,-3.0433,-3.0433,-2.9969,-2.9695,-2.9695,-2.8593,-2.7764,-2.7299,0.0,0.0,0.0,0.0,0.0,0.0,0.0,0.0,0.0,0.0,0.0,0.0,0.0,0.0,0.0,0.0,0.0,0.0,0.0,0.0,0.0,0.0,0.0,0.0,0.0,0.0,0.0,0.0,0.0,-3.2931,-3.3014,0.0,0.0,0.0,0.0,-2.9703,-3.0148,-3.0568,-3.0882,-3.0905,-3.1147,-3.1654,-3.2231,-3.2557,-3.2471,-3.3016,-3.3281,-3.3315,-3.3315,-3.3327,-3.335,-3.335,-3.3134,-3.2721,-3.2721,-3.2653,-3.2635,-3.4143,-3.4371,-3.3726,-3.3726,-3.3949,-3.4139,-3.3167,-3.2803,-3.2673,-3.1796,-3.1486,-3.1344,-3.084,-2.9933,-2.9025,-2.9,-2.8622,0.0,0.0,-2.8988,-2.9038,-2.9348,-2.9639,-2.9741,-2.9496,-2.9187,-2.8913,-2.8863,-2.8059,-2.7178,-2.6703,-2.6604,-2.6583,-2.6595,0.0,-2.6465,-2.5957,-2.6908,-2.7464,-2.6809,-2.7822,-2.8588,-2.8588,-2.8588,-2.8588,-2.862,-2.862,-2.862,-2.862,-2.8593,-2.8579,-2.8579,-2.7971,-2.7596,-2.7569,-2.6457,0.0,0.0,0.0,0.0,0.0,0.0,0.0,0.0,0.0,0.0,0.0,0.0,0.0,0.0,0.0,0.0,0.0,0.0,0.0,0.0,0.0,0.0,0.0,0.0,0.0,0.0,0.0,0.0,-3.1523,-3.2347,0.0,-3.1425,-3.1032,-3.0709,-3.0308,-3.0754,-3.1258,-3.1785,-3.1581,-3.1749,-3.2309,-3.2354,-3.2345,-3.2345,-3.2514,-3.2605,-3.2605,-3.2605,-3.2605,-3.2593,-3.2338,-3.2139,-3.1958,-3.1678,-3.143,-3.1263,-3.183,-3.2576,-3.3292,-3.3292,-3.3183,-3.29,-3.2534,-3.2411,-3.2383,-3.2038,-3.1913,-3.1693,-3.0212,-2.9123,-2.8267,-2.7715,-2.7308,-2.7112,-2.7298,-2.7345,-2.7392,-2.7498,-2.7585,-2.7584,-2.7165,-2.6983,-2.6745,-2.6077,-2.5644,-2.5343,-2.5361,-2.5955,-2.6496,-2.6505,-2.6194,-2.589,-2.5766,-2.6153,-2.6327,-2.6039,-2.679,-2.7476,-2.7828,-2.7855,-2.8019,-2.846,-2.8492,-2.8492,-2.8492,-2.8492,-2.8492,-2.8492,-2.7897,-2.7358,-2.7019,-2.6121,-2.5517,0.0,0.0,0.0,0.0,0.0,0.0,0.0,0.0,0.0,0.0,0.0,0.0,0.0,0.0,0.0,0.0,0.0,0.0,0.0,0.0,0.0,0.0,0.0,0.0,0.0,-3.119,-3.1769,-3.081,-3.1663,-3.1915,-3.0938,-3.0725,-3.0449,-2.9974,-3.039,-3.0844,-3.1284,-3.1072,-3.1164,-3.1542,-3.1338,-3.1235,-3.1235,-3.1235,-3.1159,-3.0997,-3.0997,-3.0972,-3.081,-3.0545,-3.0318,-3.0144,-2.9878,-2.9683,-2.9691,-2.9691,-3.0525,-3.1877,-3.2064,-3.1833,-3.1417,-3.1473,-3.1473,-3.135,-3.1125,-3.0901,-3.0513,-2.9095,-2.8128,-2.7452,-2.6883,-2.6607,-2.6524,-2.6524,-2.6524,-2.6472,-2.6389,-2.6431,-2.6349,-2.5844,-2.5598,-2.5301,-2.4471,-2.4157,-2.4092,-2.4261,-2.5146,-2.597,-2.624,-2.5988,-2.5665,-2.5524,-2.5531,-2.5479,-2.5211,-2.575,-2.6301,-2.666,-2.6845,-2.7183,-2.767,-2.7551,-2.7465,-2.7517,-2.7313,-2.7188,-2.7188,-2.6746,-2.6315,-2.591,-2.5232,-2.4759,-2.4418,0.0,0.0,0.0,0.0,0.0,0.0,0.0,0.0,0.0,0.0,0.0,0.0,0.0,0.0,0.0,0.0,0.0,0.0,0.0,0.0,0.0,0.0,0.0,-2.9092,-3.0993,-3.1894,-3.0819,-3.0796,-3.0574,-2.9794,-2.9225,-2.8777,-2.858,-2.89,-2.9079,-2.9079,-2.9079,-2.9079,-2.9079,-2.9079,-2.9079,-2.9079,-2.9059,-2.8848,-2.8488,-2.8468,-2.8247,-2.7885,-2.7875,-2.7633,-2.717,-2.715,-2.7403,-2.7819,-2.7819,-2.8437,-2.9361,-2.9932,-3.0011,-2.9806,-3.0068,-3.0,-2.967,-2.9026,-2.8398,-2.7827,-2.7399,-2.6875,-2.6431,-2.6389,-2.64,-2.6389,-2.6389,-2.6389,-2.6348,-2.6077,-2.6202,-2.6203,-2.5551,-2.5131,-2.4759,-2.4294,-2.3776,-2.3415,-2.3441,-2.4084,-2.4862,-2.5676,-2.584,-2.5656,-2.5129,-2.5019,0.0,-2.432,-2.4709,-2.5028,-2.5065,-2.5532,-2.5968,-2.6166,-2.5645,-2.5377,-2.5565,-2.4958,-2.4586,-2.4598,-2.4611,-2.4533,-2.4325,-2.3772,-2.3489,-2.3489,0.0,0.0,0.0,0.0,0.0,0.0,0.0,0.0,0.0,0.0,0.0,0.0,0.0,0.0,0.0,0.0,0.0,0.0,0.0,0.0,0.0,-2.8679,-2.8947,-2.9171,-2.9759,-3.0064,-2.9935,-3.0203,-3.0336,-3.0296,-2.9528,-2.9144,-2.9413,-2.9252,-2.9079,-2.9079,-2.893,-2.8834,-2.8834,-2.8611,-2.8504,-2.8504,-2.8252,-2.8035,-2.7917,-2.7602,-2.7334,-2.7257,-2.6951,-2.6744,-2.6616,-2.6251,-2.6307,-2.66,-2.66,-2.6733,-2.7152,-2.8958,-2.9544,-2.9544,-2.959,-2.9376,-2.9049,-2.8869,-2.8217,-2.7337,-2.6615,-2.585,-2.5136,-2.4531,-2.4198,-2.4016,-2.4016,-2.4016,-2.4016,-2.392,-2.3783,-2.3469,-2.2991,-2.2544,-2.2127,-2.1698,-2.1504,-2.1565,-2.2161,-2.2462,-2.2947,-2.3975,-2.4156,-2.411,-2.3961,-2.3317,-2.2972,-2.3248,-2.3203,-2.3454,-2.4309,-2.4949,-2.548,-2.5955,-2.5475,-2.52,-2.5222,-2.4694,-2.4571,-2.4932,-2.4957,-2.4957,-2.4878,-2.3433,-2.2975,0.0,0.0,0.0,0.0,0.0,0.0,0.0,0.0,0.0,0.0,0.0,0.0,0.0,0.0,0.0,0.0,0.0,0.0,0.0,0.0,0.0,0.0,-2.8833,-2.9102,-2.9132,-2.929,-2.9476,-2.9576,-2.9672,-2.9722,-2.9733,-2.924,-2.8987,-2.9182,-2.891,-2.8761,-2.8761,-2.8611,-2.8514,-2.8514,-2.8398,-2.8203,-2.8027,-2.7836,-2.7542,-2.7129,-2.6875,-2.666,-2.6475,-2.6221,-2.6113,-2.6103,-2.5801,-2.5781,-2.5917,-2.5917,-2.5917,-2.61,0.0,0.0,0.0,0.0,-2.7626,-2.7337,-2.6886,-2.6306,-2.573,-2.502,-2.4479,-2.4006,-2.3484,-2.3232,-2.3091,-2.3091,-2.3091,-2.3091,-2.3091,-2.2779,-2.2402,-2.1992,-2.1553,-2.1073,-2.0703,-2.0605,-2.076,-2.1203,-2.1318,0.0,-2.2161,-2.2824,-2.3239,-2.3028,-2.2304,-2.185,-2.2043,-2.1891,-2.2033,-2.2696,-2.3444,-2.4107,-2.4472,-2.4276,0.0,0.0,0.0,-2.3522,-2.3565,-2.319,0.0,0.0,0.0,0.0,0.0,0.0,0.0,0.0,-2.2934,-2.2391,0.0,0.0,0.0,0.0,0.0,0.0,0.0,0.0,0.0,0.0,0.0,0.0,0.0,0.0,0.0,0.0,-2.9091,-2.8909,-2.9071,-2.9343,-2.9501,-2.9501,-2.9248,-2.895,-2.8743,-2.8704,-2.8587,-2.8359,-2.832,-2.8291,-2.8291,-2.8291,0.0,0.0,0.0,-2.8047,-2.7718,-2.762,-2.72,-2.6387,-2.6338,-2.6113,-2.5693,-2.5693,-2.5693,-2.5693,-2.5693,-2.5693,-2.5693,-2.5693,-2.5693,-2.5732,-2.6207,-2.6255,-2.6003,-2.5615,-2.5426,-2.5221,-2.4163,0.0,0.0,-2.3218,-2.3091,-2.3091,-2.3091,-2.3091,-2.3091,-2.3091,-2.3091,-2.3091,-2.3091,-2.275,-2.2344,-2.1973,-2.1514,-2.1045,-2.0693,-2.0605,-2.0605,-2.0605,-2.0605,-2.0605,-2.0605,-2.1752,-2.2496,-2.2074,-2.152,-2.1034,-2.0691,-2.0661,-2.0739,-2.0849,-2.1682,0.0,-2.2626,-2.2718,-2.2526,-2.2056,-2.2262,-2.21,-2.1516,-2.074,-2.0599,-2.1117,-2.0803,-2.1125,-2.2124,-2.1999,-2.1984,-2.2046,-2.1789,-2.1525,0.0,0.0,0.0,0.0,0.0,0.0,0.0,0.0,0.0,0.0,0.0,0.0,0.0,0.0,0.0,-2.8375,-2.8503,-2.8691,-2.9071,-2.8983,-2.8887,-2.8887,-2.8834,-2.8803,-2.8878,-2.855,-2.8491,-2.8769,-2.8486,-2.8291,-2.8291,-2.8291,-2.8291,-2.8291,-2.7969,-2.7796,-2.7718,-2.6982,-2.6553,-2.6387,-2.6035,0.0,-2.5693,-2.5693,-2.5693,-2.5693,-2.5693,-2.5693,-2.5693,-2.5693,-2.5693,-2.5684,-2.583,-2.583,-2.5732,-2.533,-2.4938,-2.4519,-2.3965,-2.3555,-2.3208,-2.312,-2.3091,-2.3091,-2.3091,-2.3091,0.0,-2.3091,-2.3091,-2.3091,-2.3091,-2.2578,-2.1992,-2.1904,-2.1279,-2.0713,-2.0625,-2.0605,-2.0605,-2.0605,-2.0605,-2.0605,-2.0605,-2.0531,-2.0479,-2.0399,-1.9673,-1.9134,-1.9054,-1.9237,-1.9695,-2.0474,-2.1234,-2.1999,-2.286,-2.2559,-2.2273,-2.2166,-2.2203,-2.2173,-2.2033,-2.1892,-2.1841,-2.1964,-2.0903,-2.0773,-2.1563,-2.075,-2.065,-2.1267,-2.1815,-2.1532,0.0,0.0,0.0,0.0,0.0,0.0,0.0,0.0,0.0,0.0,0.0,-2.7055,-2.7328,0.0,-2.7965,-2.8387,-2.8523,-2.8628,-2.8688,-2.8558,-2.8568,-2.8684,-2.8568,-2.854,-2.8584,-2.8418,-2.8379,-2.8584,-2.8408,-2.8291,-2.8291,-2.8096,-2.7978,-2.7978,-2.7559,-2.7236,-2.7031,-2.6602,-2.6279,-2.6064,-2.5791,-2.5693,-2.5693,-2.5693,-2.5693,-2.5693,-2.5693,-2.5693,-2.5693,-2.5693,-2.5693,-2.5693,-2.5693,-2.5693,-2.5635,-2.5234,-2.4785,-2.4355,-2.3935,-2.3506,-2.3091,-2.3091,-2.3091,-2.3091,-2.3091,-2.3091,-2.3091,-2.3091,-2.3091,-2.3091,-2.3091,-2.2519,-2.1885,-2.1885,-2.1251,-2.0605,-2.0605,-2.0605,-2.0605,-2.0605,-2.0605,-2.0605,-2.0605,-2.0205,-1.9844,-1.9639,-1.9017,-1.8529,-1.8315,-1.8432,-1.8781,-1.948,-2.0053,-2.0669,-2.14,-2.1207,-2.1272,-2.1756,-2.1138,-2.0886,-2.1235,-2.0922,-2.0845,-2.1036,-2.0417,-2.039,-2.1009,-2.0506,-2.0425,-2.0795,-2.12,-2.105,0.0,0.0,0.0,0.0,0.0,0.0,0.0,-2.6444,-2.6837,-2.6837,-2.7272,-2.7747,-2.8227,-2.833,-2.8378,-2.8671,-2.8674,-2.8461,-2.8014,-2.796,-2.796,-2.795,-2.8121,-2.8291,-2.8291,-2.8291,-2.8291,-2.8291,-2.8291,-2.8291,-2.8291,-2.7891,-2.7718,-2.7718,-2.6953,-2.6415,-2.6077,-2.5781,-2.5462,-2.5079,-2.5284,-2.5382,-2.5382,-2.5586,-2.5693,-2.5693,-2.5693,-2.5693,-2.5684,-2.5644,-2.5557,-2.5547,-2.5469,-2.543,-2.5391,-2.5078,-2.4668,-2.4228,-2.3809,-2.3437,-2.3091,-2.3091,-2.3091,-2.3091,-2.3091,-2.3091,-2.3091,-2.3091,-2.3091,-2.3091,-2.3091,-2.2519,-2.1885,-2.1885,-2.1251,-2.0605,-2.0605,-2.0605,-2.0605,-2.0605,-2.0605,-2.0605,-2.0605,-2.0205,-1.9775,-1.9346,-1.8916,-1.8451,-1.8057,-1.8086,-1.8301,-1.8676,-1.915,-1.958,-2.0,-2.0039,-2.0369,-2.1182,-2.0171,-1.9779,-2.0343,-1.9852,-1.9697,-2.0029,-2.0039,-2.0215,-2.0605,-2.0566,-2.0527,-2.0527,-2.0489,-2.0527,-2.6098,-2.5487,-2.5487,-2.5355,-2.5913,-2.648,0.0,-2.7158,-2.7769,-2.7769,-2.8274,-2.8717,-2.8819,-2.8697,-2.8671,-2.8664,-2.8514,-2.796,-2.6853,-2.669,-2.6291,-2.5278,-2.7006,-2.8291,-2.8291,-2.8291,-2.8291,-2.8291,-2.8291,-2.8291,-2.8291,-2.7891,-2.7718,-2.7718,-2.5988,-2.5039,-2.5002,-2.3592,-2.2937,-2.2894,-2.384,-2.4295,-2.4295,-2.5274,-2.5693,-2.5693,-2.5693,-2.5693,-2.5654,-2.5303,-2.5184,-2.5155,-2.4717,-2.457,-2.456,-2.4512,-2.4228,-2.3799,-2.3315,-2.314,-2.3091,-2.3091,-2.3091,-2.3091,-2.3091,-2.3091,-2.3091,-2.3091,-2.3091,-2.3091,-2.3091,-2.2519,-2.1885,-2.1885,-2.1251,-2.0605,-2.0605,-2.0605,-2.0605,-2.0605,-2.0605,-2.0605,-2.0605,-2.0205,-1.9775,-1.9346,-1.8916,-1.8451,-1.8057,-1.8295,-1.8695,-1.917,-1.959,-2.0019,-2.0488,-2.0537,-2.0585,-2.0689,-2.0536,-2.0497,-2.0574,-2.0497,-2.0478,-2.0537,-2.0537,-2.0556,-2.0605,-2.042,-2.0342,-2.0342,-2.0098,-2.0216,-2.5969,-2.543,-2.5375,-2.6216,-2.6739,-2.7154,-2.7634,-2.8266,-2.8721,-2.8721,-2.9044,-2.9236,-2.908,-2.882,-2.8631,-2.8514,-2.8344,-2.7906,-2.669,-2.6527,-2.6073,-2.4837,-2.5617,-2.6227,-2.6227,-2.6227,-2.6227,-2.6227,-2.6227,-2.6127,-2.5954,-2.5563,-2.5236,-2.5051,-2.3996,-2.345,-2.345,-2.2821,-2.2484,-2.2492,-2.2935,-2.3194,-2.3185,-2.3651,-2.4156,-2.4796,-2.5199,-2.5352,-2.5312,-2.4873,-2.4687,-2.4668,-2.4492,-2.4268,-2.4082,-2.4326,-2.415,-2.3769,-2.3584,-2.3305,-2.3091,-2.3091,-2.3091,-2.3091,-2.3091,-2.3091,-2.3091,-2.3091,-2.3091,-2.3091,-2.3091,-2.2519,-2.1885,-2.1885,-2.1251,-2.0605,-2.0605,-2.0605,-2.0605,-2.0605,-2.0605,-2.0605,-2.0605,-2.0449,-2.0146,-1.9717,-1.9036,-1.8627,-1.874,-1.8646,-1.8861,-1.958,-2.0039,-2.04,-2.0586,-2.0605,-2.0605,-2.0605,-2.0605,-2.0605,-2.0605,-2.0605,-2.0605,-2.0605,-2.0498,-2.042,-2.042,-2.0177,-2.0069,-2.0059,-1.9942,-2.0153,-2.5982,-2.574,-2.5865,-2.7029,-2.7589,-2.7997,-2.8659,-2.9166,-2.9497,-2.9497,-2.9496,-2.9396,-2.9132,-2.8824,-2.8514,-2.8344,-2.8291,-2.7736,-2.6236,-2.6018,-2.5461,-2.3902,-2.3645,-2.3628,-2.3727,-2.4339,-2.4727,-2.4727,-2.4727,-2.4564,-2.4296,-2.3864,-2.3434,-2.31,-2.2427,-2.2038,-2.2038,-2.1785,-2.1633,-2.1633,-2.1937,-2.2038,-2.208,-2.2581,-2.3183,-2.3954,-2.4631,-2.4893,-2.4853,-2.4424,-2.4248,-2.4228,-2.4111,-2.3877,-2.3643,-2.3955,-2.3877,-2.3613,-2.3613,-2.3364,-2.3091,-2.3091,-2.3091,-2.3091,-2.3091,-2.3091,-2.3091,-2.3091,-2.3091,-2.3062,-2.2955,-2.2432,-2.1855,-2.1738,-2.1123,-2.0605,-2.0605,-2.0605,-2.0605,-2.0605,-2.0605,-2.0605,-2.0605,-2.0605,-2.0498,-2.0137,-1.9463,-1.9026,-1.9268,-1.9111,-1.9231,-2.0019,-2.0419,-2.0605,-2.0605,-2.0605,-2.0605,-2.0605,-2.0605,-2.0605,-2.0605,-2.0605,-2.0566,-2.0527,-2.0381,-2.0264,-2.0186,-1.9951,-1.9833,-1.9833,-1.9867,-2.0083,-2.5771,-2.6196,-2.6687,-2.7185,-2.8255,-2.9249,-2.928,-2.9642,-2.9973,-2.9973,-2.9501,-2.9132,-2.9079,-2.8664,-2.8291,-2.8291,-2.8291,-2.7457,-2.5113,-2.4727,-2.3902,-2.1596,-2.1038,-2.0972,-2.1288,-2.3351,-2.4727,-2.4727,-2.4727,-2.4564,-2.4296,-2.3864,-2.3434,-2.31,-2.172,-2.0936,-2.0936,-1.9931,-1.9376,-1.9428,-2.0431,-2.0936,-2.1022,-2.2707,-2.3471,-2.354,-2.4143,-2.4434,-2.4404,-2.3984,-2.3809,-2.3769,-2.3305,-2.312,-2.312,-2.313,-2.312,-2.311,-2.311,-2.311,-2.3091,-2.3091,-2.3091,-2.3091,-2.3091,-2.3091,-2.3091,-2.3091,-2.3091,-2.3003,-2.2637,-2.2207,-2.1777,-2.1317,-2.0898,-2.0605,-2.0605,-2.0605,-2.0605,-2.0605,-2.0605,-2.0605,-2.0605,-2.0605,-2.0595,-2.0586,-2.0166,-1.9727,-1.9336,-1.9629,-2.0049,-2.0537,-2.0595,-2.0605,-2.0605,-2.0605,-2.0605,-2.0605,-2.0605,-2.0605,-2.0605,-2.0605,-2.0489,-2.0303,-2.0303,-2.0186,-1.9902,-1.9715,-1.9597,-1.9606,-1.9813,-1.9916,-2.6262,-2.6718,-2.733,-2.8349,-2.897,-2.9384,-2.9694,-2.9642,-2.9539,-2.9539,-2.8829,-2.8257,-2.8257,-2.8041,-2.7881,-2.7881,-2.8115,-2.7457,-2.5058,-2.4727,-2.3847,-2.1489,-2.1115,-2.1086,-2.1196,-2.1726,-2.2122,-2.2346,-2.2152,-2.193,-2.1589,-2.1248,-2.0907,-2.061,-2.0088,-1.9828,-1.9828,-1.948,-1.9279,-1.9279,-1.968,-1.9715,-1.9539,-2.0857,-2.1301,-2.1195,-2.2471,-2.2998,-2.3016,-2.3258,-2.3359,-2.3305,-2.3149,-2.3091,-2.3091,-2.3091,-2.3091,-2.3091,-2.3091,-2.3091,-2.3091,-2.3091,-2.3091,-2.3091,-2.3091,-2.3091,-2.3091,-2.3091,-2.3091,-2.3062,-2.2916,-2.2412,-2.1846,-2.1699,-2.1103,-2.0605,-2.0605,-2.0605,-2.0605,-2.0605,-2.0605,-2.0605,-2.0605,-2.0605,-2.0605,-2.0605,-2.0478,-2.0185,-1.9756,-2.0078,-2.0439,-2.0586,-2.0605,-2.0605,-2.0605,-2.0605,-2.0605,-2.0605,-2.0605,-2.0605,-2.0605,-2.0459,-2.0381,-2.0303,-1.999,-1.9794,-1.9715,-1.9508,-1.939,-1.9399,-1.9732,-2.0031,-2.6687,-2.732,-2.7997,-2.9042,-2.9435,-2.9591,-2.9715,-2.9518,-2.9259,-2.9094,-2.8472,-2.7915,-2.7814,-2.7698,-2.7636,-2.7699,-2.7891,-2.7286,-2.5041,-2.4727,-2.3847,-2.1489,-2.1108,-2.1079,-2.1196,-2.0808,-2.0684,-2.1013,-2.0837,-2.053,-2.0091,-1.9872,-1.9669,-1.9286,-1.9279,-1.9279,-1.9279,-1.9279,-1.922,-1.9103,-1.9103,-1.8935,-1.8656,-1.9558,-1.9909,-1.9766,-2.0995,-2.1744,-2.2098,-2.2482,-2.2775,-2.3091,-2.3091,-2.3091,-2.3091,-2.3091,-2.3091,-2.3091,-2.3091,-2.3091,-2.3091,-2.3091,-2.3091,-2.3091,-2.3091,-2.3091,-2.3091,-2.3091,-2.3091,-2.3062,-2.2916,-2.251,-2.207,-2.1924,-2.1328,-2.0801,-2.0801,-2.0713,-2.0605,-2.0605,-2.0605,-2.0605,-2.0605,-2.0605,-2.0605,-2.0605,-2.0605,-2.0507,-2.0185,-2.0391,-2.0605,-2.0605,-2.0605,-2.0605,-2.0605,-2.0605,-2.0605,-2.0605,-2.0605,-2.0605,-2.0605,-2.042,-2.0264,-2.0147,-1.9794,-1.9557,-1.9478,-1.9341,-1.9301,-1.932,-1.9879,-2.0232,-2.7102,-2.7955,-2.8763,-2.9228,-2.9653,-2.9849,-2.9404,-2.927,-2.9104,-2.8669,-2.8326,-2.8015,-2.7794,-2.7521,-2.7436,-2.7611,-2.7718,-2.7011,-2.5006,-2.4727,-2.3847,-2.1489,-2.094,-2.0867,-2.1181,-2.0633,-2.0329,-2.0676,-2.0684,-2.0406,-1.9852,-1.9801,-1.9647,-1.9286,-1.9279,-1.9279,-1.9279,-1.9257,-1.9089,-1.8767,-1.8767,-1.8591,-1.8319,-1.8952,-1.9209,-1.9225,-1.9845,-2.0692,-2.1561,-2.165,-2.2236,-2.3047,-2.3091,-2.3091,-2.3091,-2.3091,-2.3091,-2.3091,-2.3091,-2.3091,-2.3091,-2.3091,-2.3091,-2.3091,-2.3091,-2.3091,-2.3091,-2.3091,-2.3091,-2.3003,-2.2646,-2.2529,-2.2412,-2.2012,-2.1582,-2.122,-2.12,-2.0898,-2.0635,-2.0605,-2.0605,-2.0605,-2.0605,-2.0605,-2.0605,-2.0605,-2.0605,-2.0605,-2.0605,-2.0605,-2.0605,-2.0605,-2.0605,-2.0605,-2.0605,-2.0605,-2.0605,-2.0605,-2.0605,-2.0605,-2.0605,-2.0381,-2.0147,-1.9902,-1.9676,-1.9478,-1.9301,-1.9301,-1.9311,-1.9356,-2.0145,-2.053,-2.7603,-2.8431,-2.9239,-2.9704,-2.9653,-2.9446,-2.9332,-2.8773,-2.8245,-2.8121,-2.7452,-2.6936,-2.6828,-2.6973,-2.7092,-2.7158,-2.7715,-2.7334,-2.5041,-2.4727,-2.3847,-2.1489,-2.1137,-2.1115,-2.1203,-2.0837,-2.0475,-2.0321,-2.0142,-1.9938,-1.9823,-1.958,-1.9412,-1.9279,-1.9279,-1.9279,-1.9279,-1.9038,-1.8752,-1.843,-1.843,-1.8255,-1.7933,-1.8086,-1.8058,-1.7858,-1.8781,-1.9285,-1.965,-2.1105,-2.1828,-2.2148,-2.2828,-2.3091,-2.3091,-2.3091,-2.3091,-2.3091,-2.3091,-2.3091,-2.3091,-2.3091,-2.3091,-2.3091,-2.3091,-2.3091,-2.3091,-2.3091,-2.3091,-2.3071,-2.2964,-2.2701,-2.248,-2.2373,-2.2031,-2.1631,-2.1268,-2.1103,-2.0967,-2.0674,-2.0605,-2.0605,-2.0605,-2.0605,-2.0605,-2.0605,-2.0605,-2.0605,-2.0605,-2.0605,-2.0605,-2.0605,-2.0605,-2.0605,-2.0605,-2.0605,-2.0605,-2.0605,-2.0605,-2.0605,-2.0605,-2.0216,-1.9981,-1.9902,-1.9548,-1.9341,-1.9301,-1.9301,-1.9467,-1.9747,-2.0241,-2.0677,-2.8349,-2.9063,-2.9622,-2.9673,-2.9497,-2.9145,-2.8545,-2.8152,-2.781,-2.7417,-2.6959,-2.6651,-2.6496,-2.6715,-2.6939,-2.6982,-2.7734,-2.7457,-2.5058,-2.4872,-2.4036,-2.1504,-2.1211,-2.1211,-2.1211,-2.0786,-2.038,-2.019,-1.9938,-1.9757,-1.961,-1.9374,-1.9279,-1.9279,-1.9279,-1.9206,-1.9067,-1.8738,-1.8408,-1.8086,-1.8086,-1.7918,-1.7604,-1.7604,-1.7501,-1.7326,-1.7924,-1.865,-1.9513,-2.0602,-2.1552,-2.2378,-2.2916,-2.3091,-2.3091,-2.3091,-2.3091,-2.3091,-2.3091,-2.3091,-2.3091,-2.3091,-2.3091,-2.3091,-2.3091,-2.3091,-2.3091,-2.3091,-2.3091,-2.3091,-2.3091,-2.2916,-2.274,-2.274,-2.2471,-2.209,-2.1846,-2.165,-2.1445,-2.1191,-2.0986,-2.0859,-2.0859,-2.0732,-2.0605,-2.0605,-2.0605,-2.0605,-2.0605,-2.0605,-2.0605,-2.0605,-2.0605,-2.0605,-2.0605,-2.0605,-2.0605,-2.0605,-2.0605,-2.0566,-2.0459,-2.0098,-1.9863,-1.9754,-1.9469,-1.9393,-1.9577,-1.9577,-1.9787,-2.0159,-2.0594,-2.0897,-2.9073,-2.9601,-2.9808,-2.9404,-2.9208,-2.8794,-2.7589,-2.751,-2.7521,-2.6781,-2.6664,-2.6686,-2.6534,-2.6663,-2.6804,-2.6994,-2.7685,-2.7444,-2.5278,-2.5306,-2.4509,-2.174,-2.1432,-2.136,-2.1145,-2.0596,-2.0168,-2.0179,-1.9879,-1.9632,-1.9346,-1.9279,-1.9257,-1.9265,-1.9213,-1.903,-1.8664,-1.8379,-1.8072,-1.775,-1.775,-1.7604,-1.7279,-1.7279,-1.7279,-1.7333,-1.7419,-1.8465,-2.0051,-2.0277,-2.1373,-2.2916,-2.3047,-2.3091,-2.3091,-2.3091,-2.3091,-2.3091,-2.3091,-2.3091,-2.3091,-2.3091,-2.3091,-2.3091,-2.3091,-2.3091,-2.3091,-2.3091,-2.3091,-2.3091,-2.3091,-2.3091,-2.3091,-2.3091,-2.2818,-2.2578,-2.2519,-2.2178,-2.1885,-2.1885,-2.1582,-2.1278,-2.1278,-2.0996,-2.0781,-2.0781,-2.0732,-2.0693,-2.0693,-2.0644,-2.0605,-2.0605,-2.0605,-2.0605,-2.0605,-2.0605,-2.0605,-2.0605,-2.0566,-2.0489,-2.0342,-2.0029,-1.9784,-1.9636,-1.9485,-1.9567,-1.9893,-1.9939,-2.0177,-2.0604,-2.0943,-2.1135,-2.9156,-2.9363,-2.9404,-2.9321,-2.8731,-2.8007,-2.7444,-2.7071,-2.6755,-2.6646,-2.6268,-2.6111,-2.6426,-2.6477,-2.6573,-2.6943,-2.7441,-2.7405,-2.6363,-2.6254,-2.5383,-2.299,-2.2708,-2.2204,-2.0886,-2.0402,-2.0128,-1.9864,-1.9595,-1.9338,-1.9279,-1.9279,-1.9155,-1.8884,-1.8877,-1.8584,-1.7991,-1.7933,-1.7735,-1.7366,-1.7366,-1.7337,-1.7279,-1.7279,-1.7279,-1.7326,-1.8195,-1.8742,-1.9155,-2.0782,-2.165,-2.2015,-2.2775,-2.3091,-2.3091,-2.3091,-2.3091,-2.3091,-2.3091,-2.3091,-2.3091,-2.3091,-2.3091,-2.3091,-2.3091,-2.3091,-2.3091,-2.3091,-2.3091,-2.3091,-2.3091,-2.3091,-2.3091,-2.3091,-2.3042,-2.2886,-2.2588,-2.2178,-2.1885,-2.1885,-2.1826,-2.1777,-2.1777,-2.1709,-2.166,-2.166,-2.1348,-2.1123,-2.1123,-2.0791,-2.0605,-2.0605,-2.0605,-2.0605,-2.0605,-2.0605,-2.0605,-2.0605,-2.045,-2.042,-2.0527,-1.999,-1.9715,-1.9872,-1.9811,-1.982,-1.9893,-2.0214,-2.0622,-2.1007,-2.1071,-2.1291,-2.9177,-2.9301,-2.9249,-2.9001,-2.8431,-2.7686,-2.6755,-2.6604,-2.648,-2.5968,-2.5926,-2.5973,-2.5869,-2.6267,-2.6487,-2.6094,-2.6934,-2.727,-2.5991,-2.6198,-2.5634,-2.3255,-2.2871,-2.2204,-2.0847,-2.0274,-1.993,-1.983,-1.9514,-1.9279,-1.9279,-1.9279,-1.9125,-1.8803,-1.8621,-1.8299,-1.7816,-1.7647,-1.7479,-1.7279,-1.7279,-1.7279,-1.7279,-1.7279,-1.7279,-1.7372,-1.838,-1.9063,-1.965,-2.1105,-2.1971,-2.2457,-2.2916,-2.3091,-2.3091,-2.3091,-2.3091,-2.3091,-2.3091,-2.3091,-2.3091,-2.3091,-2.3091,-2.3091,-2.3091,-2.3091,-2.3091,-2.3091,-2.3091,-2.3091,-2.3091,-2.3091,-2.3091,-2.3091,-2.3091,-2.3042,-2.2838,-2.2676,-2.2539,-2.2539,-2.2363,-2.2207,-2.2207,-2.2031,-2.1885,-2.1885,-2.1709,-2.1572,-2.1572,-2.1387,-2.1162,-2.0937,-2.0908,-2.0908,-2.0908,-2.1123,-2.1152,-2.0928,-2.1053,-2.1129,-2.106,-2.0666,-2.0433,-2.0433,-2.0301,-2.0338,-2.0497,-2.0732,-2.1034,-2.1385,-2.1385,-2.1504,-2.9177,-2.9228,-2.9073,-2.87,-2.8193,-2.7448,-2.6175,-2.621,-2.6196,-2.5354,-2.5577,-2.5757,-2.5275,-2.5834,-2.6131,-2.5341,-2.6357,-2.6898,-2.5862,-2.6315,-2.5991,-2.3966,-2.321,-2.2473,-2.1435,-2.0416,-1.9892,-2.0023,-1.9509,-1.9169,-1.9169,-1.9169,-1.8994,-1.8591,-1.8328,-1.8043,-1.7713,-1.741,-1.7419,-1.7598,-1.7598,-1.7598,-1.7598,-1.7598,-1.7598,-1.7692,-1.865,-1.965,-2.0593,-2.1596,-2.2413,-2.3091,-2.3091,-2.3091,-2.3091,-2.3091,-2.3091,-2.3091,-2.3091,-2.3091,-2.3091,-2.3091,-2.3091,-2.3091,-2.3091,-2.3091,-2.3091,-2.3091,-2.3091,-2.3091,-2.3091,-2.3091,-2.3091,-2.3091,-2.3091,-2.3091,-2.3091,-2.3091,-2.3091,-2.3091,-2.2828,-2.2646,-2.2646,-2.2373,-2.2158,-2.2158,-2.208,-2.2021,-2.2021,-2.1943,-2.1787,-2.1492,-2.1385,-2.1337,-2.1337,-2.1689,-2.1738,-2.1356,-2.1648,-2.1741,-2.1598,-2.1349,-2.114,-2.1024,-2.0815,-2.0881,-2.1194,-2.12,-2.141,-2.1696,-2.1696,-2.1696,-2.9177,-2.9001,-2.8659,-2.8628,-2.7955,-2.7112,-2.6138,-2.5906,-2.5802,-2.5326,-2.5064,-2.496,-2.5154,-2.5095,-2.5125,-2.5557,-2.5762,-2.6259,-2.7338,-2.7561,-2.7261,-2.6318,-2.4954,-2.3926,-2.3381,-2.1161,-2.0106,-2.0759,-1.9564,-1.8833,-1.8833,-1.8833,-1.8547,-1.7925,-1.7874,-1.7706,-1.733,-1.7301,-1.7738,-1.865,-1.865,-1.865,-1.865,-1.865,-1.865,-1.8696,-1.965,-2.0647,-2.165,-2.2599,-2.3003,-2.3091,-2.3091,-2.3091,-2.3091,-2.3091,-2.3091,-2.3091,-2.3091,-2.3091,-2.3091,-2.3091,-2.3091,-2.3091,-2.3091,-2.3091,-2.3091,-2.3091,-2.3091,-2.3091,-2.3091,-2.3091,-2.3091,-2.3091,-2.3091,-2.3091,-2.3091,-2.3091,-2.3091,-2.3091,-2.3062,-2.3033,-2.3033,-2.3003,-2.2984,-2.2984,-2.2705,-2.2451,-2.2451,-2.2119,-2.2012,-2.2353,-2.2051,-2.1826,-2.1826,-2.1865,-2.1865,-2.1826,-2.1671,-2.1639,-2.1834,-2.1441,-2.1265,-2.1464,-2.1424,-2.1425,-2.1453,-2.1581,-2.165,-2.1696,-2.1696,-2.1696,-2.8913,-2.8752,-2.8618,-2.8618,-2.7935,-2.7061,-2.6092,-2.5875,-2.5678,-2.4921,-2.4905,-2.4927,-2.4669,-2.4816,-2.4969,-2.4772,-2.5094,-2.5605,-2.6396,-2.6738,-2.6727,-2.6203,-2.5223,-2.4332,-2.3649,-2.2297,-2.1452,-2.1495,-2.044,-1.9591,-1.9133,-1.8726,-1.8284,-1.783,-1.8384,-1.8541,-1.8203,-1.8195,-1.8696,-1.965,-1.9063,-1.9109,-1.965,-1.965,-1.965,-1.9695,-2.0692,-2.1329,-2.1784,-2.2731,-2.3091,-2.3091,-2.3091,-2.3091,-2.3091,-2.3091,-2.3091,-2.3091,-2.3091,-2.3091,-2.3091,-2.3091,-2.3091,-2.3091,-2.3091,-2.3091,-2.3091,-2.3091,-2.3091,-2.3091,-2.3091,-2.3091,-2.3091,-2.3091,-2.3091,-2.3091,-2.3091,-2.3091,-2.3091,-2.3091,-2.3091,-2.3091,-2.3091,-2.3091,-2.3091,-2.3091,-2.2955,-2.2847,-2.2847,-2.2701,-2.2662,-2.2828,-2.251,-2.2266,-2.2266,-2.249,-2.2529,-2.2275,-2.2395,-2.2499,-2.2604,-2.2337,-2.2198,-2.2284,-2.21,-2.2055,-2.2055,-2.2092,-2.2132,-2.2132,-2.2008,-2.1919,-2.87,-2.8514,-2.8411,-2.8411,-2.7728,-2.6895,-2.6061,-2.5782,-2.5513,-2.4828,-2.4962,-2.5042,-2.4515,-2.4854,-2.4977,-2.4386,-2.4775,-2.5273,-2.585,-2.6084,-2.6155,-2.6083,-2.5173,-2.4495,-2.4246,-2.3364,-2.2565,-2.1961,-2.1039,-2.0265,-1.9761,-1.9169,-1.8611,-1.8098,-1.8793,-1.9182,-1.9201,-1.9193,-1.9695,-2.0647,-1.9968,-2.0014,-2.0638,-2.0638,-2.0638,-2.0683,-2.1373,-2.1872,-2.2148,-2.2828,-2.3091,-2.3091,-2.3091,-2.3091,-2.3091,-2.3091,-2.3091,-2.3091,-2.3091,-2.3091,-2.3091,-2.3091,-2.3091,-2.3091,-2.3091,-2.3091,-2.3091,-2.3091,-2.3091,-2.3091,-2.3091,-2.3091,-2.3091,-2.3091,-2.3091,-2.3091,-2.3091,-2.3091,-2.3091,-2.3091,-2.3091,-2.3091,-2.3091,-2.3091,-2.3091,-2.3091,-2.3091,-2.3091,-2.3091,-2.3091,-2.3091,-2.3091,-2.2838,-2.2705,-2.2705,-2.2925,-2.2974,-2.2715,-2.2925,-2.3091,-2.3091,-2.2969,-2.2882,-2.2882,-2.2662,-2.253,-2.253,-2.2441,-2.2397,-2.2397,-2.2264,-2.2185,-2.8606,-2.8276,-2.7935,-2.7935,-2.7241,-2.6501,-2.6034,-2.5544,-2.5189,-2.5179,-2.5179,-2.5145,-2.4924,-2.5067,-2.5133,-2.4838,-2.4972,-2.5381,-2.626,-2.6016,-2.5859,-2.6348,-2.502,-2.451,-2.5596,-2.435,-2.3066,-2.1985,-2.1147,-2.0666,-2.0712,-2.0354,-1.9749,-1.8796,-1.8796,-1.9247,-2.0187,-2.0187,-2.0692,-2.1695,-2.165,-2.165,-2.1695,-2.1695,-2.1695,-2.1695,-2.1695,-2.2236,-2.3101,-2.3091,-2.3091,-2.3091,-2.3091,-2.3091,-2.3091,-2.3091,-2.3091,-2.3091,-2.3091,-2.3091,-2.3091,-2.3091,-2.3091,-2.3091,-2.3091,-2.3091,-2.3091,-2.3091,-2.3091,-2.3091,-2.3091,-2.3091,-2.3091,-2.3091,-2.3091,-2.3091,-2.3091,-2.3091,-2.3091,-2.3091,-2.3091,-2.3091,-2.3091,-2.3091,-2.3091,-2.3091,-2.3091,-2.3091,-2.3091,-2.3091,-2.3091,-2.3091,-2.3091,-2.3091,-2.3091,-2.3091,-2.3091,-2.3091,-2.3091,-2.3091,-2.3091,-2.3091,-2.3091,-2.3091,-2.2882,-2.2803,-2.2803,-2.253,-2.2397,-2.2397,-2.2397,-2.2397,-2.7941,-2.78,-2.7924,-2.7924,-2.7479,-2.6884,-2.6096,-2.602,-2.5968,-2.5313,-2.5471,-2.554,-2.5197,-2.4903,-2.4771,-2.4971,-2.4763,-2.4932,-2.582,-2.5771,-2.5742,-2.5879,-2.5508,-2.5323,-2.5684,-2.5035,-2.4307,-2.3683,-2.2491,-2.1661,-2.1392,-2.0618,-2.0051,-1.9786,-2.0421,-2.0917,-2.1239,-2.1239,-2.1695,-2.2643,-2.2015,-2.2059,-2.2643,-2.2643,-2.2643,-2.2643,-2.2643,-2.2828,-2.3091,-2.3091,-2.3091,-2.3091,-2.3091,-2.3091,-2.3091,-2.3091,-2.3091,-2.3091,-2.3091,-2.3091,-2.3091,-2.3091,-2.3091,-2.3091,-2.3091,-2.3091,-2.3091,-2.3091,-2.3091,-2.3091,-2.3091,-2.3091,-2.3091,-2.3091,-2.3091,-2.3091,-2.3091,-2.3091,-2.3091,-2.3091,-2.3091,-2.3091,-2.3091,-2.3091,-2.3091,-2.3091,-2.3091,-2.3091,-2.3091,-2.3091,-2.3091,-2.3091,-2.3091,-2.3091,-2.3091,-2.3091,-2.3091,-2.3091,-2.3091,-2.3091,-2.3091,-2.3091,-2.3091,-2.3091,-2.3057,-2.3013,-2.3013,-2.2925,-2.2794,-2.2662,-2.2662,-2.2574,-2.7636,-2.7334,-2.7458,-2.7634,-2.7334,-2.6895,-2.6314,-2.6227,-2.6206,-2.5813,-2.5947,-2.5999,-2.5564,-2.5202,-2.4942,-2.4882,-2.4776,-2.4853,-2.541,-2.5488,-2.5488,-2.5488,-2.5342,-2.5323,-2.5654,-2.5332,-2.493,-2.4453,-2.3458,-2.2668,-2.2264,-2.1641,-2.1275,-2.1275,-2.1552,-2.1872,-2.2236,-2.2236,-2.2511,-2.3091,-2.2511,-2.2545,-2.3091,-2.3091,-2.3091,-2.3091,-2.3091,-2.3091,0.0,-2.3091,-2.3091,-2.3091,-2.3091,-2.3091,-2.3091,-2.3091,-2.3091,-2.3091,-2.3091,-2.3091,-2.3091,-2.3091,-2.3091,-2.3091,-2.3091,-2.3091,-2.3091,-2.3091,-2.3091,-2.3091,-2.3091,-2.3091,-2.3091,-2.3091,-2.3091,-2.3091,-2.3091,-2.3091,-2.3091,-2.3091,-2.3091,-2.3091,-2.3091,-2.3091,-2.3091,-2.3091,-2.3091,-2.3091,-2.3091,-2.3091,-2.3091,-2.3091,-2.3091,-2.3091,-2.3091,-2.3091,-2.3091,-2.3091,-2.3091,-2.3091,-2.3091,-2.3091,-2.3091,-2.3091,-2.3091,-2.3091,-2.3091,-2.3091,-2.3057,-2.2925,-2.2925,-2.2838,0.0,-2.7014,-2.677,-2.7195,-2.6978,-2.6656,-2.6625,-2.6304,0.0,-2.6532,-2.6615,-2.647,-2.6013,-2.5793,-2.546,-2.4645,-2.4805,-2.5067,-2.5067,-2.5067,-2.5086,-2.5155,-2.4727,-2.4795,-2.5606,-2.5332,-2.493,-2.4453,-2.4033,-2.3603,-2.312,-2.3091,-2.3091,-2.3091,-2.2236,-2.2236,-2.3091,-2.3091,-2.3091,-2.3091,-2.3091,-2.3091,-2.3091,-2.3091,-2.3091,-2.3091,-2.3091,-2.3091,-2.3091,-2.3091,-2.3091,-2.3091,-2.3091,-2.3091,-2.3091,-2.3091,-2.3091,-2.3091,-2.3091,-2.3091,-2.3091,-2.3091,-2.3091,-2.3091,-2.3091,-2.3091,-2.3091,-2.3091,-2.3091,-2.3091,-2.3091,-2.3091,-2.3091,-2.3091,-2.3091,-2.3091,-2.3091,-2.3091,-2.3091,-2.3091,-2.3091,-2.3091,-2.3091,-2.3091,-2.3091,-2.3091,-2.3091,-2.3091,-2.3091,-2.3091,-2.3091,-2.3091,-2.3091,-2.3091,-2.3091,-2.3091,-2.3091,-2.3091,-2.3091,-2.3091,-2.3091,-2.3091,-2.3091,-2.3091,-2.3091,-2.3091,-2.3091,-2.3091,-2.3091,-2.3091,-2.3091,-2.3091,-2.807,0.0,-2.7164,-2.7278,-2.7226,-2.705,0.0,-2.6801,-2.6915,-2.6667,-2.6615,-2.647,-2.6013,-2.5474,-2.499,-2.4589,-2.4695,-2.4812,-2.457,-2.457,-2.4824,-2.5498,-2.5185,-2.5137,-2.5635,-2.5332,-2.493,-2.4453,-2.4033,-2.3603,-2.312,-2.3091,-2.3091,-2.3091,-2.2872,-2.2872,-2.3091,-2.3091,-2.3091,-2.3091,-2.3091,-2.3091,-2.3091,-2.3091,-2.3091,-2.3091,-2.3091,-2.3091,-2.3091,-2.3091,-2.3091,-2.3091,-2.3091,-2.3091,-2.3091,-2.3091,-2.3091,-2.3091,-2.3091,-2.3091,-2.3091,-2.3091,-2.3091,-2.3091,-2.3091,-2.3091,-2.3091,-2.3091,-2.3091,-2.3091,-2.3091,-2.3091,-2.3091,-2.3091,-2.3091,-2.3091,-2.3091,-2.3091,-2.3091,-2.3091,-2.3091,-2.3091,-2.3091,-2.3091,-2.3091,-2.3091,-2.3091,-2.3091,-2.3091,-2.3091,-2.3091,-2.3091,-2.3091,-2.3091,-2.3091,-2.3091,-2.3091,-2.3091,-2.3091,-2.3091,-2.3091,-2.3091,-2.3091,-2.3091,-2.3091,-2.3091,-2.3091,-2.3091,-2.3091,-2.3091,-2.3091,-2.3091,-2.9094,-2.8042,-2.704,-2.7258,-2.7309,-2.7247,-2.6988,-2.6957,-2.6915,-2.6667,-2.6449,-2.6159,-2.5668,-2.5122,-2.4587,-2.4243,-2.4262,-2.4415,-2.4705,-2.4717,-2.4971,-2.5606,-2.5342,-2.5244,-2.5645,-2.5518,-2.5107,-2.4463,-2.4209,-2.3809,-2.313,-2.3091,-2.3091,-2.3091,-2.3091,-2.3091,-2.3091,-2.3091,-2.3091,-2.3091,-2.3091,-2.3091,-2.3091,-2.3091,-2.3091,-2.3091,-2.3091,-2.3091,-2.3091,-2.3091,-2.3091,-2.3091,-2.3091,-2.3091,-2.3091,-2.3091,-2.3091,-2.3091,-2.3091,-2.3091,-2.3091,-2.3091,-2.3091,-2.3091,-2.3091,-2.3091,-2.3091,-2.3091,-2.3091,-2.3091,-2.3091,-2.3091,-2.3091,-2.3091,-2.3091,-2.3091,-2.3091,-2.3091,-2.3091,-2.3091,-2.3091,-2.3091,-2.3091,-2.3091,-2.3091,-2.3091,-2.3091,-2.3091,-2.3091,-2.3091,-2.3091,-2.3091,-2.3091,-2.3091,-2.3091,-2.3091,-2.3091,-2.3091,-2.3091,-2.3091,-2.3091,-2.3091,-2.3091,-2.3091,-2.3091,-2.3091,-2.3091,-2.334,-2.3437,-2.3437,-2.3588,-2.3686,-3.0215,-2.8499,-2.6812,-2.7206,-2.7309,-2.7309,-2.7309,-2.6946,-2.6615,-2.6615,-2.6241,-2.5751,-2.5272,-2.4886,-2.4484,-2.4015,-2.3969,-2.4287,-2.5194,-2.5204,-2.5234,-2.5635,-2.54,-2.5322,-2.5654,-2.5693,-2.5323,-2.4482,-2.4414,-2.3997,-2.314,-2.3091,-2.3091,-2.3091,-2.3091,-2.3091,-2.3091,-2.3091,-2.3091,-2.3091,-2.3091,-2.3091,-2.3091,-2.3091,-2.3091,-2.3091,-2.3091,-2.3091,-2.3091,-2.3091,-2.3091,-2.3091,-2.3091,-2.3091,-2.3091,-2.3091,-2.3091,-2.3091,-2.3091,-2.3091,-2.3091,-2.3091,-2.3091,-2.3091,-2.3091,-2.3091,-2.3091,-2.3091,-2.3091,-2.3091,-2.3091,-2.3091,-2.3091,-2.3091,-2.3091,-2.3091,-2.3091,-2.3091,-2.3091,-2.3091,-2.3091,-2.3091,-2.3091,-2.3091,-2.3091,-2.3091,-2.3091,-2.3091,-2.3091,-2.3149,-2.3169,-2.3101,-2.3149,-2.3169,-2.3101,-2.3091,-2.312,-2.3188,-2.313,-2.3091,-2.3091,-2.3091,-2.312,-2.3198,-2.3198,-2.3227,-2.3296,-2.3701,-2.3887,-2.3896,-2.4248,-2.4414,-3.0249,-2.8705,-2.7216,-2.7289,-2.7309,-2.7309,-2.7309,-2.6946,-2.6615,-2.6615,-2.6241,-2.5695,-2.505,-2.5186,-2.5184,-2.4695,-2.4775,-2.5176,-2.6064,-2.5585,-2.5234,-2.5635,-2.5625,-2.5615,-2.5684,-2.5693,-2.5323,-2.4482,-2.4414,-2.3997,-2.314,-2.3091,-2.3091,-2.3091,-2.3091,-2.3091,-2.3091,-2.3091,-2.3091,-2.3091,-2.3091,-2.3091,-2.3091,-2.3091,-2.3091,-2.3091,-2.3091,-2.3091,-2.3091,-2.3091,-2.3091,-2.3091,-2.3091,-2.3091,-2.3091,-2.3091,-2.3091,-2.3091,-2.3091,-2.3091,-2.3091,-2.3091,-2.3091,-2.3091,-2.3091,-2.3091,-2.3091,-2.3091,-2.3091,-2.3091,-2.3091,-2.3091,-2.3091,-2.3091,-2.3091,-2.3091,-2.3091,-2.3091,-2.3091,-2.3091,-2.3091,-2.3091,-2.3091,-2.3091,-2.3091,-2.3091,-2.3091,-2.3091,-2.3091,-2.3457,-2.3545,-2.314,-2.3467,-2.3545,-2.312,-2.3091,-2.3257,-2.3662,-2.3305,-2.3091,-2.3091,-2.3091,-2.331,-2.3682,-2.3691,-2.3867,-2.4219,-2.4287,-2.4316,-2.4316,-2.4385,-2.4414,-2.9846,-2.8412,-2.6988,-2.7247,-2.7123,-2.6936,-2.6936,-2.6341,-2.5844,-2.5844,-2.5482,-2.5083,-2.4859,-2.5092,-2.5273,-2.5295,-2.5594,-2.584,-2.6016,-2.5889,-2.5771,-2.5693,-2.5693,-2.5693,-2.5693,-2.5693,-2.5323,-2.4482,-2.4414,-2.3997,-2.314,-2.3091,-2.3091,-2.3091,-2.3091,-2.3091,-2.3091,-2.3091,-2.3091,-2.3091,-2.3091,-2.3091,-2.3091,-2.3091,-2.3091,-2.3091,-2.3091,-2.3091,-2.3091,-2.3091,-2.3091,-2.3091,-2.3091,-2.3091,-2.3091,-2.3091,-2.3091,-2.3091,-2.3091,-2.3091,-2.3091,-2.3091,-2.3091,-2.3091,-2.3091,-2.3091,-2.3091,-2.3091,-2.3091,-2.3091,-2.3091,-2.3091,-2.3091,-2.3091,-2.3091,-2.3091,-2.3091,-2.3091,-2.3091,-2.3091,-2.3091,-2.3091,-2.3091,-2.3091,-2.3091,-2.3091,-2.334,-2.3486,-2.3486,-2.3867,-2.4053,-2.3848,-2.4014,-2.4053,-2.3803,-2.3783,-2.3818,-2.3789,-2.3818,-2.3783,-2.3783,-2.3783,-2.3881,-2.4121,-2.4121,-2.4228,-2.4414,-2.4648,-2.4766,-2.4775,-2.5019,-2.5079,-2.9489,-2.7995,-2.6563,-2.7029,-2.6957,-2.6832,-2.6993,-2.6351,-2.5695,-2.5708,-2.5276,-2.49,-2.4925,-2.5167,-2.5563,-2.5957,-2.6318,-2.6416,-2.6084,-2.6152,-2.6113,-2.5732,-2.5693,-2.5693,-2.5693,-2.5693,-2.5323,-2.4482,-2.4414,-2.3997,-2.314,-2.3091,-2.3091,-2.3091,-2.3091,-2.3091,-2.3091,-2.3091,-2.3091,-2.3091,-2.3091,-2.3091,-2.3091,-2.3091,-2.3091,-2.3091,-2.3091,-2.3091,-2.3091,-2.3091,-2.3091,-2.3091,-2.3091,-2.3091,-2.3091,-2.3091,-2.3091,-2.3091,-2.3091,-2.3091,-2.3091,-2.3091,-2.3091,-2.3091,-2.3091,-2.3091,-2.3091,-2.3091,-2.3091,-2.3091,-2.3091,-2.3091,-2.3091,-2.3091,-2.3091,-2.3091,-2.3091,-2.3091,-2.3091,-2.3091,-2.3091,-2.312,-2.3227,-2.3247,-2.3286,-2.3383,-2.3721,-2.3935,-2.3935,-2.4307,-2.4531,-2.4424,-2.4502,-2.4531,-2.4424,-2.4512,-2.4434,-2.4111,-2.4297,-2.4414,-2.4414,-2.4414,-2.4463,-2.456,-2.457,-2.4619,-2.4727,-2.5068,-2.5225,-2.5234,-2.5576,-2.5693,-2.9489,-2.7743,-2.6041,-2.6542,-2.6957,-2.7475,-2.8276,-2.7769,-2.7183,-2.7327,-2.6656,-2.595,-2.5431,-2.5868,-2.6446,-2.6846,-2.6953,-2.6963,-2.6924,-2.622,-2.5723,-2.5693,-2.5693,-2.5693,-2.5693,-2.5693,-2.5323,-2.4482,-2.4414,-2.3997,-2.314,-2.3091,-2.3091,-2.3091,-2.3091,-2.3091,-2.3091,-2.3091,-2.3091,-2.3091,-2.3091,-2.3091,-2.3091,-2.3091,-2.3091,-2.3091,-2.3091,-2.3091,-2.3091,-2.3091,-2.3091,-2.3091,-2.3091,-2.3091,-2.3091,-2.3091,-2.3091,-2.3091,-2.3091,-2.3091,-2.3091,-2.3091,-2.3091,-2.3091,-2.3091,-2.3091,-2.3091,-2.3091,-2.3091,-2.3091,-2.3091,-2.3091,-2.3091,-2.3091,-2.3091,-2.3091,-2.3091,-2.3091,-2.3091,-2.3091,-2.3091,-2.3227,-2.3672,-2.374,-2.3877,-2.4268,-2.4355,-2.4375,-2.4375,-2.4746,-2.4863,-2.4463,-2.4775,-2.4853,-2.4453,-2.4785,-2.5057,-2.5028,-2.4619,-2.4414,-2.4414,-2.4414,-2.4609,-2.5057,-2.5067,-2.5225,-2.5596,-2.5625,-2.5635,-2.5645,-2.5674,-2.5693,-2.9092,-2.7283,-2.5658,-2.6428,-2.675,-2.704,-2.7624,-2.7197,-2.6689,-2.6995,-2.6658,-2.6305,-2.621,-2.6084,-2.6211,-2.6904,-2.7012,-2.6924,-2.666,-2.6348,-2.6045,-2.5713,-2.5693,-2.5693,-2.5693,-2.5693,-2.5323,-2.4482,-2.4414,-2.3997,-2.314,-2.3091,-2.3091,-2.3091,-2.3091,-2.3091,-2.3091,-2.3091,-2.3091,-2.3091,-2.3091,-2.3091,-2.3091,-2.3091,-2.3091,-2.3091,-2.3091,-2.3091,-2.3091,-2.3091,-2.3091,-2.3091,-2.3091,-2.3091,-2.3091,-2.3091,-2.3091,-2.3091,-2.3091,-2.3091,-2.3091,-2.3091,-2.3091,-2.3091,-2.3091,-2.3091,-2.3091,-2.3091,-2.3286,-2.3545,-2.3545,-2.334,-2.3169,-2.3486,-2.3286,-2.3091,-2.3091,-2.3305,-2.3545,-2.3545,-2.375,-2.3939,-2.415,-2.418,-2.4228,-2.4394,-2.4648,-2.4824,-2.4824,-2.5205,-2.542,-2.5206,-2.5391,-2.542,-2.5206,-2.5391,-2.5488,-2.5488,-2.5332,-2.5187,-2.5187,-2.5187,-2.5265,-2.5478,-2.5488,-2.5566,-2.5693,-2.5693,-2.5693,-2.5693,-2.5693,-2.5693,-2.8849,-2.7009,-2.5409,-2.6165,-2.6397,-2.6548,-2.7293,-2.7153,-2.6975,-2.7447,-2.7051,-2.6576,-2.6409,-2.6143,-2.6133,-2.6719,-2.6816,-2.6719,-2.6426,-2.6269,-2.6074,-2.5723,-2.5693,-2.5693,-2.5693,-2.5693,-2.5323,-2.4482,-2.4414,-2.3997,-2.314,-2.3091,-2.3091,-2.3091,-2.3091,-2.3091,-2.3091,-2.3091,-2.3091,-2.3091,-2.3091,-2.3091,-2.3091,-2.3091,-2.3091,-2.3091,-2.3091,-2.3091,-2.3091,-2.3091,-2.3091,-2.3091,-2.3091,-2.3091,-2.3091,-2.3091,-2.3091,-2.3091,-2.3091,-2.3091,-2.3091,-2.3091,-2.3091,-2.3091,-2.3091,-2.3091,-2.3091,-2.3091,-2.3305,-2.3613,-2.375,-2.3574,-2.3418,-2.3721,-2.3457,-2.313,-2.3276,-2.3574,-2.3828,-2.3965,-2.4219,-2.4463,-2.46,-2.4619,-2.4668,-2.4814,-2.5088,-2.5283,-2.5283,-2.5547,-2.5693,-2.5693,-2.5693,-2.5693,-2.5693,-2.5693,-2.5693,-2.5693,-2.5693,-2.5693,-2.5693,-2.5693,-2.5693,-2.5693,-2.5693,-2.5693,-2.5693,-2.5693,-2.5693,-2.5693,-2.5693,-2.5693,-2.891,-2.6976,-2.5337,-2.5771,-2.593,-2.6248,-2.7614,-2.8049,-2.8391,-2.8951,-2.7972,-2.6758,-2.5859,-2.6103,-2.6387,-2.6387,-2.6387,-2.6387,-2.6387,-2.6006,-2.5693,-2.5693,-2.5693,-2.5693,-2.5693,-2.5693,-2.5323,-2.4482,-2.4414,-2.3997,-2.314,-2.3091,-2.3091,-2.3091,-2.3091,-2.3091,-2.3091,-2.3091,-2.3091,-2.3091,-2.3091,-2.3091,-2.3091,-2.3091,-2.3091,-2.3091,-2.3091,-2.3091,-2.3091,-2.3091,-2.3091,-2.3091,-2.3091,-2.3091,-2.3091,-2.3091,-2.3091,-2.3091,-2.3091,-2.3091,-2.3091,-2.3091,-2.3091,-2.3091,-2.3091,-2.3091,-2.3091,-2.3091,-2.3101,-2.3198,-2.3682,-2.3789,-2.3789,-2.3789,-2.3457,-2.3218,-2.3691,-2.3789,-2.3916,-2.4336,-2.4424,-2.456,-2.5047,-2.5125,-2.5225,-2.5625,-2.5693,-2.5693,-2.5693,-2.5693,-2.5693,-2.5693,-2.5693,-2.5693,-2.5693,-2.5693,-2.5693,-2.5693,-2.5693,-2.5693,-2.5693,-2.5693,-2.5693,-2.5693,-2.5693,-2.5693,-2.5693,-2.5693,-2.5693,-2.5693,-2.5693,-2.5693,-2.8614,-2.7186,-2.6085,-2.5941,-2.6418,-2.7175,-2.8173,-2.8275,-2.834,-2.876,-2.7878,-2.6943,-2.668,-2.625,-2.5937,-2.5937,-2.5937,-2.5937,-2.5937,-2.5771,-2.5693,-2.5693,-2.5693,-2.5693,-2.5693,-2.5693,-2.5323,-2.4482,-2.4414,-2.3997,-2.314,-2.3091,-2.3091,-2.3091,-2.3091,-2.3091,-2.3091,-2.3091,-2.3091,-2.3091,-2.3091,-2.3091,-2.3091,-2.3091,-2.3091,-2.3091,-2.3091,-2.3091,-2.3091,-2.3091,-2.3091,-2.3091,-2.3091,-2.3091,-2.3091,-2.3091,-2.3091,-2.3091,-2.3091,-2.3091,-2.3091,-2.3091,-2.3091,-2.3091,-2.3091,-2.3091,-2.3091,-2.3091,-2.3359,-2.3623,-2.375,-2.3789,-2.3789,-2.3789,-2.3457,-2.313,-2.3257,-2.3809,-2.4268,-2.4394,-2.4922,-2.5343,-2.5518,-2.5537,-2.5538,-2.5664,-2.5693,-2.5693,-2.5693,-2.5693,-2.5693,-2.5693,-2.5693,-2.5693,-2.5693,-2.5693,-2.5693,-2.5693,-2.5693,-2.5693,-2.5693,-2.5693,-2.5693,-2.5693,-2.5693,-2.5693,-2.5693,-2.5693,-2.5693,-2.5693,-2.5693,-2.5693,-2.8827,-2.7411,-2.6264,-2.6166,-2.6615,-2.722,-2.8033,-2.837,-2.855,-2.8565,-2.7721,-2.7012,-2.7012,-2.6318,-2.5693,-2.5693,-2.5693,-2.5693,-2.5693,-2.5693,-2.5693,-2.5693,-2.5693,-2.5693,-2.5693,-2.5693,-2.5323,-2.4482,-2.4414,-2.3997,-2.314,-2.3091,-2.3091,-2.3091,-2.3091,-2.3091,-2.3091,-2.3188,-2.3276,-2.3276,-2.3276,-2.3276,-2.3276,-2.3144,-2.3091,-2.3091,-2.3091,-2.3091,-2.3091,-2.3091,-2.3091,-2.3091,-2.3091,-2.3091,-2.3091,-2.3091,-2.3091,-2.3091,-2.3091,-2.3091,-2.3091,-2.3091,-2.3091,-2.3091,-2.3091,-2.3091,-2.3091,-2.3091,-2.3286,-2.3525,-2.3525,-2.3525,-2.3574,-2.375,-2.3457,-2.3188,-2.353,-2.4053,-2.4521,-2.4873,-2.5323,-2.5693,-2.5693,-2.5693,-2.5693,-2.5693,-2.5693,-2.5693,-2.5693,-2.5693,-2.5693,-2.5693,-2.5693,-2.5693,-2.5693,-2.5693,-2.5693,-2.5693,-2.5693,-2.5693,-2.5693,-2.5693,-2.5693,-2.5693,-2.5693,-2.5693,-2.5693,-2.5693,-2.5693,-2.5693,-2.5693,-2.5693,-2.9224,-2.7722,-2.6257,-2.6547,-2.6677,-2.6873,-2.7498,-2.834,-2.8853,-2.8333,-2.7559,-2.7002,-2.6963,-2.6318,-2.5732,-2.5693,-2.5693,-2.5693,-2.5693,-2.5693,-2.5693,-2.5693,-2.5693,-2.5693,-2.5693,-2.5693,-2.5323,-2.4482,-2.4414,-2.3997,-2.314,-2.3091,-2.3091,-2.3091,-2.3091,-2.3091,-2.3144,-2.3363,-2.3503,-2.3503,-2.3503,-2.3503,-2.346,-2.3232,-2.3091,-2.3091,-2.3091,-2.3091,-2.3091,-2.3091,-2.3091,-2.3091,-2.3091,-2.3091,-2.3091,-2.3091,-2.3091,-2.3091,-2.3091,-2.3091,-2.3091,-2.3091,-2.3091,-2.3091,-2.3091,-2.3091,-2.3091,-2.3091,-2.3091,-2.3091,-2.3091,-2.3091,-2.3198,-2.3633,-2.3428,-2.3325,-2.4189,-2.4385,-2.4668,-2.5469,-2.5664,-2.5693,-2.5693,-2.5693,-2.5693,-2.5693,-2.5693,-2.5693,-2.5693,-2.5693,-2.5693,-2.5693,-2.5693,-2.5693,-2.5693,-2.5693,-2.5693,-2.5693,-2.5693,-2.5693,-2.5693,-2.5693,-2.5693,-2.5693,-2.5693,-2.5693,-2.5693,-2.5693,-2.5693,-2.5693,-2.5693,-2.5693,-2.8733,-2.8323,-2.8232,-2.6942,-2.7107,-2.7634,-2.7742,-2.7945,-2.7994,-2.7677,-2.7282,-2.6914,-2.6582,-2.6377,-2.6133,-2.5742,-2.5693,-2.5693,-2.5693,-2.5693,-2.5693,-2.5693,-2.5693,-2.5693,-2.5693,-2.5693,-2.5323,-2.4482,-2.4414,-2.3997,-2.314,-2.3091,-2.3091,-2.3091,-2.3091,-2.3188,-2.3406,-2.346,-2.3503,-2.3503,-2.3503,-2.3373,-2.3188,-2.3144,-2.3091,-2.3091,-2.3091,-2.3091,-2.3091,-2.3091,-2.3091,-2.3091,-2.3091,-2.3091,-2.3091,-2.3091,-2.3091,-2.3091,-2.3091,-2.3091,-2.3091,-2.3091,-2.3091,-2.3091,-2.3091,-2.3091,-2.3091,-2.3091,-2.3091,-2.3091,-2.3091,-2.3091,-2.312,-2.3218,-2.3169,-2.3237,-2.3809,-2.418,-2.457,-2.5107,-2.5498,-2.5693,-2.5693,-2.5693,-2.5693,-2.5693,-2.5693,-2.5693,-2.5693,-2.5693,-2.5693,-2.5693,-2.5693,-2.5693,-2.5693,-2.5693,-2.5693,-2.5693,-2.5693,-2.5693,-2.5693,-2.5693,-2.5693,-2.5693,-2.5693,-2.5693,-2.5693,-2.5693,-2.5693,-2.5693,-2.5693,-2.5693,-2.9047,-2.8479,-2.8065,-2.7148,-2.7299,-2.7579,-2.7435,-2.7289,-2.7082,-2.6824,-2.6753,-2.665,-2.6426,-2.6221,-2.6006,-2.5723,-2.5693,-2.5693,-2.5693,-2.5693,-2.5693,-2.5693,-2.5547,-2.542,-2.542,-2.5225,-2.4834,-2.417,-2.4111,-2.3828,-2.313,-2.3091,-2.3144,-2.3276,-2.3276,-2.3406,-2.3634,-2.3764,-2.3764,-2.3624,-2.3624,-2.3537,-2.3276,-2.3144,-2.3091,-2.3091,-2.3091,-2.3091,-2.3091,-2.3091,-2.3091,-2.3091,-2.3091,-2.3091,-2.3091,-2.3091,-2.3091,-2.3091,-2.3091,-2.3091,-2.3091,-2.3091,-2.3091,-2.3091,-2.3091,-2.3091,-2.3091,-2.3091,-2.3091,-2.3091,-2.3091,-2.3091,-2.3149,-2.3398,-2.3247,-2.3266,-2.3955,-2.4258,-2.4609,-2.5264,-2.5576,-2.5693,-2.5693,-2.5693,-2.5693,-2.5693,-2.5693,-2.5693,-2.5693,-2.5693,-2.5693,-2.5693,-2.5693,-2.5693,-2.5693,-2.5693,-2.5693,-2.5693,-2.5693,-2.5693,-2.5693,-2.5693,-2.5693,-2.5693,-2.5693,-2.5693,-2.5693,-2.5693,-2.5693,-2.5693,-2.5693,-2.5693,-2.9565,-2.8484,-2.7308,-2.7327,-2.7309,-2.7214,-2.6948,-2.6747,-2.6496,-2.6149,-2.6212,-2.6279,-2.6279,-2.5977,-2.5693,-2.5693,-2.5693,-2.5693,-2.5693,-2.5625,-2.5625,-2.5625,-2.5225,-2.4998,-2.4998,-2.4629,-2.4238,-2.3828,-2.3789,-2.3603,-2.312,-2.3091,-2.3188,-2.3416,-2.3503,-2.359,-2.3797,-2.4067,-2.4067,-2.3884,-2.3841,-2.3711,-2.3547,-2.3319,-2.3178,-2.3188,-2.3135,-2.3091,-2.3091,-2.3091,-2.3091,-2.3091,-2.3091,-2.3091,-2.3091,-2.3091,-2.3091,-2.3091,-2.3091,-2.3091,-2.3091,-2.3091,-2.3091,-2.3091,-2.3091,-2.3091,-2.3091,-2.3091,-2.3091,-2.3091,-2.3091,-2.3149,-2.334,-2.3701,-2.3574,-2.353,-2.4365,-2.4531,-2.4766,-2.5538,-2.5693,-2.5693,-2.5693,-2.5693,-2.5693,-2.5693,-2.5693,-2.5693,-2.5693,-2.5693,-2.5693,-2.5693,-2.5693,-2.5693,-2.5693,-2.5693,-2.5693,-2.5693,-2.5693,-2.5693,-2.5693,-2.5693,-2.5693,-2.5693,-2.5693,-2.5693,-2.5693,-2.5693,-2.5693,-2.5693,-2.5693,-2.5693,-2.9772,-2.8623,-2.7729,-2.7353,-2.7309,-2.7214,-2.6948,-2.6853,-2.6699,-2.6197,-2.5917,-2.5771,-2.5771,-2.5732,-2.5693,-2.5693,-2.5693,-2.5693,-2.5693,-2.54,-2.5156,-2.5156,-2.4766,-2.4502,-2.4502,-2.4453,-2.4238,-2.3828,-2.3789,-2.3603,-2.312,-2.3091,-2.3135,-2.3135,-2.3363,-2.359,-2.3797,-2.4067,-2.4163,-2.4153,-2.3927,-2.3797,-2.3754,-2.3711,-2.3624,-2.3406,-2.3188,-2.3091,-2.3091,-2.3091,-2.3091,-2.3091,-2.3091,-2.3091,-2.3091,-2.3091,-2.3091,-2.3091,-2.3091,-2.3091,-2.3091,-2.3091,-2.3091,-2.3091,-2.3091,-2.3091,-2.3091,-2.3091,-2.3091,-2.3091,-2.3091,-2.3418,-2.3721,-2.3779,-2.4023,-2.4385,-2.4873,-2.5028,-2.5127,-2.5586,-2.5693,-2.5693,-2.5693,-2.5693,-2.5693,-2.5693,-2.5693,-2.5693,-2.5693,-2.5693,-2.5693,-2.5693,-2.5693,-2.5693,-2.5693,-2.5693,-2.5693,-2.5693,-2.5693,-2.5693,-2.5693,-2.5693,-2.5693,-2.5693,-2.5693,-2.5693,-2.5693,-2.5693,-2.5693,-2.5693,-2.5693,-2.5693,-3.0122,-2.8925,-2.7941,-2.8057,-2.7668,-2.7262,-2.7177,-2.6996,-2.6853,-2.6602,-2.6207,-2.5868,-2.5732,-2.5693,-2.5693,-2.5693,-2.5693,-2.5693,-2.5693,-2.5352,-2.5116,-2.5116,-2.4473,-2.4062,-2.4062,-2.3848,-2.3578,-2.3437,-2.3428,-2.334,-2.311,-2.3091,-2.3188,-2.3319,-2.346,-2.3677,-2.4024,-2.4153,-2.4206,-2.4206,-2.3937,-2.3884,-2.4024,-2.3884,-2.3754,-2.3677,-2.3406,-2.3319,-2.3319,-2.3144,-2.3091,-2.3091,-2.3091,-2.3091,-2.3091,-2.3091,-2.3091,-2.3091,-2.3091,-2.3091,-2.3091,-2.3091,-2.3091,-2.3091,-2.3091,-2.3091,-2.3149,-2.3437,-2.3506,-2.3555,-2.3754,-2.3994,-2.4199,-2.4443,-2.4648,-2.4902,-2.5342,-2.5244,-2.5205,-2.5596,-2.5693,-2.5693,-2.5693,-2.5693,-2.5693,-2.5693,-2.5693,-2.5693,-2.5693,-2.5693,-2.5693,-2.5693,-2.5693,-2.5693,-2.5693,-2.5693,-2.5693,-2.5693,-2.5693,-2.5693,-2.5693,-2.5693,-2.5693,-2.5693,-2.5693,-2.5693,-2.5693,-2.5693,-2.5693,-2.5693,-2.5693,-2.5693,-3.0028,-2.9145,-2.8299,-2.8477,-2.7946,-2.7437,-2.7326,-2.7129,-2.6996,-2.69,-2.6602,-2.6197,-2.5975,-2.5781,-2.5693,-2.5693,-2.5693,-2.5693,-2.5693,-2.5254,-2.4902,-2.4902,-2.415,-2.3623,-2.3623,-2.333,-2.3091,-2.3091,-2.3091,-2.3091,-2.3091,-2.3144,-2.3276,-2.3503,-2.3634,-2.3851,-2.4206,-2.4249,-2.4292,-2.4282,-2.4057,-2.4067,-2.4282,-2.4057,-2.3927,-2.3894,-2.3634,-2.3503,-2.3503,-2.3232,-2.3091,-2.3091,-2.3091,-2.3091,-2.3091,-2.3091,-2.3091,-2.3091,-2.3091,-2.3091,-2.3091,-2.3091,-2.3091,-2.3091,-2.3091,-2.3091,-2.3188,-2.3662,-2.3789,-2.3887,-2.4307,-2.4502,-2.4668,-2.5037,-2.5156,-2.5332,-2.5615,-2.5478,-2.5332,-2.5625,-2.5693,-2.5693,-2.5693,-2.5693,-2.5693,-2.5693,-2.5693,-2.5693,-2.5693,-2.5693,-2.5693,-2.5693,-2.5693,-2.5693,-2.5693,-2.5693,-2.5693,-2.5693,-2.5693,-2.5693,-2.5693,-2.5693,-2.5693,-2.5693,-2.5693,-2.5693,-2.5693,-2.5693,-2.5693,-2.5693,-2.5693,-2.5693,-2.9139,-2.9124,-2.9107,-2.8143,-2.7911,-2.7767,-2.7395,-2.7309,-2.7214,-2.6948,-2.69,-2.6805,-2.6496,-2.6024,-2.5693,-2.5693,-2.5693,-2.5693,-2.5693,-2.4953,-2.4453,-2.4453,-2.3656,-2.313,-2.313,-2.311,-2.3091,-2.3091,-2.3091,-2.3091,-2.3091,-2.3319,-2.3503,-2.3503,-2.3937,-2.4163,-2.4206,-2.4368,-2.4497,-2.4497,-2.4454,-2.4454,-2.4497,-2.4454,-2.4368,-2.4153,-2.3677,-2.3503,-2.3503,-2.3232,-2.3091,-2.3091,-2.3091,-2.3091,-2.3091,-2.3091,-2.3091,-2.3091,-2.3091,-2.3091,-2.3091,-2.3091,-2.3091,-2.3091,-2.3091,-2.3091,-2.3188,-2.3662,-2.3789,-2.3887,-2.4307,-2.4727,-2.5086,-2.5106,-2.5391,-2.5664,-2.5684,-2.5674,-2.5664,-2.5684,-2.5693,-2.5693,-2.5693,-2.5693,-2.5693,-2.5693,-2.5693,-2.5693,-2.5693,-2.5693,-2.5693,-2.5693,-2.5693,-2.5693,-2.5693,-2.5693,-2.5693,-2.5693,-2.5693,-2.5693,-2.5693,-2.5693,-2.5693,-2.5693,-2.5693,-2.5693,-2.5693,-2.5693,-2.5693,-2.5693,-2.5693,-2.5693,-2.9277,-2.9075,-2.8843,-2.8687,-2.8275,-2.7876,-2.7739,-2.7504,-2.7262,-2.7167,-2.7034,-2.6853,-2.6747,-2.6304,-2.5965,-2.5965,-2.583,-2.5693,-2.5693,-2.5215,-2.4727,-2.4453,-2.3906,-2.3447,-2.312,-2.3091,-2.3091,-2.3091,-2.3276,-2.3363,-2.3363,-2.358,-2.3667,-2.3667,-2.3851,-2.4024,-2.4206,-2.4411,-2.4497,-2.4497,-2.4497,-2.4497,-2.4497,-2.4497,-2.4454,-2.4378,-2.3894,-2.3624,-2.3503,-2.3232,-2.3188,-2.3319,-2.3188,-2.3188,-2.3319,-2.3144,-2.3091,-2.3091,-2.3091,-2.3091,-2.3091,-2.3091,-2.3091,-2.3149,-2.3467,-2.3555,-2.3701,-2.4414,-2.4609,-2.4707,-2.5146,-2.5381,-2.5498,-2.5498,-2.5625,-2.5693,-2.5693,-2.5693,-2.5693,-2.5693,-2.5693,-2.5693,-2.5693,-2.5693,-2.5693,-2.5693,-2.5693,-2.5693,-2.5693,-2.5693,-2.5693,-2.5693,-2.5693,-2.5693,-2.5693,-2.5693,-2.5693,-2.5693,-2.5693,-2.5693,-2.5693,-2.5693,-2.5693,-2.5693,-2.5693,-2.5693,-2.5693,-2.5693,-2.5693,-2.5693,-2.5693,-2.5693,-2.8978,-2.8837,-2.8723,-2.9096,-2.8486,-2.7852,-2.8103,-2.7658,-2.7253,-2.7284,-2.7177,-2.7034,-2.7034,-2.6688,-2.6304,-2.6149,-2.5965,-2.5781,-2.5684,-2.5352,-2.4961,-2.4668,-2.4258,-2.3828,-2.3398,-2.3315,-2.3257,-2.311,-2.3276,-2.3416,-2.3503,-2.3667,-2.3884,-2.4013,-2.4013,-2.411,-2.4282,-2.4411,-2.4497,-2.4497,-2.4497,-2.4497,-2.4497,-2.4497,-2.4454,-2.4368,-2.4067,-2.3851,-2.3721,-2.3363,-2.3319,-2.3503,-2.3319,-2.3276,-2.3319,-2.3188,-2.3091,-2.3091,-2.3091,-2.3091,-2.3091,-2.3091,-2.3198,-2.3408,-2.3701,-2.3887,-2.415,-2.491,-2.5116,-2.5176,-2.5625,-2.5693,-2.5693,-2.5693,-2.5693,-2.5693,-2.5693,-2.5693,-2.5693,-2.5693,-2.5693,-2.5693,-2.5693,-2.5693,-2.5693,-2.5693,-2.5693,-2.5693,-2.5693,-2.5693,-2.5693,-2.5693,-2.5693,-2.5693,-2.5693,-2.5693,-2.5693,-2.5693,-2.5693,-2.5693,-2.5693,-2.5693,-2.5693,-2.5693,-2.5693,-2.5693,-2.5693,-2.5693,-2.5693,-2.5693,-2.5693,-2.5693,0.0,0.0,0.0,-2.9242,-2.8442,-2.7745,-2.8498,-2.7893,-2.7164,-2.728,-2.7336,-2.7289,-2.7299,-2.7081,-2.6747,-2.6197,-2.61,-2.6004,-2.5781,-2.5409,-2.5125,-2.5116,-2.4744,-2.4268,-2.3848,-2.3844,-2.3613,-2.3149,-2.3101,-2.3232,-2.3503,-2.3711,-2.4013,-2.4497,-2.4497,-2.4497,-2.4497,-2.4497,-2.4497,-2.4497,-2.4497,-2.4497,-2.4497,-2.4497,-2.4368,-2.4206,-2.4206,-2.4206,-2.4163,-2.3677,-2.3503,-2.3503,-2.3503,-2.3319,-2.3091,-2.3091,-2.3091,-2.3091,-2.3091,-2.3091,-2.3091,-2.311,-2.3447,-2.3799,-2.3818,-2.4111,-2.4531,-2.4971,-2.5135,-2.5233,-2.5577,-2.5684,-2.5742,-2.5693,-2.5693,-2.5684,-2.5693,-2.5693,-2.5693,-2.5693,-2.5693,-2.5693,-2.5693,-2.5693,-2.5693,-2.5693,-2.5693,-2.5693,-2.5693,-2.5693,-2.5693,-2.5693,-2.5693,-2.5693,-2.5693,-2.5693,-2.5693,-2.5693,-2.5693,-2.5693,-2.5693,-2.5693,-2.5693,-2.5693,-2.5693,-2.5693,-2.5693,-2.5693,-2.5693,-2.5693,-2.5693,-2.5693,-2.7569,0.0,0.0,0.0,0.0,0.0,-2.8357,-2.8279,-2.8053,-2.7807,-2.7707,-2.764,-2.7332,-2.7214,-2.7071,-2.6747,-2.6496,-2.6352,-2.6304,-2.6204,-2.6004,-2.5627,-2.5478,-2.5182,-2.4572,-2.4381,-2.4098,-2.3623,-2.3628,-2.3624,-2.3711,-2.411,-2.4368,-2.4497,-2.4497,-2.4497,-2.4497,-2.4497,-2.4497,-2.4497,-2.4497,-2.4497,-2.4497,-2.4497,-2.4454,-2.4411,-2.4249,-2.4206,-2.4163,-2.3677,-2.359,-2.3667,-2.3363,-2.3276,-2.3373,-2.3178,-2.3091,-2.3091,-2.3091,-2.3091,-2.3149,-2.3506,-2.3691,-2.3906,-2.4531,-2.4945,-2.5226,-2.5478,-2.5682,-2.5807,-2.5703,-2.5975,-2.6169,-2.5781,-2.5868,-2.5965,-2.5732,-2.5693,-2.5693,-2.5693,-2.5693,-2.5693,-2.5693,-2.5693,-2.5693,-2.5693,-2.5693,-2.5693,-2.5693,-2.5693,-2.5693,-2.5693,-2.5693,-2.5693,-2.5693,-2.5693,-2.5693,-2.5693,-2.5693,-2.5693,-2.5693,-2.5693,-2.5693,-2.5693,-2.5693,-2.5693,-2.5693,-2.5693,-2.5693,-2.5693,-2.5693,-2.5693,-2.7335,-2.7365,-2.7531,-2.7853,0.0,0.0,-2.8471,-2.8204,-2.7872,-2.7908,-2.7767,-2.7575,-2.7352,-2.7309,-2.7262,-2.7081,-2.6938,-2.6736,-2.6544,-2.6496,-2.6406,-2.6134,-2.6104,-2.5839,-2.5249,-2.5117,-2.4771,-2.4133,-2.4087,-2.4042,-2.3991,-2.4325,-2.4497,-2.4497,-2.4497,-2.4497,-2.4497,-2.4497,-2.4497,-2.4497,-2.4497,-2.4497,-2.4497,-2.4497,-2.4497,-2.4497,-2.4292,-2.4206,-2.4163,-2.3677,-2.358,-2.3667,-2.3363,-2.3276,-2.3319,-2.3144,-2.3091,-2.3091,-2.3091,-2.3218,-2.3457,-2.3845,-2.4215,-2.4608,-2.5204,-2.5622,-2.5926,-2.6003,-2.6159,-2.6245,-2.6062,-2.6265,-2.64,-2.612,-2.6159,-2.6197,-2.6072,-2.6024,-2.5975,-2.5732,-2.5693,-2.5693,-2.5693,-2.5693,-2.5693,-2.5693,-2.5693,-2.5693,-2.5693,-2.5693,-2.5693,-2.5693,-2.5693,-2.5693,-2.5693,-2.5693,-2.5693,-2.5693,-2.5693,-2.5693,-2.5693,-2.5693,-2.5693,-2.5693,-2.5693,-2.5693,-2.5693,-2.5693,-2.5693,-2.5693,-2.5693,-2.5693,-2.7335,-2.718,-2.7233,-2.8053,-2.747,0.0,-2.8564,-2.7975,-2.7254,-2.7767,-2.7581,-2.7321,-2.7202,-2.7212,-2.7186,-2.7143,-2.7195,-2.7057,-2.663,-2.6592,-2.6592,-2.6592,-2.6592,-2.6393,-2.599,-2.5909,-2.5526,-2.4645,-2.4494,-2.4405,-2.4227,-2.4368,-2.4497,-2.4497,-2.4497,-2.4497,-2.4497,-2.4497,-2.4497,-2.4497,-2.4497,-2.4497,-2.4497,-2.4497,-2.4497,-2.4497,-2.4292,-2.4206,-2.4163,-2.3764,-2.3547,-2.3547,-2.3503,-2.3363,-2.3188,-2.3188,-2.3188,-2.3188,-2.3188,-2.3472,-2.3934,-2.4217,-2.4884,-2.556,-2.5789,-2.6184,-2.6544,-2.6544,-2.6544,-2.6544,-2.6496,-2.6544,-2.6592,-2.6496,-2.6496,-2.6554,-2.6448,-2.6448,-2.6304,-2.5781,-2.5732,-2.5781,-2.5781,-2.5781,-2.5732,-2.5732,-2.5742,-2.5693,-2.5693,-2.5693,-2.5693,-2.5693,-2.5693,-2.5693,-2.5693,-2.5693,-2.5693,-2.5693,-2.5693,-2.5693,-2.5693,-2.5693,-2.5693,-2.5693,-2.5693,-2.5693,-2.5693,-2.5693,-2.5693,-2.5693,-2.5693,-2.5693,-2.7469,-2.7335,-2.7266,-2.7259,-2.7659,0.0,-2.7714,-2.8101,-2.8348,-2.7723,-2.7504,-2.7286,-2.6672,-2.6604,-2.6512,-2.6218,-2.6511,-2.6827,-2.7115,-2.7119,-2.7119,-2.7119,-2.7119,-2.704,-2.672,-2.6562,-2.6074,-2.5133,-2.4571,-2.4255,-2.4206,-2.4368,-2.4497,-2.4497,-2.4497,-2.4497,-2.4497,-2.4497,-2.4497,-2.4497,-2.4497,-2.4497,-2.4497,-2.4497,-2.4497,-2.4497,-2.4454,-2.4325,-2.4206,-2.412,-2.3937,-2.3711,-2.3547,-2.358,-2.3667,-2.3667,-2.3667,-2.3667,-2.3667,-2.3957,-2.4431,-2.4892,-2.5364,-2.5799,-2.6255,-2.658,-2.6805,-2.6805,-2.6805,-2.6747,-2.6544,-2.6832,-2.7023,-2.6592,-2.6651,-2.6699,-2.6294,-2.6197,-2.61,-2.5781,-2.6072,-2.6352,-2.6352,-2.6159,-2.6004,-2.6004,-2.583,-2.5693,-2.5693,-2.5693,-2.5693,-2.5693,-2.5693,-2.5693,-2.5693,-2.5693,-2.5693,-2.5693,-2.5693,-2.5693,-2.5693,-2.5693,-2.5693,-2.5693,-2.5693,-2.5693,-2.5693,-2.5693,-2.5693,-2.5693,-2.5693,-2.5693,-2.7514,-2.7335,-2.7235,-2.7045,-2.7343,0.0,0.0,-2.769,-2.7838,-2.7558,-2.7353,-2.7094,-2.6702,-2.6665,-2.6663,-2.6759,-2.6849,-2.7013,-2.7537,-2.7437,-2.7309,-2.7309,-2.7309,-2.7262,-2.7129,-2.7008,-2.6584,-2.563,-2.4999,-2.4615,-2.4346,-2.4464,-2.4497,-2.4497,-2.4497,-2.4497,-2.4497,-2.4497,-2.4497,-2.4497,-2.4497,-2.4497,-2.4497,-2.4497,-2.4497,-2.4497,-2.4368,-2.4292,-2.4206,-2.4067,-2.398,-2.398,-2.3764,-2.3711,-2.3797,-2.3797,-2.3797,-2.3827,-2.4048,-2.4474,-2.4962,-2.5533,-2.5989,-2.6405,-2.6809,-2.6976,-2.7081,-2.7081,-2.7081,-2.7081,-2.6928,-2.7119,-2.7214,-2.6976,-2.6976,-2.7034,-2.6774,-2.6678,-2.6678,-2.6544,-2.6602,-2.6592,-2.6352,-2.6062,-2.5965,-2.61,-2.5868,-2.5693,-2.5693,-2.5693,-2.5693,-2.5693,-2.5693,-2.5693,-2.5693,-2.5693,-2.5693,-2.5693,-2.5693,-2.5693,-2.5693,-2.5693,-2.5693,-2.5693,-2.5693,-2.5693,-2.5693,-2.5693,-2.5693,-2.5693,-2.5693,-2.5693,-2.7708,-2.7558,-2.7498,-2.7225,-2.722,-2.7327,0.0,0.0,0.0,-2.7279,-2.7034,-2.681,-2.6754,-2.6818,-2.7007,-2.7387,-2.7329,-2.7337,-2.7586,-2.7423,-2.7259,-2.7164,-2.7247,-2.7268,-2.7185,-2.7092,-2.6729,-2.5982,-2.5399,-2.489,-2.4518,-2.4497,-2.4497,-2.4497,-2.4497,-2.4497,-2.4497,-2.4497,-2.4497,-2.4497,-2.4497,-2.4497,-2.4497,-2.4497,-2.4497,-2.4497,-2.4325,-2.4249,-2.4249,-2.4013,-2.4067,-2.4239,-2.398,-2.3884,-2.3927,-2.3927,-2.3978,-2.4109,-2.4516,-2.4992,-2.5543,-2.611,-2.6597,-2.7034,-2.7214,-2.7309,-2.7309,-2.7309,-2.7309,-2.7309,-2.7309,-2.7309,-2.7309,-2.7309,-2.7309,-2.7309,-2.7214,-2.7214,-2.7214,-2.7167,-2.6986,-2.6699,-2.6294,-2.5965,-2.5868,-2.6052,-2.5868,-2.5693,-2.5693,-2.5693,-2.5693,-2.5693,-2.5693,-2.5693,-2.5693,-2.5693,-2.5693,-2.5693,-2.5693,-2.5693,-2.5693,-2.5693,-2.5693,-2.5693,-2.5693,-2.5693,-2.5693,-2.5693,-2.5693,-2.5693,-2.5693,-2.5693,-2.8485,-2.8459,-2.8344,-2.7844,-2.8065,-2.8109,-2.7065,0.0,-2.7339,-2.6746,0.0,-2.6437,-2.6139,0.0,0.0,-2.6485,-2.7163,-2.7462,-2.6747,-2.6965,-2.7072,-2.6728,-2.7061,-2.7143,-2.6739,-2.6324,-2.5989,-2.593,-2.5099,-2.4559,-2.4497,-2.4497,-2.4497,-2.4497,-2.4497,-2.4497,-2.4497,-2.4497,-2.4497,-2.4497,-2.4497,-2.4497,-2.4497,-2.4497,-2.4497,-2.4497,-2.4454,-2.4454,-2.4454,-2.4411,-2.4454,-2.4464,-2.4249,-2.4239,-2.4411,-2.4411,-2.4669,-2.5073,-2.508,-2.5692,-2.645,-2.6548,-2.6879,-2.7262,-2.7309,-2.7309,-2.7309,-2.7309,-2.7309,-2.7309,-2.7309,-2.7309,-2.7309,-2.7309,-2.7309,-2.7214,-2.6996,-2.6948,-2.69,-2.664,-2.6544,-2.6602,-2.6805,-2.64,-2.6052,-2.61,-2.5868,-2.5693,-2.5693,-2.5693,-2.5693,-2.5693,-2.5693,-2.5693,-2.5693,-2.5693,-2.5693,-2.5693,-2.5693,-2.5693,-2.5693,-2.5693,-2.5693,-2.5693,-2.5693,-2.5693,-2.5693,-2.5693,-2.5693,-2.5693,-2.5693,-2.5693,-2.8705,-2.8615,-2.8475,-2.7911,-2.8068,-2.8042,-2.7088,-2.7067,-2.7134,-2.6709,0.0,0.0,0.0,0.0,0.0,0.0,-2.7311,-2.7614,-2.7538,-2.7799,-2.7514,-2.6316,-2.6387,-2.6532,-2.6604,-2.6438,-2.621,-2.5941,-2.5533,-2.5088,-2.4528,-2.4755,-2.4776,-2.4507,-2.4497,-2.4497,-2.4497,-2.4497,-2.4497,-2.4497,-2.4497,-2.4497,-2.4497,-2.4497,-2.4497,-2.4497,-2.4497,-2.4497,-2.4497,-2.4497,-2.4497,-2.4497,-2.4411,-2.4411,-2.4528,-2.4797,-2.5024,-2.5261,-2.5834,-2.6258,-2.6656,-2.6926,-2.7154,-2.7309,-2.7309,-2.7309,-2.7309,-2.7309,-2.7309,-2.7309,-2.7309,-2.7309,-2.7309,-2.7309,-2.7309,-2.7262,-2.7177,-2.7129,-2.7071,-2.6976,-2.6832,-2.6757,-2.69,-2.6602,-2.6294,-2.61,-2.6159,-2.6072,-2.5732,-2.583,-2.5868,-2.5742,-2.5693,-2.5693,-2.5693,-2.5693,-2.5693,-2.5693,-2.5693,-2.5693,-2.5693,-2.5693,-2.5693,-2.5693,-2.5693,-2.5693,-2.5693,-2.5693,-2.5693,-2.5693,-2.5693,-2.5693,-2.8778,-2.8791,-2.8777,-2.8135,-2.8062,-2.7965,-2.7109,-2.7037,-2.7118,-2.692,-2.6908,0.0,0.0,0.0,0.0,0.0,0.0,-2.7944,-2.8083,-2.8169,-2.7776,-2.657,-2.6214,-2.6232,-2.6553,-2.6351,-2.6061,-2.573,-2.5585,-2.5285,-2.4714,-2.489,-2.49,-2.4693,-2.4569,-2.4559,-2.4683,-2.4559,-2.4559,-2.4683,-2.4559,-2.4497,-2.4497,-2.4497,-2.4497,-2.4497,-2.4497,-2.4497,-2.4497,-2.4497,-2.4497,-2.4507,-2.4631,-2.4683,-2.4724,-2.5065,-2.5344,-2.5689,-2.6341,-2.6698,-2.6864,-2.7195,-2.7309,-2.7309,-2.7309,-2.7309,-2.7309,-2.7309,-2.7309,-2.7309,-2.7309,-2.7309,-2.7309,-2.7309,-2.7309,-2.7309,-2.7309,-2.7309,-2.7262,-2.7214,-2.7034,-2.6853,-2.6699,-2.6496,-2.6352,-2.6245,-2.6255,-2.6169,-2.5868,-2.6015,-2.6094,-2.5918,-2.5966,-2.5996,-2.5879,-2.5869,-2.582,-2.5693,-2.5693,-2.5693,-2.5693,-2.5693,-2.5693,-2.5693,-2.5693,-2.5693,-2.5693,-2.5693,-2.5693,-2.5693,-2.5693,-2.5693,-2.8913,-2.9315,-2.9554,-2.8594,-2.8401,-2.8109,-2.698,-2.7158,-2.7528,-2.7326,-2.7682,-2.8059,-2.8059,0.0,0.0,0.0,0.0,0.0,0.0,-2.7615,-2.7656,-2.7733,-2.7001,-2.6517,-2.6568,-2.5782,-2.523,-2.521,-2.4797,-2.4724,-2.5137,-2.4755,-2.4714,-2.5148,-2.4735,-2.4714,-2.5158,-2.4724,-2.4724,-2.5158,-2.4714,-2.4497,-2.4497,-2.4497,-2.4497,-2.4497,-2.4497,-2.4497,-2.4497,-2.4497,-2.4497,-2.4549,-2.4993,-2.5168,-2.5168,-2.5179,-2.5782,-2.6573,-2.6604,-2.6915,-2.7289,-2.7299,-2.7309,-2.7309,-2.7309,-2.7309,-2.7309,-2.7309,-2.7309,-2.7309,-2.7309,-2.7309,-2.7309,-2.7309,-2.7309,-2.7309,-2.7309,-2.7309,-2.7214,-2.6948,-2.69,-2.6747,-2.6197,-2.61,-2.6197,-2.6448,-2.6072,-2.583,-2.6052,-2.6241,-2.6367,-2.6367,-2.6728,-2.6807,-2.6406,-2.6367,-2.6182,-2.5713,-2.5693,-2.5693,-2.5693,-2.5693,-2.5693,-2.5693,-2.5693,-2.5693,-2.5693,-2.5693,-2.5693,-2.5693,-2.5693,-2.5693,-2.9402,-2.9641,-2.9642,-2.8925,-2.857,-2.82,-2.7475,-2.7449,-2.769,-2.7986,-2.8056,-2.8246,-2.8759,0.0,0.0,0.0,0.0,0.0,0.0,-2.8807,-2.8949,-2.8698,-2.8226,-2.7586,-2.6614,-2.6625,-2.6243,-2.5254,-2.5357,-2.5368,-2.5199,-2.5647,-2.5813,-2.5668,-2.5513,-2.5502,-2.5658,-2.5223,-2.5034,-2.5179,-2.4714,-2.4497,-2.4497,-2.4497,-2.4497,-2.4497,-2.4497,-2.4497,-2.4518,-2.4828,-2.4952,-2.5003,-2.5482,-2.5844,-2.6113,-2.6113,-2.631,-2.6656,-2.6967,-2.7175,-2.7309,-2.7309,-2.7309,-2.7309,-2.7309,-2.7309,-2.7309,-2.7309,-2.7309,-2.7309,-2.7309,-2.7309,-2.7309,-2.7309,-2.7479,-2.7696,-2.7696,-2.7935,-2.8113,-2.8064,-2.8015,-2.7965,-2.7807,-2.7405,-2.6828,-2.6063,-2.612,-2.611,-2.5878,-2.6045,-2.6133,-2.5957,-2.6035,-2.6064,-2.5967,-2.5957,-2.5849,-2.5703,-2.5693,-2.5693,-2.5693,-2.5693,-2.5693,-2.5693,-2.5693,-2.5693,-2.5693,-2.5693,-2.5693,-2.5693,-2.5693,-2.5693,-2.9301,-2.9641,-2.9654,-2.9038,-2.8749,-2.8456,-2.79,-2.7925,-2.8165,-2.8532,-2.8648,-2.885,-2.9315,0.0,0.0,0.0,0.0,0.0,0.0,-2.9428,-2.9671,-2.9386,-2.8928,-2.8126,-2.6845,-2.6791,-2.6379,-2.5277,-2.5492,-2.5595,-2.5471,-2.6009,-2.6304,-2.6123,-2.6013,-2.5958,-2.6169,-2.5678,-2.5461,-2.5461,-2.4962,-2.4652,-2.4497,-2.4497,-2.4497,-2.4497,-2.4497,-2.4497,-2.4538,-2.5003,-2.5189,-2.5241,-2.5896,-2.6345,-2.6615,-2.6615,-2.6718,-2.6905,-2.7206,-2.7309,-2.7309,-2.7309,-2.7309,-2.7309,-2.7309,-2.7309,-2.7309,-2.7309,-2.7309,-2.734,-2.7506,-2.7489,-2.7541,-2.7696,-2.7966,-2.8173,-2.8173,-2.84,-2.8557,-2.8457,-2.8457,-2.8457,-2.8378,-2.7982,-2.7438,-2.6603,-2.6403,-2.6255,-2.6024,-2.6103,-2.6153,-2.5967,-2.6054,-2.6083,-2.5977,-2.5781,-2.5693,-2.5693,-2.5693,-2.5693,-2.5693,-2.5693,-2.5693,-2.5693,-2.5693,-2.5693,-2.5693,-2.5693,-2.5771,-2.5967,-2.5967,-2.6045]},{"header":{"parameterUnit":"m.s-1","parameterCategory":1,"la1":30.6,"la2":29.2853,"lo1":-89.7004,"lo2":-87.6739,"dy":0.0162,"dx":0.0183,"nx":112,"ny":82,"refTime":"2026-03-03T12:00:00:Z","depth":0,"parameterNumber":3,"parameterNumberName":"V-component_of_WINDS"},"data":[0.0,0.0,0.0,0.0,0.0,0.0,0.0,0.0,0.0,0.0,0.0,0.0,0.0,0.0,0.0,0.0,0.0,0.0,0.0,0.0,0.0,0.0,0.0,0.0,0.0,0.0,0.0,0.0,0.0,0.0,0.0,0.0,0.0,0.0,0.0,0.0,0.0,0.0,0.0,0.0,0.0,0.0,0.0,0.0,0.0,0.0,0.0,0.0,0.0,0.0,0.0,0.0,0.0,0.0,0.0,0.0,0.0,0.0,0.0,0.0,0.0,0.0,0.0,0.0,0.0,0.0,0.0,0.0,0.0,0.0,0.0,0.0,0.0,0.0,0.0,0.0,0.0,0.0,0.0,0.0,0.0,0.0,0.0,0.0,0.0,0.0,0.0,0.0,0.0,0.0,1.3938,1.2892,1.2896,1.2877,1.2732,1.2678,1.2141,1.0898,0.0,0.0,0.0,0.0,0.0,0.0,0.0,0.0,0.0,0.0,0.0,0.0,0.0,0.0,0.0,0.0,0.0,0.0,0.0,0.0,0.0,0.0,0.0,0.0,0.0,0.0,0.0,0.0,0.0,0.0,0.0,0.0,0.0,0.0,0.0,0.0,0.0,0.0,0.0,0.0,0.0,0.0,0.0,0.0,0.0,0.0,0.0,0.0,0.0,0.0,0.0,0.0,0.0,0.0,0.0,0.0,0.0,0.0,0.0,0.0,0.0,0.0,0.0,0.0,0.0,0.0,0.0,0.0,0.0,0.0,0.0,0.0,0.0,0.0,0.0,0.0,0.0,0.0,0.0,0.0,0.0,0.0,0.0,0.0,0.0,0.0,0.0,0.0,0.0,0.0,0.0,0.0,0.0,0.0,0.0,0.0,0.0,0.0,0.0,0.0,0.0,0.0,0.0,0.0,1.4662,1.4088,1.4028,1.3709,1.278,1.2678,1.2427,1.1814,0.0,0.0,0.0,0.0,0.0,0.0,0.0,0.0,0.0,0.0,0.0,0.0,0.0,0.0,0.0,0.0,0.0,0.0,0.0,0.0,0.0,0.0,0.0,0.0,0.0,0.0,0.0,0.0,0.0,0.0,0.0,0.0,0.0,0.0,0.0,0.0,0.0,0.0,0.0,0.0,0.0,0.0,0.0,0.0,0.0,0.0,0.0,0.0,0.0,0.0,0.0,0.0,0.0,0.0,0.0,0.0,0.0,0.0,0.0,0.0,0.0,0.0,0.0,0.0,0.0,0.0,0.0,0.0,0.0,0.0,0.0,0.0,0.0,0.0,0.0,0.0,0.0,0.0,0.0,0.0,0.0,0.0,0.0,0.0,0.0,0.0,0.0,0.0,0.0,0.0,0.0,0.0,0.0,0.0,0.0,0.0,0.0,0.0,0.0,0.0,0.0,0.0,0.0,1.5552,1.5398,1.5522,1.554,1.5343,1.4848,1.48,1.4327,1.3138,1.2694,0.0,0.0,0.0,0.0,0.0,0.0,0.0,0.0,0.0,0.0,0.0,0.0,0.0,0.0,0.0,0.0,0.0,0.0,0.0,0.0,0.0,0.0,0.0,0.0,0.0,0.0,0.0,0.0,0.0,0.0,0.0,0.0,0.0,0.0,0.0,0.0,0.0,0.0,0.0,0.0,0.0,0.0,0.0,0.0,0.0,0.0,0.0,0.0,0.0,0.0,0.0,0.0,0.0,0.0,0.0,0.0,0.0,0.0,0.0,0.0,0.0,0.0,0.0,0.0,0.0,0.0,0.0,0.0,0.0,0.0,0.0,0.0,0.0,0.0,0.0,0.0,0.0,0.0,0.0,0.0,0.0,0.0,0.0,0.0,0.0,0.0,0.0,0.0,0.0,0.0,0.0,0.0,0.0,0.0,0.0,0.0,0.0,0.0,0.0,0.0,0.0,0.0,1.6031,1.6102,1.6532,1.6588,1.6588,1.6588,1.6518,1.5908,1.4508,1.4321,0.0,0.0,0.0,0.0,0.0,0.0,0.0,0.0,0.0,0.0,0.0,0.0,0.0,0.0,0.0,0.0,0.0,0.0,0.0,0.0,0.0,0.0,0.0,0.0,0.0,0.0,0.0,0.0,0.0,0.0,0.0,0.0,0.0,0.0,0.0,0.0,0.0,0.0,0.0,0.0,0.0,0.0,0.0,0.0,0.0,0.0,0.0,0.0,0.0,0.0,0.0,0.0,0.0,0.0,0.0,0.0,0.0,0.0,0.0,0.0,0.0,0.0,0.0,0.0,0.0,0.0,0.0,0.0,0.0,0.0,0.0,0.0,0.0,0.0,0.0,0.0,0.0,0.0,0.0,0.0,0.0,0.0,0.0,0.0,0.0,0.0,0.0,0.0,0.0,0.0,0.0,0.0,0.0,0.0,0.0,0.0,0.0,0.0,0.0,0.0,0.0,0.0,1.6235,1.6835,1.6629,1.6588,1.6588,1.6588,1.6316,1.5969,1.5596,1.5304,0.0,0.0,0.0,0.0,0.0,0.0,0.0,0.0,0.0,0.0,0.0,0.0,0.0,0.0,0.0,0.0,0.0,0.0,0.0,0.0,0.0,0.0,0.0,0.0,0.0,0.0,0.0,0.0,0.0,0.0,0.0,0.0,0.0,0.0,0.0,0.0,0.0,0.0,0.0,0.0,0.0,0.0,0.0,0.0,0.0,0.0,0.0,0.0,0.0,0.0,0.0,0.0,0.0,0.0,0.0,0.0,0.0,0.0,0.0,0.0,0.0,0.0,0.0,0.0,0.0,0.0,0.0,0.0,0.0,0.0,0.0,0.0,0.0,0.0,0.0,0.0,0.0,0.0,0.0,0.0,0.0,0.0,0.0,0.0,0.0,0.0,0.0,0.0,0.0,0.0,0.0,0.0,0.0,0.0,0.0,0.0,0.0,0.0,0.0,0.0,0.0,0.0,1.7668,1.8527,1.8824,1.8326,1.8187,1.8818,1.821,1.7409,1.6573,0.0,0.0,0.0,0.0,0.0,0.0,0.0,0.0,0.0,0.0,0.0,0.0,0.0,0.0,0.0,0.0,0.0,0.0,0.0,0.0,0.0,0.0,0.0,0.0,0.0,0.0,0.0,0.0,0.0,0.0,0.0,0.0,0.0,0.0,0.0,0.0,0.0,0.0,0.0,0.0,0.0,0.0,0.0,0.0,0.0,0.0,0.0,0.0,0.0,0.0,0.0,0.0,0.0,0.0,0.0,0.0,0.0,0.0,0.0,0.0,0.0,0.0,0.0,0.0,0.0,0.0,0.0,0.0,0.0,0.0,0.0,0.0,0.0,0.0,0.0,0.0,0.0,0.0,0.0,0.0,0.0,0.0,0.0,0.0,0.0,0.0,0.0,0.0,0.0,0.0,0.0,0.0,0.0,0.0,0.0,0.0,0.0,0.0,0.0,0.0,0.0,0.0,1.7664,1.8659,1.9582,2.0118,1.965,1.9513,2.0141,1.9389,1.8543,1.7736,0.0,0.0,0.0,0.0,0.0,0.0,0.0,0.0,0.0,0.0,0.0,0.0,0.0,0.0,0.0,0.0,0.0,0.0,0.0,0.0,0.0,0.0,0.0,0.0,0.0,0.0,0.0,0.0,0.0,0.0,0.0,0.0,0.0,0.0,0.0,0.0,0.0,0.0,0.0,0.0,0.0,0.0,0.0,0.0,0.0,0.0,0.0,0.0,0.0,0.0,0.0,0.0,0.0,0.0,0.0,0.0,0.0,0.0,0.0,0.0,0.0,0.0,0.0,0.0,0.0,0.0,0.0,0.0,0.0,0.0,0.0,0.0,0.0,0.0,0.0,0.0,0.0,0.0,0.0,0.0,0.0,0.0,0.0,0.0,0.0,0.0,0.0,0.0,0.0,0.0,0.0,0.0,0.0,0.0,0.0,0.0,0.0,0.0,0.0,0.0,0.0,0.0,1.8089,1.8982,1.9776,2.0189,2.0223,2.0223,2.0223,1.9538,1.911,0.0,0.0,0.0,0.0,0.0,0.0,0.0,0.0,0.0,0.0,0.0,0.0,0.0,0.0,0.0,0.0,0.0,0.0,0.0,0.0,0.0,0.0,0.0,0.0,0.0,0.0,0.0,0.0,0.0,0.0,0.0,0.0,0.0,0.0,0.0,0.0,0.0,0.0,0.0,0.0,0.0,0.0,0.0,0.0,0.0,0.0,0.0,0.0,0.0,0.0,0.0,0.0,0.0,0.0,0.0,0.0,0.0,0.0,0.0,0.0,0.0,0.0,0.0,0.0,0.0,0.0,0.0,0.0,0.0,0.0,0.0,0.0,0.0,0.0,0.0,0.0,0.0,0.0,0.0,0.0,0.0,0.0,0.0,0.0,0.0,0.0,0.0,0.0,0.0,0.0,0.0,0.0,0.0,0.0,0.0,0.0,0.0,0.0,0.0,0.0,0.0,0.0,0.0,1.9559,2.1053,2.2178,2.2303,2.1689,2.1395,2.1805,2.0992,2.0058,1.9177,0.0,0.0,0.0,0.0,0.0,0.0,0.0,0.0,0.0,0.0,0.0,0.0,0.0,0.0,0.0,0.0,0.0,0.0,0.0,0.0,0.0,0.0,0.0,0.0,0.0,0.0,0.0,0.0,0.0,0.0,0.0,0.0,0.0,0.0,0.0,0.0,0.0,0.0,0.0,0.0,0.0,0.0,0.0,0.0,0.0,0.0,0.0,0.0,0.0,0.0,0.0,0.0,0.0,0.0,0.0,0.0,0.0,0.0,0.0,0.0,0.0,0.0,0.0,0.0,0.0,0.0,0.0,0.0,0.0,0.0,0.0,0.0,0.0,0.0,0.0,0.0,0.0,0.0,0.0,0.0,0.0,0.0,0.0,0.0,0.0,0.0,0.0,0.0,0.0,0.0,0.0,0.0,0.0,0.0,0.0,0.0,0.0,0.0,0.0,0.0,0.0,0.0,2.0797,2.2137,2.3197,2.334,2.2552,2.2161,2.2461,2.1762,2.0922,1.9995,0.0,0.0,0.0,0.0,0.0,0.0,0.0,0.0,0.0,0.0,0.0,0.0,0.0,0.0,0.0,0.0,0.0,0.0,0.0,0.0,0.0,0.0,0.0,0.0,0.0,0.0,0.0,0.0,0.0,0.0,0.0,0.0,0.0,0.0,0.0,0.0,0.0,0.0,0.0,0.0,0.0,0.0,0.0,0.0,0.0,0.0,0.0,0.0,0.0,0.0,0.0,0.0,0.0,0.0,0.0,0.0,0.0,0.0,0.0,0.0,0.0,0.0,0.0,0.0,0.0,0.0,0.0,0.0,0.0,0.0,0.0,0.0,0.0,0.0,0.0,0.0,0.0,0.0,0.0,0.0,0.0,0.0,0.0,0.0,0.0,0.0,0.0,0.0,0.0,0.0,0.0,0.0,0.0,0.0,0.0,0.0,0.0,0.0,0.0,0.0,0.0,0.0,2.1865,2.2606,2.3328,2.3687,2.3121,2.2676,2.2635,2.2249,2.1822,2.1395,0.0,0.0,0.0,0.0,0.0,0.0,0.0,0.0,0.0,0.0,0.0,0.0,0.0,0.0,0.0,0.0,0.0,0.0,0.0,0.0,0.0,0.0,0.0,0.0,0.0,0.0,0.0,0.0,0.0,0.0,0.0,0.0,0.0,0.0,0.0,0.0,0.0,0.0,0.0,0.0,0.0,0.0,0.0,0.0,0.0,0.0,0.0,0.0,0.0,0.0,0.0,0.0,0.0,0.0,0.0,0.0,0.0,0.0,0.0,0.0,2.7729,2.6479,0.0,0.0,0.0,0.0,0.0,0.0,0.0,0.0,0.0,0.0,0.0,0.0,0.0,0.0,0.0,0.0,0.0,0.0,0.0,0.0,0.0,0.0,0.0,0.0,0.0,0.0,0.0,0.0,0.0,0.0,0.0,0.0,0.0,0.0,0.0,0.0,0.0,0.0,0.0,0.0,2.2975,2.3807,2.4461,2.4536,2.4395,2.4163,2.381,2.3676,2.3371,2.282,2.2295,0.0,0.0,0.0,0.0,0.0,0.0,0.0,0.0,0.0,0.0,0.0,0.0,0.0,0.0,0.0,0.0,0.0,0.0,0.0,0.0,0.0,0.0,0.0,0.0,0.0,0.0,0.0,0.0,0.0,0.0,0.0,0.0,0.0,0.0,0.0,0.0,0.0,0.0,0.0,0.0,0.0,0.0,0.0,0.0,0.0,0.0,0.0,0.0,0.0,0.0,0.0,0.0,0.0,0.0,0.0,0.0,0.0,0.0,0.0,3.0343,2.8498,0.0,0.0,0.0,0.0,0.0,0.0,0.0,0.0,0.0,0.0,0.0,0.0,0.0,0.0,0.0,0.0,0.0,0.0,0.0,0.0,0.0,0.0,0.0,0.0,0.0,0.0,0.0,0.0,0.0,0.0,0.0,0.0,0.0,0.0,0.0,0.0,0.0,0.0,0.0,0.0,2.3591,2.4401,2.5046,2.5046,2.4705,2.437,2.4131,2.4108,2.3866,2.3373,2.2823,0.0,0.0,0.0,0.0,0.0,0.0,0.0,0.0,0.0,0.0,0.0,0.0,0.0,0.0,0.0,0.0,0.0,0.0,0.0,0.0,0.0,0.0,0.0,0.0,0.0,0.0,0.0,0.0,0.0,0.0,0.0,0.0,0.0,0.0,0.0,0.0,0.0,0.0,0.0,0.0,0.0,0.0,0.0,0.0,0.0,0.0,0.0,0.0,0.0,0.0,0.0,0.0,0.0,3.6478,3.677,3.6902,3.7484,3.7442,3.6712,3.3529,3.149,3.0341,2.9733,0.0,0.0,0.0,0.0,0.0,0.0,0.0,0.0,0.0,0.0,0.0,0.0,0.0,0.0,0.0,0.0,0.0,0.0,0.0,0.0,0.0,0.0,2.9389,3.008,3.067,3.0103,2.6747,0.0,0.0,0.0,0.0,0.0,0.0,0.0,0.0,0.0,0.0,0.0,2.4115,2.4959,2.5594,2.5594,2.4992,2.4624,2.4624,2.4624,2.4472,2.4131,2.3545,2.3018,0.0,0.0,0.0,0.0,0.0,0.0,0.0,0.0,0.0,0.0,0.0,0.0,0.0,0.0,0.0,0.0,0.0,0.0,0.0,0.0,0.0,0.0,0.0,0.0,0.0,0.0,0.0,0.0,0.0,0.0,0.0,0.0,3.6157,3.5763,0.0,0.0,0.0,0.0,0.0,0.0,0.0,0.0,0.0,0.0,0.0,0.0,0.0,3.5228,3.5298,3.6422,3.7033,3.7157,3.7728,3.7978,3.8019,3.8849,3.8755,3.8005,3.8241,0.0,3.4788,3.5136,0.0,0.0,0.0,0.0,0.0,0.0,0.0,0.0,0.0,0.0,0.0,0.0,0.0,0.0,0.0,0.0,0.0,0.0,0.0,0.0,0.0,0.0,3.1302,3.0979,3.1043,3.1043,3.048,2.941,2.8229,2.7103,2.639,2.5923,0.0,0.0,0.0,0.0,0.0,0.0,2.5167,2.6062,2.6773,2.6773,2.6692,2.6624,2.6624,2.6624,2.6598,2.6557,2.6025,2.5427,2.4795,2.4381,0.0,0.0,0.0,0.0,0.0,0.0,0.0,0.0,0.0,0.0,0.0,0.0,0.0,0.0,0.0,0.0,0.0,0.0,0.0,0.0,0.0,0.0,0.0,0.0,0.0,0.0,0.0,0.0,0.0,3.6046,3.6658,3.6294,3.6124,3.5613,0.0,0.0,0.0,0.0,0.0,0.0,0.0,0.0,0.0,3.6292,3.7005,3.7615,3.811,3.9035,3.9749,4.0201,4.0437,4.0717,4.1065,4.1456,4.1416,4.1065,4.1456,4.0563,3.873,3.7102,3.5267,3.3533,0.0,0.0,0.0,0.0,3.2368,3.2169,3.2654,3.2687,3.2472,3.2139,0.0,0.0,0.0,0.0,0.0,0.0,0.0,3.1116,3.1999,3.2397,3.2758,3.3386,3.358,3.3409,3.2649,3.2007,3.0962,2.8884,2.8201,2.7639,2.6484,2.6132,0.0,0.0,0.0,2.654,2.6382,2.7069,2.7564,2.7564,2.7564,2.741,2.7045,2.699,2.699,2.699,2.6499,2.6067,2.5777,2.5586,2.5206,0.0,0.0,0.0,0.0,0.0,0.0,0.0,0.0,0.0,0.0,0.0,0.0,0.0,0.0,0.0,0.0,0.0,0.0,0.0,0.0,0.0,0.0,0.0,0.0,0.0,0.0,0.0,0.0,3.7116,3.7645,3.6991,3.7291,3.7044,0.0,0.0,0.0,0.0,0.0,0.0,3.7372,3.7416,3.798,3.921,3.9904,4.0576,4.1291,4.1934,4.2584,4.3221,4.3221,4.3495,4.3927,4.3927,4.3797,4.363,4.363,4.2796,4.1212,3.8698,3.6697,3.5204,3.5204,3.4664,3.3886,3.4142,3.397,3.3697,3.4348,3.4399,3.4155,3.3859,3.3277,3.262,3.2056,0.0,0.0,0.0,0.0,3.2188,3.3493,3.3813,3.409,3.5257,3.5387,3.4966,3.3963,3.3484,3.2583,3.0379,2.9669,2.8923,2.7429,2.7274,0.0,2.584,2.6681,2.7406,2.7335,2.7947,2.8363,2.8363,2.8363,2.8182,2.7676,2.7643,2.7643,2.7643,2.7282,2.7032,2.7032,2.6957,2.6695,2.6248,0.0,0.0,0.0,0.0,0.0,0.0,0.0,0.0,0.0,0.0,0.0,0.0,0.0,0.0,0.0,0.0,0.0,0.0,0.0,0.0,0.0,0.0,0.0,0.0,0.0,0.0,0.0,0.0,0.0,3.8218,3.9607,0.0,0.0,0.0,0.0,4.005,4.0742,4.15,4.2311,4.2343,4.2674,4.3368,4.4059,4.4402,4.4488,4.5131,4.5493,4.5541,4.5541,4.5556,4.5588,4.5588,4.5189,4.4523,4.4523,4.3332,4.1398,4.1235,3.9452,3.6886,3.6886,3.5932,3.4664,3.5568,3.5877,3.597,3.6902,3.7193,3.7108,3.6511,3.5436,3.4362,3.4332,3.3885,0.0,0.0,3.4317,3.453,3.5366,3.5479,3.5444,3.5623,3.5093,3.4533,3.4474,3.344,3.2318,3.1543,3.0469,2.9653,2.9537,0.0,2.7525,2.682,2.7803,2.8378,2.7762,2.8685,2.9411,2.9411,2.9411,2.9411,2.938,2.938,2.938,2.938,2.9352,2.9338,2.9338,2.8839,2.8577,2.8549,2.7397,0.0,0.0,0.0,0.0,0.0,0.0,0.0,0.0,0.0,0.0,0.0,0.0,0.0,0.0,0.0,0.0,0.0,0.0,0.0,0.0,0.0,0.0,0.0,0.0,0.0,0.0,0.0,0.0,4.1174,4.2829,0.0,4.2275,4.2322,4.2268,4.1907,4.2525,4.3221,4.3949,4.4071,4.4408,4.5087,4.5463,4.5661,4.5661,4.5901,4.6028,4.6028,4.6028,4.6028,4.6012,4.5547,4.5161,4.4907,4.4411,4.3458,4.2249,4.224,4.0771,3.8552,3.8552,3.7922,3.7105,3.7426,3.7532,3.7582,3.7928,3.8033,3.7937,3.7309,3.6531,3.5938,3.6365,3.6404,3.6307,3.6557,3.662,3.6682,3.6993,3.7025,3.6856,3.6462,3.6135,3.5654,3.4763,3.4185,3.3556,3.2533,3.1556,3.0615,2.9827,2.9607,2.9199,2.818,2.8354,2.8857,2.9432,2.9493,2.9658,3.0104,3.0133,2.9981,2.9535,2.9504,2.9504,2.9504,2.9504,2.9504,2.9504,2.972,2.9661,2.9229,2.9202,2.8589,0.0,0.0,0.0,0.0,0.0,0.0,0.0,0.0,0.0,0.0,0.0,0.0,0.0,0.0,0.0,0.0,0.0,0.0,0.0,0.0,0.0,0.0,0.0,0.0,0.0,4.1768,4.3526,4.2798,4.4493,4.5368,4.4287,4.4601,4.472,4.4334,4.4949,4.5514,4.5947,4.6067,4.6311,4.6763,4.69,4.6968,4.6968,4.6968,4.6854,4.661,4.661,4.6463,4.6219,4.5714,4.5373,4.5114,4.461,4.38,4.2799,4.2799,4.1822,4.0255,4.013,3.9841,3.9497,3.9478,3.9478,3.9501,3.9305,3.9109,3.8793,3.8089,3.7497,3.71,3.7515,3.7735,3.7793,3.7793,3.7793,3.7806,3.7863,3.7835,3.763,3.691,3.6558,3.605,3.4867,3.442,3.4011,3.324,3.2477,3.1645,3.0655,3.0766,3.0655,2.9622,2.9435,2.9635,3.0246,3.0149,3.0189,3.0601,3.0881,3.0792,3.0329,3.0067,2.9907,2.9833,2.9676,2.9605,2.9605,3.0032,3.0073,2.9675,2.9871,2.9376,2.8151,0.0,0.0,0.0,0.0,0.0,0.0,0.0,0.0,0.0,0.0,0.0,0.0,0.0,0.0,0.0,0.0,0.0,0.0,0.0,0.0,0.0,0.0,0.0,4.0785,4.3051,4.4304,4.3008,4.46,4.5649,4.5228,4.6431,4.7306,4.7448,4.8098,4.8515,4.8515,4.8515,4.8515,4.8515,4.8515,4.8515,4.8515,4.8482,4.813,4.7412,4.7378,4.701,4.6293,4.6277,4.5875,4.5219,4.5185,4.4391,4.3043,4.3043,4.266,4.2029,4.1673,4.1592,4.1691,4.1575,4.1576,4.1596,4.1071,4.0463,3.9742,3.904,3.8382,3.7835,3.7863,3.7879,3.7863,3.7863,3.7863,3.7892,3.8032,3.7946,3.7684,3.709,3.6311,3.5524,3.4776,3.4114,3.3675,3.3633,3.3224,3.2695,3.2135,3.2053,3.1825,3.1171,3.1034,0.0,3.0167,3.0581,3.0976,3.1022,3.1599,3.1925,3.1813,3.1179,3.0717,3.0535,3.0075,2.9825,2.984,2.9855,2.9894,3.0038,2.9355,2.9006,2.9006,0.0,0.0,0.0,0.0,0.0,0.0,0.0,0.0,0.0,0.0,0.0,0.0,0.0,0.0,0.0,0.0,0.0,0.0,0.0,0.0,0.0,4.212,4.3118,4.2943,4.4854,4.6405,4.6651,4.7638,4.8547,4.9078,4.8541,4.8385,4.8952,4.8684,4.8515,4.8515,4.8627,4.8707,4.8707,4.8815,4.8877,4.8877,4.8324,4.7953,4.775,4.7211,4.687,4.6621,4.6098,4.5744,4.5525,4.5014,4.4438,4.3943,4.3943,4.3839,4.3558,4.2332,4.1901,4.1901,4.1869,4.1566,4.1103,4.0943,4.0112,3.9131,3.9366,3.9056,3.8707,3.9162,3.9391,3.948,3.948,3.948,3.948,3.9516,3.9096,3.8487,3.7795,3.706,3.6285,3.5495,3.5178,3.4934,3.4536,3.4342,3.402,3.3303,3.3172,3.3109,3.2903,3.2019,3.1473,3.1779,3.0791,3.0428,3.1396,3.1365,3.1465,3.191,3.1319,3.0912,3.087,3.0292,3.014,3.0652,3.0682,3.0682,3.0721,2.9925,2.9341,0.0,0.0,0.0,0.0,0.0,0.0,0.0,0.0,0.0,0.0,0.0,0.0,0.0,0.0,0.0,0.0,0.0,0.0,0.0,0.0,0.0,0.0,4.4294,4.5352,4.5728,4.676,4.7633,4.8145,4.8659,4.9222,4.9853,4.9147,4.8843,4.9295,4.8957,4.8704,4.8704,4.8815,4.8894,4.8894,4.894,4.8849,4.8545,4.8091,4.7584,4.6989,4.6549,4.6177,4.5855,4.5415,4.5229,4.5213,4.4801,4.4542,4.444,4.444,4.444,4.431,0.0,0.0,0.0,0.0,4.2236,4.1795,4.1203,4.0508,3.9811,3.9847,3.9654,3.9463,3.9867,4.0037,4.0096,4.0096,4.0096,4.0096,4.0096,3.9554,3.8802,3.8091,3.733,3.6592,3.5769,3.56,3.5509,3.5201,3.5131,0.0,3.4536,3.4078,3.3655,3.3349,3.2377,3.1718,3.1775,3.0832,3.0465,3.1239,3.1611,3.1919,3.2255,3.1495,0.0,0.0,0.0,2.9506,3.0094,3.0359,0.0,0.0,0.0,0.0,0.0,0.0,0.0,0.0,3.0504,3.0398,0.0,0.0,0.0,0.0,0.0,0.0,0.0,0.0,0.0,0.0,0.0,0.0,0.0,0.0,0.0,0.0,4.6331,4.7523,4.8383,4.8356,4.826,4.826,4.8436,4.866,4.8919,4.8851,4.8897,4.912,4.9052,4.9001,4.9001,4.9001,0.0,0.0,0.0,4.8578,4.7889,4.772,4.6993,4.5703,4.5618,4.5229,4.4615,4.4615,4.4615,4.4615,4.4615,4.4615,4.4615,4.4615,4.4615,4.457,4.427,4.4241,4.4254,4.3485,4.3166,4.2924,4.1642,0.0,0.0,4.0316,4.0096,4.0096,4.0096,4.0096,4.0096,4.0096,4.0096,4.0096,4.0096,3.9503,3.87,3.8058,3.7263,3.6451,3.5752,3.56,3.56,3.56,3.56,3.56,3.56,3.4726,3.3828,3.3193,3.2436,3.1704,3.104,3.0849,3.082,3.0982,3.2069,0.0,3.2844,3.1849,3.1362,3.1646,2.9812,2.8931,2.9344,2.9897,3.0396,3.0942,3.106,3.169,3.2878,3.3079,3.3136,3.3072,3.2303,3.1987,0.0,0.0,0.0,0.0,0.0,0.0,0.0,0.0,0.0,0.0,0.0,0.0,0.0,0.0,0.0,4.5742,4.6741,4.7632,4.8383,4.8595,4.8675,4.8675,4.8707,4.902,4.9767,4.9325,4.9224,4.983,4.934,4.9001,4.9001,4.9001,4.9001,4.9001,4.8443,4.8024,4.7889,4.6735,4.5991,4.5703,4.5094,0.0,4.4615,4.4615,4.4615,4.4615,4.4615,4.4615,4.4615,4.4615,4.4615,4.4598,4.4514,4.4514,4.4457,4.3652,4.2976,4.2361,4.1508,4.0798,4.0299,4.0146,4.0096,4.0096,4.0096,4.0096,0.0,4.0096,4.0096,4.0096,4.0096,3.9106,3.8091,3.7939,3.6857,3.5785,3.5633,3.56,3.56,3.56,3.56,3.56,3.56,3.4942,3.4337,3.4203,3.3067,3.2161,3.2026,3.1162,3.099,3.2138,3.2157,3.2538,3.3654,3.3055,3.2636,3.2708,3.2305,3.2112,3.2208,3.2304,3.2457,3.2562,3.242,3.2295,3.2196,3.3532,3.4029,3.3624,3.3037,3.2686,0.0,0.0,0.0,0.0,0.0,0.0,0.0,0.0,0.0,0.0,0.0,4.3297,4.4162,0.0,4.5971,4.7245,4.7824,4.8238,4.8702,4.8846,4.8863,4.8818,4.8863,4.906,4.9509,4.9221,4.9154,4.9509,4.9204,4.9001,4.9001,4.8663,4.846,4.846,4.7733,4.7175,4.6819,4.6075,4.5517,4.5145,4.4784,4.4615,4.4615,4.4615,4.4615,4.4615,4.4615,4.4615,4.4615,4.4615,4.4615,4.4615,4.4615,4.4615,4.4513,4.3707,4.2929,4.2185,4.1457,4.0713,4.0096,4.0096,4.0096,4.0096,4.0096,4.0096,4.0096,4.0096,4.0096,4.0096,4.0096,3.9005,3.7905,3.7905,3.6715,3.56,3.56,3.56,3.56,3.56,3.56,3.56,3.56,3.4996,3.437,3.4015,3.3021,3.2175,3.1802,3.1214,3.1256,3.234,3.2563,3.3077,3.4164,3.3938,3.339,3.256,3.2942,3.3102,3.2856,3.3079,3.3359,3.3746,3.3645,3.3684,3.3786,3.4639,3.4936,3.4694,3.4426,3.4266,0.0,0.0,0.0,0.0,0.0,0.0,0.0,4.2319,4.2949,4.2949,4.3645,4.4729,4.6062,4.6457,4.7113,4.8553,4.8801,4.8925,4.9138,4.9168,4.9168,4.9152,4.9077,4.9001,4.9001,4.9001,4.9001,4.9001,4.9001,4.9001,4.9001,4.8308,4.7889,4.7889,4.7157,4.6452,4.5858,4.5801,4.5465,4.4896,4.4803,4.4748,4.4748,4.4654,4.4615,4.4615,4.4615,4.4615,4.4598,4.4418,4.4378,4.4361,4.4225,4.4158,4.409,4.3436,4.2726,4.1965,4.1238,4.0595,4.0096,4.0096,4.0096,4.0096,4.0096,4.0096,4.0096,4.0096,4.0096,4.0096,4.0096,3.9005,3.7905,3.7905,3.6715,3.56,3.56,3.56,3.56,3.56,3.56,3.56,3.56,3.4996,3.4252,3.3508,3.2763,3.2039,3.1275,3.1326,3.1698,3.2429,3.3169,3.3914,3.4641,3.4709,3.4153,3.2774,3.3406,3.3662,3.3278,3.3619,3.4117,3.4692,3.4709,3.5013,3.56,3.5622,3.5644,3.5644,3.5667,3.5644,4.0573,4.0199,4.0199,4.0282,4.1269,4.2274,0.0,4.3462,4.444,4.444,4.569,4.6862,4.7028,4.7879,4.8553,4.8784,4.8894,4.9168,4.9715,4.9803,4.9971,5.0425,4.961,4.9001,4.9001,4.9001,4.9001,4.9001,4.9001,4.9001,4.9001,4.8308,4.7889,4.7889,4.7005,4.6477,4.6409,4.6178,4.6005,4.5918,4.5433,4.5214,4.5214,4.4786,4.4615,4.4615,4.4615,4.4615,4.4547,4.3826,4.3511,4.346,4.2811,4.2557,4.254,4.2455,4.1965,4.1221,4.0485,4.018,4.0096,4.0096,4.0096,4.0096,4.0096,4.0096,4.0096,4.0096,4.0096,4.0096,4.0096,3.9005,3.7905,3.7905,3.6715,3.56,3.56,3.56,3.56,3.56,3.56,3.56,3.56,3.4996,3.4252,3.3508,3.2763,3.2039,3.1275,3.1769,3.2462,3.3203,3.3931,3.4675,3.5397,3.5481,3.5386,3.5211,3.5301,3.5324,3.5279,3.5324,3.538,3.5481,3.5481,3.5515,3.56,3.5728,3.5773,3.5773,3.5888,3.5822,4.1257,4.0696,4.0707,4.1955,4.2688,4.335,4.4224,4.5235,4.5963,4.5963,4.6935,4.7826,4.7922,4.8442,4.8849,4.8894,4.897,4.9199,4.9803,4.989,5.0085,5.0643,5.0276,4.9982,4.9982,4.9982,4.9982,4.9982,4.9982,4.9792,4.9331,4.8588,4.7966,4.7489,4.6717,4.6272,4.6272,4.615,4.6098,4.6116,4.5875,4.5767,4.5749,4.5554,4.5311,4.4964,4.42,4.391,4.3842,4.3081,4.276,4.2726,4.2422,4.2033,4.1711,4.2134,4.183,4.117,4.0849,4.0468,4.0096,4.0096,4.0096,4.0096,4.0096,4.0096,4.0096,4.0096,4.0096,4.0096,4.0096,3.9005,3.7905,3.7905,3.6715,3.56,3.56,3.56,3.56,3.56,3.56,3.56,3.56,3.5329,3.4895,3.415,3.3055,3.2344,3.2459,3.2378,3.275,3.3914,3.4709,3.5245,3.5566,3.56,3.56,3.56,3.56,3.56,3.56,3.56,3.56,3.56,3.5684,3.5728,3.5728,3.5844,3.5927,3.591,3.5975,3.6171,4.148,4.1193,4.1392,4.3151,4.4045,4.4804,4.5864,4.6676,4.7206,4.7206,4.7781,4.8324,4.8483,4.869,4.8894,4.897,4.9001,4.9273,4.9999,5.0113,5.0377,5.1113,5.0996,5.0961,5.1173,5.0885,5.0697,5.0697,5.0697,5.0364,4.9539,4.8793,4.8047,4.7232,4.6625,4.6334,4.6334,4.6454,4.6525,4.6525,4.6382,4.6334,4.6293,4.5789,4.5378,4.4932,4.3647,4.3115,4.3047,4.2303,4.1999,4.1965,4.1762,4.1356,4.095,4.1491,4.1356,4.0899,4.0899,4.057,4.0096,4.0096,4.0096,4.0096,4.0096,4.0096,4.0096,4.0096,4.0096,4.0045,3.9859,3.8853,3.7855,3.7652,3.6586,3.56,3.56,3.56,3.56,3.56,3.56,3.56,3.56,3.56,3.5414,3.4878,3.3711,3.3038,3.3372,3.3102,3.3393,3.4675,3.5278,3.56,3.56,3.56,3.56,3.56,3.56,3.56,3.56,3.56,3.5622,3.5644,3.5751,3.5817,3.5861,3.5993,3.6058,3.6058,3.6306,3.6701,4.1243,4.1922,4.2605,4.34,4.5218,4.6808,4.6858,4.7438,4.7968,4.7968,4.826,4.8483,4.8515,4.8784,4.9001,4.9001,4.9001,4.9406,5.0507,5.0697,5.1113,5.2298,5.1746,5.1583,5.2361,5.1388,5.0697,5.0697,5.0697,5.0364,4.9539,4.8793,4.8047,4.7232,4.698,4.6886,4.6886,4.7385,4.7657,4.7636,4.7129,4.6886,4.6804,4.505,4.4259,4.4156,4.289,4.232,4.2269,4.1542,4.1238,4.117,4.0468,4.0146,4.0146,4.0163,4.0146,4.013,4.013,4.013,4.0096,4.0096,4.0096,4.0096,4.0096,4.0096,4.0096,4.0096,4.0096,3.9943,3.9208,3.8464,3.7719,3.7015,3.6197,3.56,3.56,3.56,3.56,3.56,3.56,3.56,3.56,3.56,3.5583,3.5566,3.4928,3.4167,3.3491,3.3998,3.4726,3.5481,3.5583,3.56,3.56,3.56,3.56,3.56,3.56,3.56,3.56,3.56,3.5667,3.5795,3.5795,3.5861,3.5997,3.6122,3.6187,3.6204,3.7068,3.7456,4.1926,4.2655,4.3631,4.5367,4.6361,4.7023,4.752,4.7438,4.7272,4.7272,4.716,4.7027,4.7027,4.7723,4.8291,4.8291,4.8697,4.9406,5.0535,5.0697,5.1139,5.2364,5.2263,5.219,5.2462,5.1652,5.1335,5.1855,5.1407,5.0737,4.9948,4.9159,4.837,4.7541,4.7467,4.7428,4.7428,4.7615,4.7717,4.7717,4.7511,4.7158,4.6596,4.5635,4.4911,4.4313,4.2711,4.2029,4.1953,4.09,4.046,4.0468,4.0197,4.0096,4.0096,4.0096,4.0096,4.0096,4.0096,4.0096,4.0096,4.0096,4.0096,4.0096,4.0096,4.0096,4.0096,4.0096,4.0096,4.0045,3.9791,3.8819,3.7838,3.7584,3.6552,3.56,3.56,3.56,3.56,3.56,3.56,3.56,3.56,3.56,3.56,3.56,3.538,3.4962,3.4218,3.4776,3.5312,3.5566,3.56,3.56,3.56,3.56,3.56,3.56,3.56,3.56,3.56,3.5706,3.5751,3.5795,3.5971,3.6079,3.6122,3.6212,3.6276,3.6293,3.7111,3.7771,4.2605,4.3615,4.4804,4.6477,4.7106,4.7355,4.7554,4.7239,4.6825,4.656,4.6348,4.6229,4.629,4.6905,4.7507,4.7855,4.8308,4.9099,5.05,5.0697,5.1139,5.2364,5.2245,5.2172,5.2462,5.1502,5.1194,5.2009,5.1574,5.0814,4.9727,4.9184,4.8529,4.7735,4.7717,4.7717,4.7717,4.7717,4.7572,4.7283,4.7283,4.6866,4.6031,4.5251,4.4585,4.4007,4.2456,4.1659,4.145,4.0664,4.0254,4.0096,4.0096,4.0096,4.0096,4.0096,4.0096,4.0096,4.0096,4.0096,4.0096,4.0096,4.0096,4.0096,4.0096,4.0096,4.0096,4.0096,4.0096,4.0045,3.9791,3.8988,3.8227,3.7973,3.6941,3.6028,3.6028,3.5785,3.56,3.56,3.56,3.56,3.56,3.56,3.56,3.56,3.56,3.543,3.4962,3.5318,3.56,3.56,3.56,3.56,3.56,3.56,3.56,3.56,3.56,3.56,3.56,3.5728,3.5817,3.5883,3.6079,3.6208,3.6251,3.628,3.6301,3.6335,3.7387,3.8151,4.3267,4.4738,4.603,4.6775,4.7454,4.7769,4.7057,4.6841,4.6576,4.5881,4.5887,4.6054,4.6143,4.6374,4.681,4.7703,4.7889,4.8604,5.043,5.0697,5.1139,5.2364,5.1828,5.1647,5.2426,5.1067,5.0474,5.1176,5.1194,5.0506,4.8981,4.8855,4.8475,4.7735,4.7717,4.7717,4.7717,4.7663,4.7246,4.645,4.645,4.6015,4.5198,4.3981,4.34,4.3307,4.2078,4.1276,4.0873,4.0825,4.0531,4.0121,4.0096,4.0096,4.0096,4.0096,4.0096,4.0096,4.0096,4.0096,4.0096,4.0096,4.0096,4.0096,4.0096,4.0096,4.0096,4.0096,4.0096,3.9943,3.9225,3.9022,3.8819,3.8125,3.7381,3.6846,3.6812,3.6197,3.565,3.56,3.56,3.56,3.56,3.56,3.56,3.56,3.56,3.56,3.56,3.56,3.56,3.56,3.56,3.56,3.56,3.56,3.56,3.56,3.56,3.56,3.56,3.5751,3.5883,3.5997,3.6144,3.6251,3.6301,3.6301,3.6318,3.6404,3.7887,3.8612,4.4175,4.55,4.6792,4.7537,4.7454,4.7123,4.6941,4.6046,4.5202,4.5003,4.4797,4.4608,4.465,4.5791,4.6807,4.7039,4.8003,4.9185,5.05,5.0697,5.1139,5.2364,5.2317,5.2263,5.248,5.1574,5.0836,5.0456,4.9854,4.9347,4.8909,4.8312,4.7895,4.7717,4.7717,4.7717,4.7717,4.712,4.6413,4.5617,4.5617,4.5182,4.4385,4.407,4.3595,4.2981,4.2308,4.1952,4.1782,4.1088,4.0731,4.058,4.0246,4.0096,4.0096,4.0096,4.0096,4.0096,4.0096,4.0096,4.0096,4.0096,4.0096,4.0096,4.0096,4.0096,4.0096,4.0096,4.0096,4.0062,3.9876,3.9419,3.8937,3.8751,3.8159,3.7466,3.6931,3.6643,3.6315,3.5718,3.56,3.56,3.56,3.56,3.56,3.56,3.56,3.56,3.56,3.56,3.56,3.56,3.56,3.56,3.56,3.56,3.56,3.56,3.56,3.56,3.56,3.5822,3.5954,3.5997,3.6191,3.628,3.6301,3.6301,3.6611,3.7236,3.8168,3.8888,4.5367,4.651,4.7404,4.7487,4.7206,4.6643,4.5682,4.5052,4.4506,4.3876,4.3885,4.4027,4.4097,4.524,4.6309,4.6735,4.8037,4.9406,5.0535,5.0996,5.1546,5.24,5.2498,5.2498,5.2498,5.1448,5.0601,5.013,4.9347,4.8746,4.8384,4.7953,4.7717,4.7717,4.7717,4.7536,4.7192,4.6377,4.5562,4.4765,4.4765,4.4349,4.357,4.357,4.3317,4.2882,4.2614,4.2259,4.1846,4.1321,4.0855,4.0476,4.0196,4.0096,4.0096,4.0096,4.0096,4.0096,4.0096,4.0096,4.0096,4.0096,4.0096,4.0096,4.0096,4.0096,4.0096,4.0096,4.0096,4.0096,4.0096,3.9791,3.9486,3.9486,3.892,3.8261,3.7838,3.7499,3.7144,3.6705,3.6349,3.6129,3.6129,3.5819,3.56,3.56,3.56,3.56,3.56,3.56,3.56,3.56,3.56,3.56,3.56,3.56,3.56,3.56,3.56,3.5622,3.5706,3.5888,3.6019,3.6101,3.6233,3.6473,3.6818,3.6818,3.7215,3.8013,3.8732,3.9301,4.6527,4.7371,4.7703,4.7057,4.6742,4.6079,4.4045,4.4026,4.4042,4.2754,4.3194,4.3869,4.4051,4.4817,4.5732,4.6638,4.7953,4.9257,5.0425,5.1175,5.182,5.2323,5.2387,5.2374,5.2335,5.0977,5.0075,4.9945,4.9202,4.8438,4.7732,4.7717,4.7663,4.7533,4.7554,4.7102,4.6196,4.549,4.4729,4.3932,4.3932,4.357,4.2901,4.2901,4.2901,4.29,4.2844,4.234,4.1569,4.1459,4.0949,4.0196,4.0121,4.0096,4.0096,4.0096,4.0096,4.0096,4.0096,4.0096,4.0096,4.0096,4.0096,4.0096,4.0096,4.0096,4.0096,4.0096,4.0096,4.0096,4.0096,4.0096,4.0096,4.0096,3.9622,3.9106,3.9005,3.8413,3.7905,3.7905,3.7381,3.6948,3.6948,3.6366,3.5904,3.5904,3.5819,3.5752,3.5752,3.5667,3.56,3.56,3.56,3.56,3.56,3.56,3.56,3.56,3.5622,3.5667,3.5773,3.5949,3.6062,3.6165,3.6358,3.6801,3.7512,3.7599,3.8047,3.875,3.9388,3.975,4.6659,4.699,4.7057,4.6924,4.598,4.4821,4.3813,4.3218,4.2816,4.2539,4.2865,4.3349,4.398,4.4949,4.5911,4.6667,4.753,4.8562,4.9844,5.0166,5.0634,5.1637,5.1761,5.1682,5.1534,5.0655,4.9818,4.9166,4.8348,4.7862,4.7717,4.7717,4.7409,4.6739,4.6721,4.5997,4.453,4.4385,4.3896,4.3118,4.3118,4.3046,4.2901,4.2901,4.2901,4.2882,4.2478,4.2218,4.2032,4.123,4.0825,4.0652,4.0254,4.0096,4.0096,4.0096,4.0096,4.0096,4.0096,4.0096,4.0096,4.0096,4.0096,4.0096,4.0096,4.0096,4.0096,4.0096,4.0096,4.0096,4.0096,4.0096,4.0096,4.0096,4.0011,3.974,3.9123,3.8413,3.7905,3.7905,3.7804,3.7719,3.7719,3.7601,3.7516,3.7516,3.6975,3.6586,3.6586,3.6011,3.56,3.56,3.56,3.56,3.56,3.56,3.56,3.56,3.5689,3.5728,3.5644,3.5971,3.6122,3.6036,3.687,3.7374,3.7512,3.8116,3.8784,3.9508,3.9629,4.0043,4.6692,4.6891,4.6808,4.6411,4.55,4.4307,4.2816,4.2473,4.2274,4.1558,4.2204,4.2907,4.2947,4.437,4.5419,4.5083,4.665,4.8078,4.8626,4.9401,5.031,5.1475,5.1219,5.1065,5.1276,5.018,4.9329,4.8927,4.8149,4.7717,4.7717,4.7717,4.7337,4.654,4.6087,4.5291,4.4095,4.3679,4.3262,4.2901,4.2901,4.2901,4.2901,4.2901,4.2901,4.2863,4.2398,4.2074,4.1782,4.1088,4.0676,4.041,4.0196,4.0096,4.0096,4.0096,4.0096,4.0096,4.0096,4.0096,4.0096,4.0096,4.0096,4.0096,4.0096,4.0096,4.0096,4.0096,4.0096,4.0096,4.0096,4.0096,4.0096,4.0096,4.0096,4.0011,3.9656,3.9276,3.9039,3.9039,3.8734,3.8464,3.8464,3.8159,3.7905,3.7905,3.7601,3.7364,3.7364,3.7043,3.6654,3.6265,3.6214,3.6214,3.6214,3.6586,3.6637,3.6248,3.6649,3.6875,3.6847,3.7092,3.7244,3.7244,3.7782,3.8249,3.8651,3.8991,3.956,4.0325,4.0325,4.0549,4.6692,4.6775,4.6527,4.593,4.5119,4.3926,4.1889,4.1844,4.1922,4.0674,4.1433,4.2239,4.196,4.3423,4.4473,4.3781,4.5652,4.7301,4.7631,4.8718,4.9929,5.1105,5.0637,5.0327,5.0651,4.9595,4.8775,4.8489,4.7835,4.7446,4.7446,4.7446,4.7011,4.6015,4.5363,4.4657,4.3842,4.3227,4.2844,4.275,4.275,4.275,4.275,4.275,4.275,4.2711,4.2259,4.1782,4.1303,4.0832,4.0434,4.0096,4.0096,4.0096,4.0096,4.0096,4.0096,4.0096,4.0096,4.0096,4.0096,4.0096,4.0096,4.0096,4.0096,4.0096,4.0096,4.0096,4.0096,4.0096,4.0096,4.0096,4.0096,4.0096,4.0096,4.0096,4.0096,4.0096,4.0096,4.0096,3.9639,3.9225,3.9225,3.8751,3.8379,3.8379,3.8244,3.8142,3.8142,3.8007,3.7736,3.732,3.7134,3.7049,3.7049,3.7567,3.7652,3.7083,3.7591,3.7943,3.798,3.812,3.8236,3.8322,3.8637,3.9066,3.9652,3.9871,4.0267,4.0912,4.0912,4.0912,4.6692,4.6411,4.5864,4.5814,4.4738,4.3284,4.1728,4.1458,4.1293,4.0531,4.0602,4.1032,4.1759,4.2181,4.2867,4.4265,4.4733,4.5596,4.759,4.7979,4.8554,4.989,4.9779,4.9328,4.8745,4.8813,4.8391,4.7178,4.6798,4.6613,4.6613,4.6613,4.5906,4.4367,4.424,4.3824,4.3028,4.2955,4.2692,4.2259,4.2259,4.2259,4.2259,4.2259,4.2259,4.2239,4.1782,4.1298,4.0825,4.0353,4.0146,4.0096,4.0096,4.0096,4.0096,4.0096,4.0096,4.0096,4.0096,4.0096,4.0096,4.0096,4.0096,4.0096,4.0096,4.0096,4.0096,4.0096,4.0096,4.0096,4.0096,4.0096,4.0096,4.0096,4.0096,4.0096,4.0096,4.0096,4.0096,4.0096,4.0045,3.9994,3.9994,3.9943,3.991,3.991,3.9326,3.8886,3.8886,3.8311,3.8125,3.8717,3.8193,3.7804,3.7804,3.7872,3.7872,3.7804,3.7916,3.7956,3.7912,3.8091,3.8167,3.8033,3.895,3.9461,3.9512,4.0375,4.0825,4.0912,4.0912,4.0912,4.5935,4.6013,4.5798,4.5798,4.4705,4.3201,4.1756,4.1409,4.1094,3.9978,4.0149,4.0479,4.0454,4.1301,4.2074,4.2372,4.3247,4.435,4.572,4.6312,4.724,4.9022,4.8325,4.7883,4.8355,4.7681,4.6802,4.5835,4.5909,4.5598,4.4668,4.5348,4.5254,4.4132,4.384,4.3286,4.2496,4.2478,4.2239,4.1782,4.2074,4.2053,4.1782,4.1782,4.1782,4.176,4.1276,4.0972,4.0754,4.0279,4.0096,4.0096,4.0096,4.0096,4.0096,4.0096,4.0096,4.0096,4.0096,4.0096,4.0096,4.0096,4.0096,4.0096,4.0096,4.0096,4.0096,4.0096,4.0096,4.0096,4.0096,4.0096,4.0096,4.0096,4.0096,4.0096,4.0096,4.0096,4.0096,4.0096,4.0096,4.0096,4.0096,4.0096,4.0096,4.0096,3.9859,3.9673,3.9673,3.9419,3.9351,3.9639,3.8988,3.8565,3.8565,3.8954,3.9022,3.8582,3.8986,3.9265,3.9249,3.938,3.9435,3.9387,3.987,4.0096,4.0096,4.0477,4.0655,4.0655,4.0745,4.0793,4.5377,4.5632,4.5467,4.5467,4.4373,4.2936,4.1707,4.1259,4.0829,3.9829,4.0044,4.0271,3.9907,4.0959,4.1774,4.1398,4.2483,4.3775,4.4773,4.5179,4.5994,4.7666,4.6849,4.6435,4.7203,4.6228,4.5383,4.5027,4.4862,4.4338,4.3237,4.3823,4.3978,4.3558,4.322,4.2706,4.2011,4.1994,4.176,4.1298,4.163,4.1609,4.1281,4.1281,4.1281,4.1258,4.0949,4.0707,4.058,4.0246,4.0096,4.0096,4.0096,4.0096,4.0096,4.0096,4.0096,4.0096,4.0096,4.0096,4.0096,4.0096,4.0096,4.0096,4.0096,4.0096,4.0096,4.0096,4.0096,4.0096,4.0096,4.0096,4.0096,4.0096,4.0096,4.0096,4.0096,4.0096,4.0096,4.0096,4.0096,4.0096,4.0096,4.0096,4.0096,4.0096,4.0096,4.0096,4.0096,4.0096,4.0096,4.0096,3.9656,3.9326,3.9326,3.9808,3.9893,3.9343,3.9808,4.0096,4.0096,4.0188,4.0238,4.0238,4.0362,4.0436,4.0436,4.0485,4.051,4.051,4.0583,4.0648,4.5228,4.5251,4.4705,4.4705,4.3595,4.2307,4.1562,4.0878,4.0409,4.0393,4.0393,4.0437,4.0573,4.131,4.1931,4.2061,4.282,4.3961,4.5483,4.506,4.4902,4.5635,4.5487,4.5142,4.4671,4.4384,4.4428,4.4951,4.3599,4.2725,4.2703,4.1965,4.1756,4.2216,4.2216,4.199,4.1503,4.1503,4.1276,4.0802,4.0825,4.0825,4.0802,4.0802,4.0802,4.0802,4.0802,4.0531,4.0113,4.0096,4.0096,4.0096,4.0096,4.0096,4.0096,4.0096,4.0096,4.0096,4.0096,4.0096,4.0096,4.0096,4.0096,4.0096,4.0096,4.0096,4.0096,4.0096,4.0096,4.0096,4.0096,4.0096,4.0096,4.0096,4.0096,4.0096,4.0096,4.0096,4.0096,4.0096,4.0096,4.0096,4.0096,4.0096,4.0096,4.0096,4.0096,4.0096,4.0096,4.0096,4.0096,4.0096,4.0096,4.0096,4.0096,4.0096,4.0096,4.0096,4.0096,4.0096,4.0096,4.0096,4.0096,4.0096,4.0238,4.0305,4.0305,4.0436,4.051,4.051,4.051,4.051,4.3753,4.4489,4.4688,4.4688,4.3976,4.292,4.1662,4.164,4.1558,4.0608,4.0763,4.0973,4.0519,4.0838,4.1328,4.1869,4.2355,4.3183,4.4722,4.475,4.4699,4.4936,4.4856,4.4759,4.4598,4.4024,4.3515,4.3168,4.2524,4.1944,4.1424,4.1466,4.1569,4.1717,4.141,4.1162,4.1019,4.1019,4.0802,4.0328,4.0652,4.0628,4.0328,4.0328,4.0328,4.0328,4.0328,4.0246,4.0096,4.0096,4.0096,4.0096,4.0096,4.0096,4.0096,4.0096,4.0096,4.0096,4.0096,4.0096,4.0096,4.0096,4.0096,4.0096,4.0096,4.0096,4.0096,4.0096,4.0096,4.0096,4.0096,4.0096,4.0096,4.0096,4.0096,4.0096,4.0096,4.0096,4.0096,4.0096,4.0096,4.0096,4.0096,4.0096,4.0096,4.0096,4.0096,4.0096,4.0096,4.0096,4.0096,4.0096,4.0096,4.0096,4.0096,4.0096,4.0096,4.0096,4.0096,4.0096,4.0096,4.0096,4.0096,4.0096,4.0138,4.0163,4.0163,4.0213,4.0288,4.0362,4.0362,4.0412,4.3068,4.3744,4.3943,4.4224,4.3744,4.2936,4.2009,4.1972,4.1939,4.1309,4.1524,4.1607,4.0912,4.1227,4.1613,4.1513,4.2166,4.3047,4.4012,4.4147,4.4147,4.4147,4.3893,4.3972,4.4547,4.3876,4.3071,4.2354,4.1887,4.1319,4.0583,4.0808,4.0978,4.0978,4.0855,4.0707,4.0531,4.0531,4.0402,4.0096,4.0402,4.036,4.0096,4.0096,4.0096,4.0096,4.0096,4.0096,0.0,4.0096,4.0096,4.0096,4.0096,4.0096,4.0096,4.0096,4.0096,4.0096,4.0096,4.0096,4.0096,4.0096,4.0096,4.0096,4.0096,4.0096,4.0096,4.0096,4.0096,4.0096,4.0096,4.0096,4.0096,4.0096,4.0096,4.0096,4.0096,4.0096,4.0096,4.0096,4.0096,4.0096,4.0096,4.0096,4.0096,4.0096,4.0096,4.0096,4.0096,4.0096,4.0096,4.0096,4.0096,4.0096,4.0096,4.0096,4.0096,4.0096,4.0096,4.0096,4.0096,4.0096,4.0096,4.0096,4.0096,4.0096,4.0096,4.0096,4.0138,4.0213,4.0213,4.0263,0.0,4.3023,4.2738,4.3416,4.3069,4.2555,4.2506,4.1993,0.0,4.2357,4.2489,4.2258,4.1529,4.2194,4.2373,4.1017,4.2217,4.3308,4.3308,4.3308,4.3341,4.346,4.2828,4.2946,4.4462,4.3876,4.3071,4.2354,4.1627,4.0882,4.0146,4.0096,4.0096,4.0096,4.0531,4.0531,4.0096,4.0096,4.0096,4.0096,4.0096,4.0096,4.0096,4.0096,4.0096,4.0096,4.0096,4.0096,4.0096,4.0096,4.0096,4.0096,4.0096,4.0096,4.0096,4.0096,4.0096,4.0096,4.0096,4.0096,4.0096,4.0096,4.0096,4.0096,4.0096,4.0096,4.0096,4.0096,4.0096,4.0096,4.0096,4.0096,4.0096,4.0096,4.0096,4.0096,4.0096,4.0096,4.0096,4.0096,4.0096,4.0096,4.0096,4.0096,4.0096,4.0096,4.0096,4.0096,4.0096,4.0096,4.0096,4.0096,4.0096,4.0096,4.0096,4.0096,4.0096,4.0096,4.0096,4.0096,4.0096,4.0096,4.0096,4.0096,4.0096,4.0096,4.0096,4.0096,4.0096,4.0096,4.0096,4.0096,4.1518,0.0,4.3367,4.3549,4.3466,4.3184,0.0,4.2787,4.2969,4.2572,4.2489,4.2258,4.1529,4.1266,4.1082,4.0822,4.1715,4.2439,4.2557,4.2557,4.2997,4.4164,4.3623,4.3538,4.4513,4.3876,4.3071,4.2354,4.1627,4.0882,4.0146,4.0096,4.0096,4.0096,4.0221,4.0221,4.0096,4.0096,4.0096,4.0096,4.0096,4.0096,4.0096,4.0096,4.0096,4.0096,4.0096,4.0096,4.0096,4.0096,4.0096,4.0096,4.0096,4.0096,4.0096,4.0096,4.0096,4.0096,4.0096,4.0096,4.0096,4.0096,4.0096,4.0096,4.0096,4.0096,4.0096,4.0096,4.0096,4.0096,4.0096,4.0096,4.0096,4.0096,4.0096,4.0096,4.0096,4.0096,4.0096,4.0096,4.0096,4.0096,4.0096,4.0096,4.0096,4.0096,4.0096,4.0096,4.0096,4.0096,4.0096,4.0096,4.0096,4.0096,4.0096,4.0096,4.0096,4.0096,4.0096,4.0096,4.0096,4.0096,4.0096,4.0096,4.0096,4.0096,4.0096,4.0096,4.0096,4.0096,4.0096,4.0096,4.1262,4.2266,4.3168,4.3515,4.3598,4.3499,4.3085,4.3035,4.2969,4.2572,4.2224,4.1761,4.1077,4.0795,4.0618,4.0347,4.1086,4.197,4.2682,4.2811,4.325,4.4462,4.3893,4.3724,4.453,4.4198,4.3487,4.2371,4.1931,4.1238,4.0163,4.0096,4.0096,4.0096,4.0096,4.0096,4.0096,4.0096,4.0096,4.0096,4.0096,4.0096,4.0096,4.0096,4.0096,4.0096,4.0096,4.0096,4.0096,4.0096,4.0096,4.0096,4.0096,4.0096,4.0096,4.0096,4.0096,4.0096,4.0096,4.0096,4.0096,4.0096,4.0096,4.0096,4.0096,4.0096,4.0096,4.0096,4.0096,4.0096,4.0096,4.0096,4.0096,4.0096,4.0096,4.0096,4.0096,4.0096,4.0096,4.0096,4.0096,4.0096,4.0096,4.0096,4.0096,4.0096,4.0096,4.0096,4.0096,4.0096,4.0096,4.0096,4.0096,4.0096,4.0096,4.0096,4.0096,4.0096,4.0096,4.0096,4.0096,4.0096,4.0096,4.0096,4.0096,4.0096,4.0096,4.0426,4.0595,4.0595,4.0959,4.1128,4.1492,4.2054,4.2804,4.3433,4.3598,4.3598,4.3598,4.3019,4.2489,4.2489,4.1893,4.121,4.0542,4.0711,4.0749,4.0165,4.0896,4.2066,4.3527,4.3544,4.3707,4.4513,4.3995,4.3859,4.4547,4.4615,4.3972,4.2405,4.2286,4.167,4.018,4.0096,4.0096,4.0096,4.0096,4.0096,4.0096,4.0096,4.0096,4.0096,4.0096,4.0096,4.0096,4.0096,4.0096,4.0096,4.0096,4.0096,4.0096,4.0096,4.0096,4.0096,4.0096,4.0096,4.0096,4.0096,4.0096,4.0096,4.0096,4.0096,4.0096,4.0096,4.0096,4.0096,4.0096,4.0096,4.0096,4.0096,4.0096,4.0096,4.0096,4.0096,4.0096,4.0096,4.0096,4.0096,4.0096,4.0096,4.0096,4.0096,4.0096,4.0096,4.0096,4.0096,4.0096,4.0096,4.0096,4.0096,4.0096,4.0197,4.0231,4.0113,4.0197,4.0231,4.0113,4.0096,4.0146,4.0265,4.0163,4.0096,4.0096,4.0096,4.0146,4.0282,4.0282,4.0333,4.0451,4.1052,4.1373,4.139,4.1999,4.2286,4.1444,4.2457,4.3449,4.3565,4.3598,4.3598,4.3598,4.3019,4.2489,4.2489,4.1893,4.1221,4.0679,4.11,4.1604,4.1715,4.2483,4.3606,4.5145,4.4204,4.3707,4.4513,4.4496,4.4479,4.4598,4.4615,4.3972,4.2405,4.2286,4.167,4.018,4.0096,4.0096,4.0096,4.0096,4.0096,4.0096,4.0096,4.0096,4.0096,4.0096,4.0096,4.0096,4.0096,4.0096,4.0096,4.0096,4.0096,4.0096,4.0096,4.0096,4.0096,4.0096,4.0096,4.0096,4.0096,4.0096,4.0096,4.0096,4.0096,4.0096,4.0096,4.0096,4.0096,4.0096,4.0096,4.0096,4.0096,4.0096,4.0096,4.0096,4.0096,4.0096,4.0096,4.0096,4.0096,4.0096,4.0096,4.0096,4.0096,4.0096,4.0096,4.0096,4.0096,4.0096,4.0096,4.0096,4.0096,4.0096,4.0629,4.0781,4.018,4.0646,4.0781,4.0146,4.0096,4.0383,4.0984,4.0468,4.0096,4.0096,4.0096,4.0375,4.1018,4.1035,4.1339,4.1948,4.2066,4.2117,4.2117,4.2236,4.2286,4.0891,4.1924,4.3085,4.3499,4.33,4.3002,4.3002,4.2154,4.1359,4.1359,4.0779,4.0337,4.0567,4.1249,4.2166,4.3265,4.4108,4.4756,4.506,4.484,4.4637,4.4615,4.4615,4.4615,4.4615,4.4615,4.3972,4.2405,4.2286,4.167,4.018,4.0096,4.0096,4.0096,4.0096,4.0096,4.0096,4.0096,4.0096,4.0096,4.0096,4.0096,4.0096,4.0096,4.0096,4.0096,4.0096,4.0096,4.0096,4.0096,4.0096,4.0096,4.0096,4.0096,4.0096,4.0096,4.0096,4.0096,4.0096,4.0096,4.0096,4.0096,4.0096,4.0096,4.0096,4.0096,4.0096,4.0096,4.0096,4.0096,4.0096,4.0096,4.0096,4.0096,4.0096,4.0096,4.0096,4.0096,4.0096,4.0096,4.0096,4.0096,4.0096,4.0096,4.0096,4.0096,4.0426,4.0679,4.0679,4.1339,4.166,4.1305,4.1593,4.166,4.1331,4.1297,4.1255,4.1204,4.1255,4.1297,4.1297,4.1297,4.1467,4.1779,4.1779,4.1965,4.2286,4.2692,4.2895,4.2912,4.3335,4.3548,4.0402,4.131,4.2406,4.3151,4.3035,4.2837,4.3197,4.217,4.1221,4.1443,4.0746,4.0336,4.1076,4.2093,4.3289,4.4846,4.5585,4.5754,4.5179,4.5297,4.5229,4.4682,4.4615,4.4615,4.4615,4.4615,4.3972,4.2405,4.2286,4.167,4.018,4.0096,4.0096,4.0096,4.0096,4.0096,4.0096,4.0096,4.0096,4.0096,4.0096,4.0096,4.0096,4.0096,4.0096,4.0096,4.0096,4.0096,4.0096,4.0096,4.0096,4.0096,4.0096,4.0096,4.0096,4.0096,4.0096,4.0096,4.0096,4.0096,4.0096,4.0096,4.0096,4.0096,4.0096,4.0096,4.0096,4.0096,4.0096,4.0096,4.0096,4.0096,4.0096,4.0096,4.0096,4.0096,4.0096,4.0096,4.0096,4.0096,4.0096,4.0146,4.0333,4.0367,4.0434,4.0603,4.1085,4.1457,4.1457,4.21,4.2489,4.2303,4.2439,4.2489,4.2303,4.2455,4.232,4.1762,4.2083,4.2286,4.2286,4.2286,4.2371,4.254,4.2557,4.2642,4.2828,4.342,4.369,4.3707,4.4299,4.4615,4.0402,4.0938,4.1674,4.2373,4.3035,4.3863,4.5251,4.444,4.3608,4.4484,4.3498,4.2555,4.2959,4.4356,4.5691,4.6498,4.6684,4.6701,4.6633,4.5529,4.4666,4.4615,4.4615,4.4615,4.4615,4.4615,4.3972,4.2405,4.2286,4.167,4.018,4.0096,4.0096,4.0096,4.0096,4.0096,4.0096,4.0096,4.0096,4.0096,4.0096,4.0096,4.0096,4.0096,4.0096,4.0096,4.0096,4.0096,4.0096,4.0096,4.0096,4.0096,4.0096,4.0096,4.0096,4.0096,4.0096,4.0096,4.0096,4.0096,4.0096,4.0096,4.0096,4.0096,4.0096,4.0096,4.0096,4.0096,4.0096,4.0096,4.0096,4.0096,4.0096,4.0096,4.0096,4.0096,4.0096,4.0096,4.0096,4.0096,4.0096,4.0333,4.1001,4.1119,4.1356,4.2033,4.2185,4.2219,4.2219,4.2861,4.3064,4.2371,4.2912,4.3047,4.2354,4.2929,4.3291,4.324,4.2642,4.2286,4.2286,4.2286,4.2625,4.3291,4.3308,4.369,4.4445,4.4496,4.4513,4.453,4.4581,4.4615,3.9676,4.0259,4.1061,4.2191,4.2704,4.3168,4.4208,4.3737,4.334,4.416,4.3931,4.3779,4.4495,4.484,4.5399,4.6599,4.6786,4.6633,4.6177,4.5635,4.5111,4.4649,4.4615,4.4615,4.4615,4.4615,4.3972,4.2405,4.2286,4.167,4.018,4.0096,4.0096,4.0096,4.0096,4.0096,4.0096,4.0096,4.0096,4.0096,4.0096,4.0096,4.0096,4.0096,4.0096,4.0096,4.0096,4.0096,4.0096,4.0096,4.0096,4.0096,4.0096,4.0096,4.0096,4.0096,4.0096,4.0096,4.0096,4.0096,4.0096,4.0096,4.0096,4.0096,4.0096,4.0096,4.0096,4.0096,4.0434,4.0781,4.0781,4.0426,4.0231,4.0679,4.0434,4.0096,4.0096,4.0468,4.0781,4.0781,4.1136,4.1568,4.183,4.188,4.1965,4.2252,4.2692,4.2997,4.2997,4.3656,4.4028,4.3768,4.3978,4.4028,4.3768,4.3978,4.4147,4.4147,4.3876,4.3735,4.3735,4.3735,4.387,4.413,4.4147,4.4282,4.4615,4.4615,4.4615,4.4615,4.4615,4.4615,3.9346,3.9855,4.0663,4.1872,4.2142,4.2485,4.3678,4.3879,4.4127,4.512,4.5131,4.5005,4.5171,4.5054,4.5263,4.6278,4.6447,4.6278,4.5771,4.55,4.5162,4.4666,4.4615,4.4615,4.4615,4.4615,4.3972,4.2405,4.2286,4.167,4.018,4.0096,4.0096,4.0096,4.0096,4.0096,4.0096,4.0096,4.0096,4.0096,4.0096,4.0096,4.0096,4.0096,4.0096,4.0096,4.0096,4.0096,4.0096,4.0096,4.0096,4.0096,4.0096,4.0096,4.0096,4.0096,4.0096,4.0096,4.0096,4.0096,4.0096,4.0096,4.0096,4.0096,4.0096,4.0096,4.0096,4.0096,4.0468,4.0899,4.1136,4.0832,4.0561,4.1085,4.0629,4.0163,4.0417,4.0832,4.1271,4.1508,4.1948,4.2371,4.2608,4.2642,4.2726,4.298,4.3453,4.3792,4.3792,4.4248,4.4615,4.4615,4.4615,4.4615,4.4615,4.4615,4.4615,4.4615,4.4615,4.4615,4.4615,4.4615,4.4615,4.4615,4.4615,4.4615,4.4615,4.4615,4.4615,4.4615,4.4615,4.4615,3.9519,3.99,4.0547,4.1243,4.1397,4.2005,4.4191,4.5438,4.6557,4.8182,4.7605,4.6346,4.4902,4.5213,4.5703,4.5703,4.5703,4.5703,4.5703,4.5043,4.4615,4.4615,4.4615,4.4615,4.4615,4.4615,4.3972,4.2405,4.2286,4.167,4.018,4.0096,4.0096,4.0096,4.0096,4.0096,4.0096,4.0096,4.0096,4.0096,4.0096,4.0096,4.0096,4.0096,4.0096,4.0096,4.0096,4.0096,4.0096,4.0096,4.0096,4.0096,4.0096,4.0096,4.0096,4.0096,4.0096,4.0096,4.0096,4.0096,4.0096,4.0096,4.0096,4.0096,4.0096,4.0096,4.0096,4.0096,4.0113,4.0282,4.1018,4.1204,4.1204,4.1204,4.0629,4.0316,4.1035,4.1204,4.1424,4.2151,4.2303,4.254,4.3274,4.3409,4.369,4.4496,4.4615,4.4615,4.4615,4.4615,4.4615,4.4615,4.4615,4.4615,4.4615,4.4615,4.4615,4.4615,4.4615,4.4615,4.4615,4.4615,4.4615,4.4615,4.4615,4.4615,4.4615,4.4615,4.4615,4.4615,4.4615,4.4615,3.867,3.9189,3.9977,4.1114,4.2175,4.3383,4.5086,4.5804,4.6588,4.8341,4.7683,4.6667,4.621,4.5466,4.4925,4.4925,4.4925,4.4925,4.4925,4.475,4.4615,4.4615,4.4615,4.4615,4.4615,4.4615,4.3972,4.2405,4.2286,4.167,4.018,4.0096,4.0096,4.0096,4.0096,4.0096,4.0096,4.0096,4.0096,4.0096,4.0096,4.0096,4.0096,4.0096,4.0096,4.0096,4.0096,4.0096,4.0096,4.0096,4.0096,4.0096,4.0096,4.0096,4.0096,4.0096,4.0096,4.0096,4.0096,4.0096,4.0096,4.0096,4.0096,4.0096,4.0096,4.0096,4.0096,4.0096,4.046,4.0916,4.1136,4.1204,4.1204,4.1204,4.0629,4.0163,4.0383,4.1238,4.2033,4.2252,4.3166,4.4005,4.4198,4.4231,4.4344,4.4564,4.4615,4.4615,4.4615,4.4615,4.4615,4.4615,4.4615,4.4615,4.4615,4.4615,4.4615,4.4615,4.4615,4.4615,4.4615,4.4615,4.4615,4.4615,4.4615,4.4615,4.4615,4.4615,4.4615,4.4615,4.4615,4.4615,3.9047,3.9698,4.0443,4.1572,4.2489,4.3562,4.5081,4.6296,4.7398,4.8616,4.7774,4.6786,4.6786,4.5585,4.4615,4.4615,4.4615,4.4615,4.4615,4.4615,4.4615,4.4615,4.4615,4.4615,4.4615,4.4615,4.3972,4.2405,4.2286,4.167,4.018,4.0096,4.0096,4.0096,4.0096,4.0096,4.0096,4.0062,4.0011,4.0011,4.0011,4.0011,4.0011,4.0087,4.0096,4.0096,4.0096,4.0096,4.0096,4.0096,4.0096,4.0096,4.0096,4.0096,4.0096,4.0096,4.0096,4.0096,4.0096,4.0096,4.0096,4.0096,4.0096,4.0096,4.0096,4.0096,4.0096,4.0096,4.0434,4.0747,4.0747,4.0747,4.0832,4.1136,4.0629,4.0265,4.0857,4.166,4.2472,4.3081,4.3972,4.4615,4.4615,4.4615,4.4615,4.4615,4.4615,4.4615,4.4615,4.4615,4.4615,4.4615,4.4615,4.4615,4.4615,4.4615,4.4615,4.4615,4.4615,4.4615,4.4615,4.4615,4.4615,4.4615,4.4615,4.4615,4.4615,4.4615,4.4615,4.4615,4.4615,4.4615,4.0039,4.0811,4.1514,4.2278,4.2589,4.3111,4.4654,4.6703,4.8377,4.8706,4.7733,4.6769,4.6701,4.5585,4.4682,4.4615,4.4615,4.4615,4.4615,4.4615,4.4615,4.4615,4.4615,4.4615,4.4615,4.4615,4.3972,4.2405,4.2286,4.167,4.018,4.0096,4.0096,4.0096,4.0096,4.0096,4.0087,3.9961,3.9901,3.9901,3.9901,3.9901,3.9926,4.0037,4.0096,4.0096,4.0096,4.0096,4.0096,4.0096,4.0096,4.0096,4.0096,4.0096,4.0096,4.0096,4.0096,4.0096,4.0096,4.0096,4.0096,4.0096,4.0096,4.0096,4.0096,4.0096,4.0096,4.0096,4.0096,4.0096,4.0096,4.0096,4.0282,4.0933,4.0578,4.0502,4.1897,4.2236,4.2726,4.4225,4.4564,4.4615,4.4615,4.4615,4.4615,4.4615,4.4615,4.4615,4.4615,4.4615,4.4615,4.4615,4.4615,4.4615,4.4615,4.4615,4.4615,4.4615,4.4615,4.4615,4.4615,4.4615,4.4615,4.4615,4.4615,4.4615,4.4615,4.4615,4.4615,4.4615,4.4615,4.4615,3.8654,3.9798,4.0982,4.219,4.338,4.4547,4.5718,4.6394,4.682,4.6986,4.69,4.6616,4.6041,4.5686,4.5263,4.4699,4.4615,4.4615,4.4615,4.4615,4.4615,4.4615,4.4615,4.4615,4.4615,4.4615,4.3972,4.2405,4.2286,4.167,4.018,4.0096,4.0096,4.0096,4.0096,4.0062,3.9935,3.9926,3.9901,3.9901,3.9901,3.9977,4.0062,4.0087,4.0096,4.0096,4.0096,4.0096,4.0096,4.0096,4.0096,4.0096,4.0096,4.0096,4.0096,4.0096,4.0096,4.0096,4.0096,4.0096,4.0096,4.0096,4.0096,4.0096,4.0096,4.0096,4.0096,4.0096,4.0096,4.0096,4.0096,4.0096,4.0146,4.0316,4.0231,4.035,4.1238,4.188,4.2557,4.3487,4.4164,4.4615,4.4615,4.4615,4.4615,4.4615,4.4615,4.4615,4.4615,4.4615,4.4615,4.4615,4.4615,4.4615,4.4615,4.4615,4.4615,4.4615,4.4615,4.4615,4.4615,4.4615,4.4615,4.4615,4.4615,4.4615,4.4615,4.4615,4.4615,4.4615,4.4615,4.4615,3.881,3.9927,4.0931,4.2614,4.3582,4.4351,4.499,4.5193,4.5295,4.5425,4.5874,4.616,4.5771,4.5415,4.5043,4.4666,4.4615,4.4615,4.4615,4.4615,4.4615,4.4615,4.4248,4.4028,4.4028,4.369,4.3014,4.1863,4.1762,4.1271,4.0163,4.0096,4.0087,4.0011,4.0011,3.9935,3.9824,3.9746,3.9746,3.9807,3.9807,3.9858,4.0011,4.0087,4.0096,4.0096,4.0096,4.0096,4.0096,4.0096,4.0096,4.0096,4.0096,4.0096,4.0096,4.0096,4.0096,4.0096,4.0096,4.0096,4.0096,4.0096,4.0096,4.0096,4.0096,4.0096,4.0096,4.0096,4.0096,4.0096,4.0096,4.0096,4.0197,4.0527,4.0367,4.04,4.1491,4.2016,4.2625,4.3758,4.4299,4.4615,4.4615,4.4615,4.4615,4.4615,4.4615,4.4615,4.4615,4.4615,4.4615,4.4615,4.4615,4.4615,4.4615,4.4615,4.4615,4.4615,4.4615,4.4615,4.4615,4.4615,4.4615,4.4615,4.4615,4.4615,4.4615,4.4615,4.4615,4.4615,4.4615,4.4615,3.9056,4.0211,4.116,4.3102,4.3598,4.3658,4.3868,4.3969,4.4097,4.4281,4.4946,4.5517,4.5517,4.4993,4.4615,4.4615,4.4615,4.4615,4.4615,4.4496,4.4384,4.4384,4.369,4.3189,4.3189,4.2658,4.1982,4.1271,4.1204,4.0882,4.0146,4.0096,4.0062,3.9952,3.9901,3.9849,3.9703,3.9563,3.9563,3.9651,3.9677,3.9755,3.9875,3.9986,4.0045,4.0062,4.007,4.0096,4.0096,4.0096,4.0096,4.0096,4.0096,4.0096,4.0096,4.0096,4.0096,4.0096,4.0096,4.0096,4.0096,4.0096,4.0096,4.0096,4.0096,4.0096,4.0096,4.0096,4.0096,4.0096,4.0096,4.0197,4.0426,4.1052,4.0832,4.0857,4.2202,4.2489,4.2895,4.4344,4.4615,4.4615,4.4615,4.4615,4.4615,4.4615,4.4615,4.4615,4.4615,4.4615,4.4615,4.4615,4.4615,4.4615,4.4615,4.4615,4.4615,4.4615,4.4615,4.4615,4.4615,4.4615,4.4615,4.4615,4.4615,4.4615,4.4615,4.4615,4.4615,4.4615,4.4615,4.4615,3.7262,3.9487,4.1794,4.3248,4.3598,4.3658,4.3868,4.3927,4.3998,4.4253,4.4553,4.475,4.475,4.4682,4.4615,4.4615,4.4615,4.4615,4.4615,4.3995,4.3572,4.3572,4.2895,4.2439,4.2439,4.2354,4.1982,4.1271,4.1204,4.0882,4.0146,4.0096,4.007,4.007,3.9961,3.9849,3.9703,3.9563,3.9528,3.9511,3.9625,3.9703,3.9729,3.9755,3.9807,3.9935,4.0062,4.0096,4.0096,4.0096,4.0096,4.0096,4.0096,4.0096,4.0096,4.0096,4.0096,4.0096,4.0096,4.0096,4.0096,4.0096,4.0096,4.0096,4.0096,4.0096,4.0096,4.0096,4.0096,4.0096,4.0096,4.0561,4.1085,4.1187,4.161,4.2236,4.3081,4.324,4.3521,4.4429,4.4615,4.4615,4.4615,4.4615,4.4615,4.4615,4.4615,4.4615,4.4615,4.4615,4.4615,4.4615,4.4615,4.4615,4.4615,4.4615,4.4615,4.4615,4.4615,4.4615,4.4615,4.4615,4.4615,4.4615,4.4615,4.4615,4.4615,4.4615,4.4615,4.4615,4.4615,4.4615,3.7281,3.9629,4.1817,4.2794,4.3325,4.3628,4.3704,4.3839,4.3927,4.4056,4.427,4.4468,4.457,4.4615,4.4615,4.4615,4.4615,4.4615,4.4615,4.391,4.3392,4.3392,4.2388,4.1677,4.1677,4.1305,4.0942,4.0595,4.0578,4.0426,4.013,4.0096,4.0062,3.9986,3.9926,3.9798,3.959,3.9511,3.9501,3.9501,3.9642,3.9651,3.959,3.9651,3.9729,3.9798,3.9935,3.9986,3.9986,4.0087,4.0096,4.0096,4.0096,4.0096,4.0096,4.0096,4.0096,4.0096,4.0096,4.0096,4.0096,4.0096,4.0096,4.0096,4.0096,4.0096,4.0197,4.0595,4.0713,4.0798,4.1247,4.1559,4.1914,4.2337,4.2692,4.3132,4.3893,4.3724,4.3656,4.4445,4.4615,4.4615,4.4615,4.4615,4.4615,4.4615,4.4615,4.4615,4.4615,4.4615,4.4615,4.4615,4.4615,4.4615,4.4615,4.4615,4.4615,4.4615,4.4615,4.4615,4.4615,4.4615,4.4615,4.4615,4.4615,4.4615,4.4615,4.4615,4.4615,4.4615,4.4615,4.4615,3.7081,3.903,4.0793,4.2021,4.2727,4.3171,4.3519,4.3734,4.3839,4.3898,4.4056,4.4253,4.4429,4.4542,4.4615,4.4615,4.4615,4.4615,4.4615,4.3741,4.3132,4.3132,4.183,4.0916,4.0916,4.0409,4.0096,4.0096,4.0096,4.0096,4.0096,4.0087,4.0011,3.9901,3.9824,3.9694,3.9501,3.9475,3.9448,3.9432,3.9547,3.9563,3.9432,3.9547,3.9625,3.9668,3.9824,3.9901,3.9901,4.0037,4.0096,4.0096,4.0096,4.0096,4.0096,4.0096,4.0096,4.0096,4.0096,4.0096,4.0096,4.0096,4.0096,4.0096,4.0096,4.0096,4.0265,4.0984,4.1204,4.1373,4.21,4.2439,4.2726,4.3257,4.3572,4.3876,4.4479,4.413,4.3876,4.4496,4.4615,4.4615,4.4615,4.4615,4.4615,4.4615,4.4615,4.4615,4.4615,4.4615,4.4615,4.4615,4.4615,4.4615,4.4615,4.4615,4.4615,4.4615,4.4615,4.4615,4.4615,4.4615,4.4615,4.4615,4.4615,4.4615,4.4615,4.4615,4.4615,4.4615,4.4615,4.4615,3.5664,3.6779,3.8104,4.0949,4.1673,4.205,4.3314,4.3598,4.3658,4.3868,4.3898,4.3956,4.4097,4.44,4.4615,4.4615,4.4615,4.4615,4.4615,4.3328,4.2354,4.2354,4.1077,4.0163,4.0163,4.013,4.0096,4.0096,4.0096,4.0096,4.0096,3.9986,3.9901,3.9901,3.9642,3.9528,3.9501,3.9379,3.9299,3.9299,3.9325,3.9325,3.9299,3.9325,3.9379,3.9511,3.9798,3.9901,3.9901,4.0037,4.0096,4.0096,4.0096,4.0096,4.0096,4.0096,4.0096,4.0096,4.0096,4.0096,4.0096,4.0096,4.0096,4.0096,4.0096,4.0096,4.0265,4.0984,4.1204,4.1373,4.21,4.2828,4.3341,4.3375,4.3978,4.4564,4.4598,4.4581,4.4564,4.4598,4.4615,4.4615,4.4615,4.4615,4.4615,4.4615,4.4615,4.4615,4.4615,4.4615,4.4615,4.4615,4.4615,4.4615,4.4615,4.4615,4.4615,4.4615,4.4615,4.4615,4.4615,4.4615,4.4615,4.4615,4.4615,4.4615,4.4615,4.4615,4.4615,4.4615,4.4615,4.4615,3.4431,3.5666,3.7,3.8592,4.0287,4.172,4.2209,4.2966,4.3628,4.3687,4.3793,4.3927,4.3969,4.4212,4.4412,4.4412,4.4514,4.4615,4.4615,4.3673,4.2828,4.2354,4.1407,4.0612,4.0146,4.0096,4.0096,4.0096,4.0011,3.9961,3.9961,3.9833,3.9781,3.9781,3.9694,3.959,3.9501,3.9352,3.9299,3.9299,3.9299,3.9299,3.9299,3.9299,3.9325,3.9395,3.9668,3.9807,3.9901,4.0037,4.0062,3.9986,4.0062,4.0062,3.9986,4.0087,4.0096,4.0096,4.0096,4.0096,4.0096,4.0096,4.0096,4.0197,4.0646,4.0798,4.1052,4.2286,4.2625,4.2794,4.3555,4.3961,4.4164,4.4164,4.4384,4.4615,4.4615,4.4615,4.4615,4.4615,4.4615,4.4615,4.4615,4.4615,4.4615,4.4615,4.4615,4.4615,4.4615,4.4615,4.4615,4.4615,4.4615,4.4615,4.4615,4.4615,4.4615,4.4615,4.4615,4.4615,4.4615,4.4615,4.4615,4.4615,4.4615,4.4615,4.4615,4.4615,4.4615,4.4615,4.4615,4.4615,3.3115,3.4215,3.5549,3.7075,3.8497,3.9962,4.1567,4.2285,4.2779,4.3453,4.3704,4.3793,4.3793,4.3981,4.4212,4.4281,4.4412,4.4542,4.4598,4.391,4.3234,4.2726,4.2016,4.1271,4.0527,4.0485,4.0383,4.013,4.0011,3.9952,3.9901,3.9781,3.9651,3.9573,3.9573,3.9537,3.9432,3.9352,3.9299,3.9299,3.9299,3.9299,3.9299,3.9299,3.9325,3.9379,3.9563,3.9694,3.9772,3.9961,3.9986,3.9901,3.9986,4.0011,3.9986,4.0062,4.0096,4.0096,4.0096,4.0096,4.0096,4.0096,4.0282,4.0544,4.1052,4.1373,4.183,4.3037,4.3392,4.3606,4.4384,4.4615,4.4615,4.4615,4.4615,4.4615,4.4615,4.4615,4.4615,4.4615,4.4615,4.4615,4.4615,4.4615,4.4615,4.4615,4.4615,4.4615,4.4615,4.4615,4.4615,4.4615,4.4615,4.4615,4.4615,4.4615,4.4615,4.4615,4.4615,4.4615,4.4615,4.4615,4.4615,4.4615,4.4615,4.4615,4.4615,4.4615,4.4615,4.4615,4.4615,4.4615,0.0,0.0,0.0,3.6435,3.6322,3.6735,4.1368,4.145,4.1138,4.3132,4.3535,4.3565,4.3582,4.3763,4.3969,4.4253,4.431,4.4367,4.4542,4.3899,4.3409,4.3392,4.275,4.2033,4.1305,4.1195,4.0899,4.0197,4.0113,4.0037,3.9901,3.9755,3.9573,3.9299,3.9299,3.9299,3.9299,3.9299,3.9299,3.9299,3.9299,3.9299,3.9299,3.9299,3.9379,3.9501,3.9501,3.9501,3.9528,3.9798,3.9901,3.9901,3.9901,3.9986,4.0096,4.0096,4.0096,4.0096,4.0096,4.0096,4.0096,4.013,4.0612,4.1221,4.1255,4.1762,4.2489,4.325,4.3426,4.3595,4.4412,4.4598,4.4587,4.4615,4.4615,4.4598,4.4615,4.4615,4.4615,4.4615,4.4615,4.4615,4.4615,4.4615,4.4615,4.4615,4.4615,4.4615,4.4615,4.4615,4.4615,4.4615,4.4615,4.4615,4.4615,4.4615,4.4615,4.4615,4.4615,4.4615,4.4615,4.4615,4.4615,4.4615,4.4615,4.4615,4.4615,4.4615,4.4615,4.4615,4.4615,4.4615,3.1024,0.0,0.0,0.0,0.0,0.0,3.7888,3.9012,4.0251,4.1813,4.216,4.246,4.3423,4.3658,4.3747,4.3969,4.4097,4.4184,4.4212,4.4044,4.3709,4.3183,4.2931,4.2538,4.1923,4.1288,4.091,4.0916,4.0213,3.9807,3.9755,3.9537,3.9379,3.9299,3.9299,3.9299,3.9299,3.9299,3.9299,3.9299,3.9299,3.9299,3.9299,3.9299,3.9325,3.9352,3.9475,3.9501,3.9528,3.9798,3.9849,3.9781,3.9961,4.0011,3.9977,4.0045,4.0096,4.0096,4.0096,4.0096,4.0197,4.0713,4.1035,4.1407,4.2489,4.2881,4.3147,4.4018,4.4148,4.4142,4.4519,4.4429,4.4315,4.4542,4.4468,4.4412,4.457,4.4615,4.4615,4.4615,4.4615,4.4615,4.4615,4.4615,4.4615,4.4615,4.4615,4.4615,4.4615,4.4615,4.4615,4.4615,4.4615,4.4615,4.4615,4.4615,4.4615,4.4615,4.4615,4.4615,4.4615,4.4615,4.4615,4.4615,4.4615,4.4615,4.4615,4.4615,4.4615,4.4615,4.4615,4.4615,3.0762,3.1204,3.1811,3.2539,0.0,0.0,3.6523,3.7856,3.9256,4.118,4.205,4.2665,4.3456,4.3598,4.3628,4.3763,4.3852,4.3952,4.4068,4.4097,4.3946,4.3494,4.3444,4.3216,4.2545,4.2009,4.1533,4.1071,4.0486,4.0012,3.9633,3.9405,3.9299,3.9299,3.9299,3.9299,3.9299,3.9299,3.9299,3.9299,3.9299,3.9299,3.9299,3.9299,3.9299,3.9299,3.9448,3.9501,3.9528,3.9798,3.9833,3.9781,3.9961,4.0011,3.9986,4.0087,4.0096,4.0096,4.0096,4.0316,4.0629,4.0991,4.1521,4.2196,4.3002,4.339,4.3687,4.4254,4.4298,4.4224,4.4355,4.4258,4.4155,4.4344,4.4298,4.4253,4.4372,4.44,4.4429,4.457,4.4615,4.4615,4.4615,4.4615,4.4615,4.4615,4.4615,4.4615,4.4615,4.4615,4.4615,4.4615,4.4615,4.4615,4.4615,4.4615,4.4615,4.4615,4.4615,4.4615,4.4615,4.4615,4.4615,4.4615,4.4615,4.4615,4.4615,4.4615,4.4615,4.4615,4.4615,4.4615,3.0762,3.0925,3.1397,3.2702,3.2378,0.0,3.6152,3.7124,3.7945,4.0401,4.1868,4.2782,4.3112,4.3129,4.3191,4.3333,4.3416,4.3617,4.3993,4.4039,4.4039,4.4039,4.4039,4.3817,4.3148,4.3014,4.2378,4.1017,4.0766,4.0318,3.9534,3.9379,3.9299,3.9299,3.9299,3.9299,3.9299,3.9299,3.9299,3.9299,3.9299,3.9299,3.9299,3.9299,3.9299,3.9299,3.9448,3.9501,3.9528,3.9746,3.9875,3.9875,3.9901,3.9961,4.0062,4.0062,4.0062,4.0062,4.0062,4.0552,4.1143,4.1112,4.2034,4.3177,4.3132,4.3578,4.4068,4.4068,4.4068,4.4068,4.4097,4.4068,4.4039,4.4097,4.4097,4.4085,4.4126,4.4126,4.4212,4.4542,4.457,4.4542,4.4542,4.4542,4.457,4.457,4.4587,4.4615,4.4615,4.4615,4.4615,4.4615,4.4615,4.4615,4.4615,4.4615,4.4615,4.4615,4.4615,4.4615,4.4615,4.4615,4.4615,4.4615,4.4615,4.4615,4.4615,4.4615,4.4615,4.4615,4.4615,4.4615,3.0642,3.0762,3.0954,3.1427,3.2242,0.0,3.3397,3.4318,3.54,3.6457,3.6916,3.7729,3.9917,4.029,4.0631,4.1654,4.2324,4.2932,4.3604,4.3717,4.3717,4.3717,4.3717,4.3697,4.371,4.3028,4.2342,4.1726,4.0491,3.9677,3.9501,3.9379,3.9299,3.9299,3.9299,3.9299,3.9299,3.9299,3.9299,3.9299,3.9299,3.9299,3.9299,3.9299,3.9299,3.9299,3.9325,3.9405,3.9501,3.9554,3.9642,3.9755,3.9875,3.9833,3.9781,3.9781,3.9781,3.9781,3.9781,4.0268,4.0963,4.1529,4.2317,4.3149,4.3695,4.391,4.3956,4.3956,4.3956,4.3969,4.4068,4.3894,4.3776,4.4039,4.4027,4.3998,4.4196,4.4253,4.431,4.4542,4.4372,4.4184,4.4184,4.4298,4.4367,4.4367,4.4514,4.4615,4.4615,4.4615,4.4615,4.4615,4.4615,4.4615,4.4615,4.4615,4.4615,4.4615,4.4615,4.4615,4.4615,4.4615,4.4615,4.4615,4.4615,4.4615,4.4615,4.4615,4.4615,4.4615,4.4615,4.4615,3.0759,3.0762,3.0851,3.1043,3.1664,0.0,0.0,3.3442,3.4607,3.5352,3.6052,3.6951,3.8312,3.8528,3.8885,3.9859,4.0854,4.1796,4.2504,4.3171,4.3598,4.3598,4.3598,4.3628,4.3734,4.3326,4.2647,4.1721,4.0596,3.9777,3.9438,3.9342,3.9299,3.9299,3.9299,3.9299,3.9299,3.9299,3.9299,3.9299,3.9299,3.9299,3.9299,3.9299,3.9299,3.9299,3.9379,3.9448,3.9501,3.9563,3.9616,3.9616,3.9746,3.9755,3.9703,3.9703,3.9703,3.9754,4.0122,4.0732,4.1442,4.2078,4.2829,4.3514,4.3748,4.3805,4.3763,4.3763,4.3763,4.3763,4.3835,4.3717,4.3658,4.3805,4.3805,4.3793,4.3906,4.3964,4.3964,4.4068,4.4056,4.4039,4.4184,4.4355,4.4412,4.431,4.4468,4.4615,4.4615,4.4615,4.4615,4.4615,4.4615,4.4615,4.4615,4.4615,4.4615,4.4615,4.4615,4.4615,4.4615,4.4615,4.4615,4.4615,4.4615,4.4615,4.4615,4.4615,4.4615,4.4615,4.4615,4.4615,3.1319,3.1217,3.1218,3.1249,3.1383,3.1575,0.0,0.0,0.0,3.4603,3.5632,3.6481,3.674,3.6911,3.7257,3.8042,3.9303,4.0434,4.1091,4.2228,4.3099,4.3367,4.3499,4.3532,4.34,4.3251,4.2671,4.148,4.0647,3.9928,3.9332,3.9299,3.9299,3.9299,3.9299,3.9299,3.9299,3.9299,3.9299,3.9299,3.9299,3.9299,3.9299,3.9299,3.9299,3.9299,3.9405,3.9475,3.9475,3.9573,3.9563,3.9458,3.9616,3.9651,3.9625,3.9625,3.9709,3.9926,4.0501,4.1287,4.2094,4.2504,4.319,4.3793,4.3658,4.3598,4.3598,4.3598,4.3598,4.3598,4.3598,4.3598,4.3598,4.3598,4.3598,4.3598,4.3658,4.3658,4.3658,4.3687,4.3822,4.3998,4.4196,4.4412,4.4468,4.4338,4.4468,4.4615,4.4615,4.4615,4.4615,4.4615,4.4615,4.4615,4.4615,4.4615,4.4615,4.4615,4.4615,4.4615,4.4615,4.4615,4.4615,4.4615,4.4615,4.4615,4.4615,4.4615,4.4615,4.4615,4.4615,4.4615,3.2768,3.2738,3.2606,3.2031,3.2356,3.255,3.1619,0.0,3.2437,3.2017,0.0,3.2575,3.3759,0.0,0.0,3.6453,3.7818,3.8948,3.9561,4.0355,4.1292,4.2464,4.3201,4.3333,4.2688,4.2026,4.1591,4.1397,4.0166,3.9398,3.9299,3.9299,3.9299,3.9299,3.9299,3.9299,3.9299,3.9299,3.9299,3.9299,3.9299,3.9299,3.9299,3.9299,3.9299,3.9299,3.9325,3.9325,3.9325,3.9352,3.9325,3.9342,3.9475,3.9458,3.9352,3.9352,3.9767,4.032,4.0431,4.1316,4.2431,4.2485,4.3015,4.3628,4.3598,4.3598,4.3598,4.3598,4.3598,4.3598,4.3598,4.3598,4.3598,4.3598,4.3598,4.3658,4.3839,4.3868,4.3898,4.401,4.4068,4.4056,4.3956,4.4155,4.4338,4.431,4.4468,4.4615,4.4615,4.4615,4.4615,4.4615,4.4615,4.4615,4.4615,4.4615,4.4615,4.4615,4.4615,4.4615,4.4615,4.4615,4.4615,4.4615,4.4615,4.4615,4.4615,4.4615,4.4615,4.4615,4.4615,4.4615,3.3094,3.2991,3.2828,3.2179,3.2147,3.2117,3.1368,3.1412,3.156,3.141,0.0,0.0,0.0,0.0,0.0,0.0,3.5592,3.698,3.7643,3.8973,4.0409,4.1708,4.2125,4.2357,4.2473,4.2208,4.1844,4.1413,4.0862,4.015,3.9348,3.9713,3.9746,3.9315,3.9299,3.9299,3.9299,3.9299,3.9299,3.9299,3.9299,3.9299,3.9299,3.9299,3.9299,3.9299,3.9299,3.9299,3.9299,3.9299,3.9299,3.9299,3.9352,3.9352,3.9348,3.9779,4.0144,4.0525,4.1342,4.2021,4.2555,4.2986,4.335,4.3598,4.3598,4.3598,4.3598,4.3598,4.3598,4.3598,4.3598,4.3598,4.3598,4.3598,4.3598,4.3628,4.3704,4.3734,4.3747,4.3805,4.3894,4.3985,4.3898,4.4056,4.4196,4.431,4.4298,4.4372,4.457,4.4514,4.4468,4.4587,4.4615,4.4615,4.4615,4.4615,4.4615,4.4615,4.4615,4.4615,4.4615,4.4615,4.4615,4.4615,4.4615,4.4615,4.4615,4.4615,4.4615,4.4615,4.4615,4.4615,3.3547,3.3561,3.3471,3.258,3.2281,3.2029,3.1324,3.1309,3.1471,3.1589,3.1855,0.0,0.0,0.0,0.0,0.0,0.0,3.5447,3.6107,3.7467,3.8941,4.043,4.0754,4.1276,4.239,4.217,4.1707,4.1177,4.0945,4.0464,3.9647,3.9928,3.9945,3.9613,3.9415,3.9398,3.9597,3.9398,3.9398,3.9597,3.9398,3.9299,3.9299,3.9299,3.9299,3.9299,3.9299,3.9299,3.9299,3.9299,3.9299,3.9315,3.9514,3.9597,3.9663,4.021,4.0658,4.111,4.2154,4.2622,4.2886,4.3416,4.3598,4.3598,4.3598,4.3598,4.3598,4.3598,4.3598,4.3598,4.3598,4.3598,4.3598,4.3598,4.3598,4.3598,4.3598,4.3598,4.3628,4.3658,4.3793,4.3927,4.3998,4.4097,4.4184,4.4224,4.4241,4.4315,4.4468,4.4609,4.4744,4.4891,4.5089,4.5139,4.4936,4.4919,4.4835,4.4615,4.4615,4.4615,4.4615,4.4615,4.4615,4.4615,4.4615,4.4615,4.4615,4.4615,4.4615,4.4615,4.4615,4.4615,3.4457,3.4936,3.5066,3.3627,3.3253,3.2911,3.1589,3.1797,3.2303,3.2422,3.2991,3.344,3.344,0.0,0.0,0.0,0.0,0.0,0.0,3.5505,3.6287,3.8347,3.9103,4.0254,4.2311,4.1259,4.0475,4.0442,3.9779,3.9663,4.0326,3.9713,3.9647,4.0343,3.968,3.9647,4.0359,3.9663,3.9663,4.0359,3.9647,3.9299,3.9299,3.9299,3.9299,3.9299,3.9299,3.9299,3.9299,3.9299,3.9299,3.9381,4.0094,4.0376,4.0376,4.0393,4.1259,4.2423,4.2473,4.2969,4.3565,4.3582,4.3598,4.3598,4.3598,4.3598,4.3598,4.3598,4.3598,4.3598,4.3598,4.3598,4.3598,4.3598,4.3598,4.3598,4.3598,4.3598,4.3658,4.3868,4.3898,4.3969,4.4253,4.431,4.4253,4.4126,4.4372,4.4514,4.4338,4.511,4.5669,4.5669,4.6295,4.643,4.5737,4.5669,4.5348,4.4649,4.4615,4.4615,4.4615,4.4615,4.4615,4.4615,4.4615,4.4615,4.4615,4.4615,4.4615,4.4615,4.4615,4.4615,3.504,3.5325,3.5248,3.4319,3.3673,3.3091,3.2169,3.2139,3.2421,3.2913,3.3289,3.3588,3.3897,0.0,0.0,0.0,0.0,0.0,0.0,3.5179,3.607,3.7654,3.8761,3.9672,4.0401,4.0417,4.041,4.0415,4.058,4.0597,4.0426,4.1044,4.1309,4.1077,4.0829,4.0812,4.1061,4.0365,4.016,4.0393,3.9647,3.9299,3.9299,3.9299,3.9299,3.9299,3.9299,3.9299,3.9332,3.9829,4.0028,4.0111,4.0779,4.1359,4.1789,4.1789,4.2104,4.2555,4.3052,4.3383,4.3598,4.3598,4.3598,4.3598,4.3598,4.3598,4.3598,4.3598,4.3598,4.3598,4.3598,4.3598,4.3598,4.3598,4.3976,4.4324,4.4324,4.4705,4.51,4.513,4.5161,4.5191,4.5266,4.494,4.465,4.4468,4.4344,4.4327,4.4485,4.466,4.4811,4.4959,4.5207,4.5258,4.4976,4.4959,4.4886,4.4632,4.4615,4.4615,4.4615,4.4615,4.4615,4.4615,4.4615,4.4615,4.4615,4.4615,4.4615,4.4615,4.4615,4.4615,3.5075,3.5325,3.534,3.4683,3.411,3.3539,3.2884,3.2914,3.3197,3.3629,3.3991,3.4306,3.4629,0.0,0.0,0.0,0.0,0.0,0.0,3.507,3.5834,3.6696,3.77,3.8713,3.9706,3.9719,3.9854,4.0354,4.0796,4.0961,4.0763,4.1624,4.1993,4.1806,4.1529,4.1541,4.1778,4.1094,4.0746,4.0746,4.0044,3.9547,3.9299,3.9299,3.9299,3.9299,3.9299,3.9299,3.9365,4.0111,4.0409,4.0492,4.1442,4.2059,4.2489,4.2489,4.2655,4.2953,4.3433,4.3598,4.3598,4.3598,4.3598,4.3598,4.3598,4.3598,4.3598,4.3598,4.3598,4.3648,4.3913,4.3992,4.4075,4.4324,4.4754,4.5086,4.5086,4.545,4.5812,4.5875,4.5875,4.5875,4.597,4.5663,4.5217,4.4716,4.438,4.4241,4.44,4.4648,4.4845,4.4976,4.5241,4.5292,4.4993,4.4767,4.4615,4.4615,4.4615,4.4615,4.4615,4.4615,4.4615,4.4615,4.4615,4.4615,4.4615,4.4615,4.475,4.4976,4.4976,4.5111]}]]